[[{"header":{"parameterUnit":"m.s-1","parameterCategory":1,"la1":30.6,"la2":28.766,"lo1":-90.7593,"lo2":-88.6598,"dy":0.0162,"dx":0.0183,"nx":116,"ny":114,"refTime":"2023-07-29T06:00:00:Z","depth":0,"parameterNumber":2,"parameterNumberName":"U-component_of_WINDS"},"data":[0.0,0.0,0.0,0.0,0.0,0.0,0.0,0.0,0.0,0.0,0.0,0.0,0.0,0.0,0.0,0.0,0.0,0.0,0.0,0.0,0.0,0.0,0.0,0.0,0.0,0.0,0.0,0.0,0.0,0.0,0.0,0.0,0.0,0.0,0.0,0.0,0.0,0.0,0.0,0.0,0.0,0.0,0.0,0.0,0.0,0.0,0.0,0.0,0.0,0.0,0.0,0.0,0.0,0.0,0.0,0.0,0.0,0.0,0.0,0.0,0.0,0.0,0.0,0.0,0.0,0.0,0.0,0.0,0.0,0.0,0.0,0.0,0.0,0.0,0.0,0.0,0.0,0.0,0.0,0.0,0.0,0.0,0.0,0.0,0.0,0.0,0.0,0.0,0.0,0.0,0.0,0.0,0.0,0.0,0.0,0.0,0.0,0.0,0.0,0.0,0.0,0.0,0.0,0.0,0.0,0.0,0.0,0.0,0.0,0.0,0.0,0.0,0.0,0.0,0.0,0.0,0.0,0.0,0.0,0.0,0.0,0.0,0.0,0.0,0.0,0.0,0.0,0.0,0.0,0.0,0.0,0.0,0.0,0.0,0.0,0.0,0.0,0.0,0.0,0.0,0.0,0.0,0.0,0.0,0.0,0.0,0.0,0.0,0.0,0.0,0.0,0.0,0.0,0.0,0.0,0.0,0.0,0.0,0.0,0.0,0.0,0.0,0.0,0.0,0.0,0.0,0.0,0.0,0.0,0.0,0.0,0.0,0.0,0.0,0.0,0.0,0.0,0.0,0.0,0.0,0.0,0.0,0.0,0.0,0.0,0.0,0.0,0.0,0.0,0.0,0.0,0.0,0.0,0.0,0.0,0.0,0.0,0.0,0.0,0.0,0.0,0.0,0.0,0.0,0.0,0.0,0.0,0.0,0.0,0.0,0.0,0.0,0.0,0.0,0.0,0.0,0.0,0.0,0.0,0.0,0.0,0.0,0.0,0.0,0.0,0.0,0.0,0.0,0.0,0.0,0.0,0.0,0.0,0.0,0.0,0.0,0.0,0.0,0.0,0.0,0.0,0.0,0.0,0.0,0.0,0.0,0.0,0.0,0.0,0.0,0.0,0.0,0.0,0.0,0.0,0.0,0.0,0.0,0.0,0.0,0.0,0.0,0.0,0.0,0.0,0.0,0.0,0.0,0.0,0.0,0.0,0.0,0.0,0.0,0.0,0.0,0.0,0.0,0.0,0.0,0.0,0.0,0.0,0.0,0.0,0.0,0.0,0.0,0.0,0.0,0.0,0.0,0.0,0.0,0.0,0.0,0.0,0.0,0.0,0.0,0.0,0.0,0.0,0.0,0.0,0.0,0.0,0.0,0.0,0.0,0.0,0.0,0.0,0.0,0.0,0.0,0.0,0.0,0.0,0.0,0.0,0.0,0.0,0.0,0.0,0.0,0.0,0.0,0.0,0.0,0.0,0.0,0.0,0.0,0.0,0.0,0.0,0.0,0.0,0.0,0.0,0.0,0.0,0.0,0.0,0.0,0.0,0.0,0.0,0.0,0.0,0.0,0.0,0.0,0.0,0.0,0.0,0.0,0.0,0.0,0.0,0.0,0.0,0.0,0.0,0.0,0.0,0.0,0.0,0.0,0.0,0.0,0.0,0.0,0.0,0.0,0.0,0.0,0.0,0.0,0.0,0.0,0.0,0.0,0.0,0.0,0.0,0.0,0.0,0.0,0.0,0.0,0.0,0.0,0.0,0.0,0.0,0.0,0.0,0.0,0.0,0.0,0.0,0.0,0.0,0.0,0.0,0.0,0.0,0.0,0.0,0.0,0.0,0.0,0.0,0.0,0.0,0.0,0.0,0.0,0.0,0.0,0.0,0.0,0.0,0.0,0.0,0.0,0.0,0.0,0.0,0.0,0.0,0.0,0.0,0.0,0.0,0.0,0.0,0.0,0.0,0.0,0.0,0.0,0.0,0.0,0.0,0.0,0.0,0.0,0.0,0.0,0.0,0.0,0.0,0.0,0.0,0.0,0.0,0.0,0.0,0.0,0.0,0.0,0.0,0.0,0.0,0.0,0.0,0.0,0.0,0.0,0.0,0.0,0.0,0.0,0.0,0.0,0.0,0.0,0.0,0.0,0.0,0.0,0.0,0.0,0.0,0.0,0.0,0.0,0.0,0.0,0.0,0.0,0.0,0.0,0.0,0.0,0.0,0.0,0.0,0.0,0.0,0.0,0.0,0.0,0.0,0.0,0.0,0.0,0.0,0.0,0.0,0.0,0.0,0.0,0.0,0.0,0.0,0.0,0.0,0.0,0.0,0.0,0.0,0.0,0.0,0.0,0.0,0.0,0.0,0.0,0.0,0.0,0.0,0.0,0.0,0.0,0.0,0.0,0.0,0.0,0.0,0.0,0.0,0.0,0.0,0.0,0.0,0.0,0.0,0.0,0.0,0.0,0.0,0.0,0.0,0.0,0.0,0.0,0.0,0.0,0.0,0.0,0.0,0.0,0.0,0.0,0.0,0.0,0.0,0.0,0.0,0.0,0.0,0.0,0.0,0.0,0.0,0.0,0.0,0.0,0.0,0.0,0.0,0.0,0.0,0.0,0.0,0.0,0.0,0.0,0.0,0.0,0.0,0.0,0.0,0.0,0.0,0.0,0.0,0.0,0.0,0.0,0.0,0.0,0.0,0.0,0.0,0.0,0.0,0.0,0.0,0.0,0.0,0.0,0.0,0.0,0.0,0.0,0.0,0.0,0.0,0.0,0.0,0.0,0.0,0.0,0.0,0.0,0.0,0.0,0.0,0.0,0.0,0.0,0.0,0.0,0.0,0.0,0.0,0.0,0.0,0.0,0.0,0.0,0.0,0.0,0.0,0.0,0.0,0.0,0.0,0.0,0.0,0.0,0.0,0.0,0.0,0.0,0.0,0.0,0.0,0.0,0.0,0.0,0.0,0.0,0.0,0.0,0.0,0.0,0.0,0.0,0.0,0.0,0.0,0.0,0.0,0.0,0.0,0.0,0.0,0.0,0.0,0.0,0.0,0.0,0.0,0.0,0.0,0.0,0.0,0.0,0.0,0.0,0.0,0.0,0.0,0.0,0.0,0.0,0.0,0.0,0.0,0.0,0.0,0.0,0.0,0.0,0.0,0.0,0.0,0.0,0.0,0.0,0.0,0.0,0.0,0.0,0.0,0.0,0.0,0.0,0.0,0.0,0.0,0.0,0.0,0.0,0.0,0.0,0.0,0.0,0.0,0.0,0.0,0.0,0.0,0.0,0.0,0.0,0.0,0.0,0.0,0.0,0.0,0.0,0.0,0.0,0.0,0.0,0.0,0.0,0.0,0.0,0.0,0.0,0.0,0.0,0.0,0.0,0.0,0.0,0.0,0.0,0.0,0.0,0.0,0.0,0.0,0.0,0.0,0.0,0.0,0.0,0.0,0.0,0.0,0.0,0.0,0.0,0.0,0.0,0.0,0.0,0.0,0.0,0.0,0.0,0.0,0.0,0.0,0.0,0.0,0.0,0.0,0.0,0.0,0.0,0.0,0.0,0.0,0.0,0.0,0.0,0.0,0.0,0.0,0.0,0.0,0.0,0.0,0.0,0.0,0.0,0.0,0.0,0.0,0.0,0.0,0.0,0.0,0.0,0.0,0.0,0.0,0.0,0.0,0.0,0.0,0.0,0.0,0.0,0.0,0.0,0.0,0.0,0.0,0.0,0.0,0.0,0.0,0.0,0.0,0.0,0.0,0.0,0.0,0.0,0.0,0.0,0.0,0.0,0.0,0.0,0.0,0.0,0.0,0.0,0.0,0.0,0.0,0.0,0.0,0.0,0.0,0.0,0.0,0.0,0.0,0.0,0.0,0.0,0.0,0.0,0.0,0.0,0.0,0.0,0.0,0.0,0.0,0.0,0.0,0.0,0.0,0.0,0.0,0.0,0.0,0.0,0.0,0.0,0.0,0.0,0.0,0.0,0.0,0.0,0.0,0.0,0.0,0.0,0.0,0.0,0.0,0.0,0.0,0.0,0.0,0.0,0.0,0.0,0.0,0.0,0.0,0.0,0.0,0.0,0.0,0.0,0.0,0.0,0.0,0.0,0.0,0.0,0.0,0.0,0.0,0.0,0.0,0.0,0.0,0.0,0.0,0.0,0.0,0.0,0.0,0.0,0.0,0.0,0.0,0.0,0.0,0.0,0.0,0.0,0.0,0.0,0.0,0.0,0.0,0.0,0.0,0.0,0.0,0.0,0.0,0.0,0.0,0.0,0.0,0.0,0.0,0.0,0.0,0.0,0.0,0.0,0.0,0.0,0.0,0.0,0.0,0.0,0.0,0.0,0.0,0.0,0.0,0.0,0.0,0.0,0.0,0.0,0.0,0.0,0.0,0.0,0.0,0.0,0.0,0.0,0.0,0.0,0.0,0.0,0.0,0.0,0.0,0.0,0.0,0.0,0.0,0.0,0.0,0.0,0.0,0.0,0.0,0.0,0.0,0.0,0.0,0.0,0.0,0.0,0.0,0.0,0.0,0.0,0.0,0.0,0.0,0.0,0.0,0.0,0.0,0.0,0.0,0.0,0.0,0.0,0.0,0.0,0.0,0.0,0.0,0.0,0.0,0.0,0.0,0.0,0.0,0.0,0.0,0.0,0.0,0.0,0.0,0.0,0.0,0.0,0.0,0.0,0.0,0.0,0.0,0.0,0.0,0.0,0.0,0.0,0.0,0.0,0.0,0.0,0.0,0.0,0.0,0.0,0.0,0.0,0.0,0.0,0.0,0.0,0.0,0.0,0.0,0.0,0.0,0.0,0.0,0.0,0.0,0.0,0.0,0.0,0.0,0.0,0.0,0.0,0.0,0.0,0.0,0.0,0.0,0.0,0.0,0.0,0.0,0.0,0.0,0.0,0.0,0.0,0.0,0.0,0.0,0.0,0.0,0.0,0.0,0.0,0.0,0.0,0.0,0.0,0.0,0.0,0.0,0.0,0.0,0.0,0.0,0.0,0.0,0.0,0.0,0.0,0.0,0.0,0.0,0.0,0.0,0.0,0.0,0.0,0.0,0.0,0.0,0.0,0.0,0.0,0.0,0.0,0.0,0.0,0.0,0.0,0.0,0.0,0.0,0.0,0.0,0.0,0.0,0.0,0.0,0.0,0.0,0.0,0.0,0.0,0.0,0.0,0.0,0.0,0.0,0.0,0.0,0.0,0.0,0.0,0.0,0.0,0.0,0.0,0.0,0.0,0.0,0.0,0.0,0.0,0.0,0.0,0.0,0.0,0.0,0.0,0.0,0.0,0.0,0.0,0.0,0.0,0.0,0.0,0.0,0.0,0.0,0.0,0.0,0.0,0.0,0.0,0.0,0.0,0.0,0.0,0.0,0.0,0.0,0.0,0.0,0.0,0.0,0.0,0.0,0.0,0.0,0.0,0.0,0.0,0.0,0.0,0.0,0.0,0.0,0.0,0.0,0.0,0.0,0.0,0.0,0.0,0.0,0.0,0.0,0.0,0.0,0.0,0.0,0.0,0.0,0.0,0.0,0.0,0.0,0.0,0.0,0.0,0.0,0.0,0.0,0.0,0.0,0.0,0.0,0.0,0.0,0.0,0.0,0.0,0.0,0.0,0.0,0.0,0.0,0.0,0.0,0.0,0.0,0.0,0.0,0.0,0.0,0.0,0.0,0.0,0.0,0.0,0.0,0.0,0.0,0.0,0.0,0.0,0.0,0.0,0.0,0.0,0.0,0.0,0.0,0.0,0.0,0.0,0.0,0.0,0.0,0.0,0.0,0.0,0.0,0.0,0.0,0.0,0.0,0.0,0.0,0.0,0.0,0.0,0.0,0.0,0.0,0.0,0.0,0.0,0.0,0.0,0.0,0.0,0.0,0.0,0.0,0.0,0.0,0.0,0.0,0.0,0.0,0.0,0.0,0.0,0.0,0.0,0.0,0.0,0.0,0.0,0.0,0.0,0.0,0.0,0.0,0.0,0.0,0.0,0.0,0.0,0.0,0.0,0.0,0.0,0.0,0.0,0.0,0.0,0.0,0.0,0.0,0.0,0.0,0.0,0.0,0.0,0.0,0.0,0.0,0.0,0.0,0.0,0.0,0.0,1.016,1.0174,0.0,0.0,0.0,0.0,0.0,0.0,0.0,0.0,0.0,0.0,0.0,0.0,0.0,0.0,0.0,0.0,0.0,0.0,0.0,0.0,0.0,0.0,0.0,0.0,0.0,0.0,0.0,0.0,0.0,0.0,0.0,0.0,0.0,0.0,0.0,0.0,0.0,0.0,0.0,0.0,0.0,0.0,0.0,0.0,0.0,0.0,0.0,0.0,0.0,0.0,0.0,0.0,0.0,0.0,0.0,0.0,0.0,0.0,0.0,0.0,0.0,0.0,0.0,0.0,0.0,0.0,0.0,0.0,0.0,0.0,0.0,0.0,0.0,0.0,0.0,0.0,0.0,0.0,0.0,0.0,0.0,0.0,0.0,0.0,0.0,0.0,0.0,0.0,0.0,0.0,0.0,0.0,0.0,0.0,0.0,0.0,0.0,0.0,0.0,0.0,0.0,0.0,0.0,0.0,0.0,0.0,0.0,0.0,0.0,0.0,0.0,0.0,0.0,0.0,1.0782,1.0454,0.0,0.0,0.0,0.0,0.0,0.0,0.0,0.0,0.0,0.0,0.0,0.0,0.0,0.0,0.0,0.0,0.0,0.0,0.0,0.0,0.0,0.0,0.0,0.0,0.0,0.0,0.0,0.0,0.0,0.0,0.0,0.0,0.0,0.0,0.0,0.0,0.0,0.0,0.0,0.0,0.0,0.0,0.0,0.0,0.0,0.0,0.0,0.0,0.0,0.0,0.0,0.0,0.0,0.0,0.0,0.0,0.0,0.0,0.0,0.0,0.0,0.0,0.0,0.0,0.0,0.0,0.0,0.0,0.0,0.0,0.0,0.0,0.0,0.0,0.0,0.0,0.0,0.0,0.0,0.0,0.0,0.0,0.0,0.0,0.0,0.0,0.0,0.0,0.0,0.0,0.0,0.0,0.0,0.0,0.0,0.0,0.0,0.0,0.0,0.0,0.0,0.0,0.0,0.0,0.0,0.0,0.0,0.0,1.3051,1.3311,1.2903,1.2903,1.2929,1.2846,1.1877,1.1202,1.0866,1.0989,0.0,0.0,0.0,0.0,0.0,0.0,0.0,0.0,0.0,0.0,0.0,0.0,0.0,0.0,0.0,0.0,0.0,0.0,0.0,0.0,0.0,0.0,0.0,0.0,0.0,0.0,0.0,0.0,0.0,0.0,0.0,0.0,0.0,0.0,0.0,0.0,0.0,0.0,1.6484,1.6924,1.7406,1.7887,0.0,0.0,0.0,0.0,0.0,0.0,0.0,0.0,0.0,0.0,0.0,0.0,0.0,0.0,0.0,0.0,0.0,0.0,0.0,0.0,0.0,0.0,0.0,0.0,0.0,0.0,0.0,0.0,0.0,0.0,0.0,0.0,0.0,0.0,0.0,0.0,0.0,0.0,0.0,0.0,0.0,0.0,0.0,0.0,1.5879,1.5381,0.0,0.0,0.0,0.0,0.0,0.0,0.0,0.0,0.0,0.0,0.0,0.0,0.0,1.2933,1.2587,1.386,1.4045,1.3039,1.3407,1.3433,1.3153,1.3153,1.3287,1.352,1.336,0.0,1.1683,1.1463,0.0,0.0,0.0,0.0,0.0,0.0,0.0,0.0,0.0,0.0,0.0,0.0,0.0,0.0,0.0,0.0,0.0,0.0,0.0,0.0,0.0,0.0,0.0,0.0,0.0,0.0,0.0,0.0,0.0,0.0,0.0,0.0,0.0,0.0,0.0,0.0,1.247,1.4153,1.6685,1.7178,1.7832,1.8623,1.8311,1.7684,1.6775,1.6075,0.0,0.0,0.0,0.0,0.0,0.0,0.0,0.0,0.0,0.0,0.0,0.0,0.0,0.0,0.0,0.0,0.0,0.0,0.0,0.0,0.0,0.0,0.0,0.0,0.0,0.0,0.0,0.0,0.0,0.0,0.0,0.0,0.0,0.0,0.0,0.0,0.0,0.0,0.0,1.6816,1.6816,1.5889,1.6768,1.7012,0.0,0.0,0.0,0.0,0.0,0.0,0.0,0.0,0.0,1.3058,1.3271,1.3333,1.3247,1.3824,1.4145,1.4202,1.4489,1.4736,1.493,1.4756,1.4843,1.5104,1.477,1.4242,1.3547,1.2752,1.2325,1.2138,0.0,0.0,0.0,0.0,1.1837,1.1984,0.0,0.0,0.0,0.0,0.0,0.0,0.0,0.0,0.0,0.0,0.0,0.0,0.0,0.0,0.0,1.2604,0.0,0.0,0.0,0.0,0.0,0.0,0.0,0.0,0.0,0.0,0.0,0.0,1.3003,1.4281,1.6652,1.7432,1.8209,1.901,1.9551,1.9049,1.774,1.7046,1.6342,0.0,0.0,0.0,0.0,0.0,0.0,0.0,0.0,0.0,0.0,0.0,0.0,0.0,0.0,0.0,0.0,0.0,0.0,0.0,0.0,0.0,0.0,0.0,0.0,0.0,0.0,0.0,0.0,0.0,0.0,0.0,0.0,0.0,0.0,0.0,0.0,0.0,0.0,1.7187,1.7529,1.6282,1.75,1.7949,0.0,0.0,0.0,0.0,0.0,0.0,1.5833,1.4736,1.4195,1.4508,1.4118,1.4021,1.4309,1.4389,1.4756,1.5411,1.5631,1.5959,1.638,1.6152,1.6172,1.6359,1.5919,1.5611,1.5311,1.4062,1.3367,1.3138,1.2759,1.2692,1.2752,1.2672,1.2786,1.2999,0.0,0.0,0.0,0.0,0.0,0.0,0.0,0.0,0.0,0.0,0.0,0.0,0.0,0.0,1.1757,1.2708,1.403,1.4435,0.0,0.0,0.0,0.0,0.0,0.0,0.0,0.0,0.0,1.2736,1.3104,1.4408,1.6571,1.8145,1.9308,1.9967,2.0891,2.0962,2.0327,1.8624,1.9704,2.2143,0.0,0.0,0.0,0.0,0.0,0.0,0.0,0.0,0.0,0.0,0.0,0.0,0.0,0.0,0.0,0.0,0.0,0.0,0.0,0.0,0.0,0.0,0.0,0.0,0.0,0.0,0.0,0.0,0.0,0.0,0.0,0.0,0.0,0.0,0.0,0.0,0.0,0.0,0.0,1.6282,1.8281,0.0,0.0,0.0,0.0,1.6803,1.5265,1.455,1.4976,1.442,1.4368,1.4945,1.5411,1.5838,1.6139,1.6413,1.6573,1.662,1.6633,1.6653,1.6687,1.6667,1.6667,1.6687,1.6653,1.6633,1.6506,1.505,1.4282,1.3988,1.3694,1.3748,1.3961,1.3681,1.3587,1.3561,0.0,0.0,0.0,0.0,0.0,0.0,0.0,0.0,0.0,0.0,0.0,0.0,0.0,1.1541,1.246,1.3203,1.4307,1.4959,1.4901,0.0,0.0,0.0,0.0,0.0,0.0,0.0,1.213,1.3331,1.3866,1.5111,1.6903,1.8493,1.9668,2.0499,2.1532,2.2032,2.2136,2.0361,1.9732,1.957,1.6597,1.6092,0.0,0.0,0.0,0.0,0.0,0.0,0.0,0.0,0.0,0.0,0.0,0.0,0.0,0.0,0.0,0.0,0.0,0.0,0.0,0.0,0.0,0.0,0.0,0.0,0.0,0.0,0.0,0.0,0.0,0.0,0.0,0.0,0.0,0.0,0.0,0.0,0.0,1.7367,1.7982,0.0,1.7047,1.6941,1.6979,1.7086,1.6125,1.5798,1.6418,1.5867,1.5671,1.6072,1.6286,1.6446,1.6553,1.6653,1.68,1.6987,1.6987,1.7088,1.7261,1.7074,1.6987,1.6981,1.6787,1.6707,1.6667,1.6139,1.5758,1.5464,1.517,1.5003,1.4917,1.481,1.477,1.4756,0.0,0.0,0.0,0.0,0.0,0.0,0.0,0.0,0.0,0.0,0.0,0.976,1.0347,1.1542,1.2491,1.3048,1.392,1.4455,1.4413,0.0,0.0,0.0,0.0,0.0,0.0,1.2571,1.2732,1.3651,1.4281,1.524,1.6553,1.8465,1.9685,2.0386,2.1917,2.2756,2.3076,2.1931,2.0799,1.9592,1.8469,1.762,1.7046,0.0,0.0,0.0,0.0,0.0,0.0,0.0,0.0,0.0,0.0,0.0,0.0,0.0,0.0,0.0,0.0,0.0,0.0,0.0,0.0,0.0,0.0,0.0,0.0,0.0,0.0,0.0,0.0,0.0,0.0,0.0,0.0,0.0,0.0,1.7651,1.7854,1.7845,1.8211,1.8161,1.7507,1.7439,1.747,1.7702,1.7035,1.6894,1.7506,1.7155,1.7007,1.7301,1.7308,1.7308,1.7308,1.7308,1.7408,1.7602,1.7502,1.7602,1.7883,1.7589,1.7448,1.7442,1.7241,1.7101,1.7001,1.7001,1.6887,1.6673,1.6279,1.5945,1.5691,1.5691,1.5631,1.5538,0.0,0.0,0.0,0.0,0.0,0.0,0.0,0.0,0.0,0.0,0.9072,0.9435,1.008,1.0929,1.169,1.2291,1.2763,1.272,1.2033,1.3292,0.0,0.0,0.0,0.0,1.2758,1.3564,1.3839,1.3667,1.4262,1.4836,1.5483,1.792,1.9273,1.9704,2.2034,2.3104,2.3124,2.3174,2.3145,2.3213,2.3161,2.0136,1.5813,0.0,0.0,0.0,0.0,0.0,0.0,0.0,0.0,0.0,0.0,0.0,0.0,0.0,0.0,0.0,0.0,0.0,0.0,0.0,0.0,0.0,0.0,0.0,0.0,0.0,0.0,0.0,0.0,0.0,0.0,0.0,0.0,0.0,1.6325,1.8267,1.9143,1.7572,1.8972,1.975,1.8899,1.8807,1.8789,1.8803,1.8067,1.7742,1.8043,1.8063,1.819,1.8484,1.849,1.849,1.849,1.849,1.849,1.849,1.8196,1.8217,1.8477,1.819,1.8056,1.805,1.805,1.7869,1.7582,1.7582,1.7582,1.7528,1.6954,1.6553,1.6299,1.6293,1.6092,1.5832,0.0,0.0,0.0,0.0,0.0,0.0,0.0,0.0,0.0,0.0,0.9432,1.01,1.0688,1.1536,1.2385,1.3206,1.2634,1.262,1.3505,0.0,0.0,0.0,0.0,0.0,1.3682,1.3663,1.3926,1.4275,1.487,1.5672,1.673,1.7848,1.9431,2.1414,2.2593,2.3419,2.4045,2.4707,2.503,2.4877,2.3599,2.2247,2.1144,0.0,0.0,0.0,0.0,0.0,0.0,0.0,0.0,0.0,0.0,0.0,0.0,0.0,0.0,0.0,0.0,0.0,0.0,0.0,0.0,0.0,0.0,0.0,0.0,0.0,0.0,0.0,0.0,0.0,0.0,0.0,1.7769,1.8497,1.878,1.785,1.7359,1.7742,1.7967,1.8037,1.7992,1.8137,1.8304,1.8529,1.8408,1.8277,1.8364,1.837,1.8404,1.849,1.849,1.849,1.849,1.849,1.849,1.849,1.841,1.841,1.849,1.8404,1.825,1.805,1.805,1.7869,1.7582,1.7582,1.7582,1.7569,1.7402,1.7168,1.6881,1.6667,1.6266,1.5832,0.0,0.0,0.0,0.0,0.0,0.0,0.0,0.0,0.0,0.0,0.9466,1.016,1.0748,1.1483,1.2245,1.3013,1.2225,1.2107,1.2956,0.0,0.0,0.0,0.0,1.399,1.3804,1.4069,1.4422,1.489,1.5351,1.5937,1.6657,1.764,1.9202,2.1287,2.3052,2.4041,2.4496,2.5314,2.5713,2.5664,2.5421,2.4802,2.4215,2.4459,2.2754,2.0172,2.0108,2.1113,2.2158,2.027,0.0,0.0,0.0,0.0,0.0,0.0,0.0,0.0,0.0,0.0,0.0,0.0,0.0,0.0,0.0,0.0,0.0,0.0,0.0,0.0,0.0,0.0,0.0,0.0,1.8868,1.9272,2.036,1.8629,1.7428,1.7725,1.7866,1.7963,1.8123,1.8417,1.8724,1.9018,1.9038,1.9092,1.9212,1.9219,1.9165,1.9045,1.9038,1.8985,1.8858,1.8858,1.8858,1.8858,1.8731,1.8738,1.8851,1.8731,1.851,1.823,1.823,1.7989,1.7582,1.7582,1.7582,1.7582,0.0,0.0,0.0,0.0,1.6413,1.6012,0.0,0.0,0.0,0.0,0.0,0.0,0.0,0.0,0.0,0.0,0.0,0.988,1.0463,1.0982,1.1577,1.2198,1.1683,1.1356,0.0,0.0,0.0,1.2723,1.385,1.428,1.3788,1.4589,1.5157,1.5444,1.5705,1.5825,1.6021,1.7301,1.8686,2.0312,2.3262,2.4557,2.4613,2.5609,2.6021,2.6142,2.7647,2.7359,2.5826,2.4291,2.3534,2.3423,2.3368,2.1467,1.9137,2.0829,0.0,0.0,0.0,0.0,0.0,0.0,0.0,0.0,0.0,0.0,0.0,0.0,0.0,0.0,0.0,0.0,0.0,0.0,0.0,0.0,0.0,0.0,0.0,0.0,2.0457,1.9507,2.1377,2.0342,1.9,1.7867,1.8417,1.8925,1.8925,1.9225,1.9519,1.978,1.9826,1.996,2.0221,2.0234,0.0,0.0,0.0,1.9693,1.9372,1.9399,1.9399,1.9366,1.9098,1.9112,1.9359,1.9092,1.8818,1.8544,1.8544,1.8196,1.7635,1.7635,1.7615,1.7582,1.7582,1.7408,1.7114,1.6814,1.652,1.6266,0.0,0.0,0.0,0.0,0.0,0.0,0.0,0.0,0.0,0.8804,0.9319,0.9726,0.984,1.0374,1.1056,1.1884,1.1202,1.0929,0.0,0.0,1.2846,1.3049,1.4238,1.4807,1.4689,1.5104,1.5451,1.5745,1.5798,1.6292,1.7326,1.7044,1.8258,2.0599,2.1787,2.3481,2.5503,2.7169,2.7779,2.7816,2.8113,2.8054,2.7712,2.7455,2.64,2.5184,2.5227,2.4776,2.3673,1.9955,2.1202,2.3473,1.9316,0.0,0.0,0.0,0.0,0.0,0.0,0.0,0.0,0.0,0.0,0.0,0.0,0.0,0.0,0.0,0.0,0.0,0.0,0.0,0.0,2.1461,2.1904,2.2205,2.2281,2.2683,2.1814,1.8687,1.8677,1.8925,1.8925,1.9406,1.974,1.98,2.0013,2.0174,2.0227,2.0234,2.01,1.9813,2.0027,1.99,1.9372,1.9599,1.9599,1.9366,1.9305,0.0,1.9366,1.9305,1.9118,1.8838,1.8838,1.8504,1.7956,1.7956,1.7809,1.7582,1.7582,1.7408,1.7114,1.6814,1.652,1.6239,0.0,0.0,0.0,0.0,0.0,0.0,0.0,0.0,0.0,0.0,0.9192,0.9519,0.9666,0.9947,1.0361,1.0942,1.0595,0.0,0.0,1.2033,1.2774,1.338,1.44,1.5005,1.517,1.5464,1.5685,1.5832,1.5832,1.6184,1.7003,1.6789,1.7967,2.0146,2.0751,2.2724,2.5767,2.6608,2.7544,2.8262,2.8327,2.8281,2.8294,2.8329,2.7713,2.6881,2.5968,2.571,2.5283,2.2749,2.3603,2.5224,2.2668,2.123,2.0244,0.0,0.0,0.0,0.0,0.0,0.0,0.0,0.0,0.0,0.0,0.0,0.0,0.0,0.0,2.1357,2.1777,0.0,2.3318,2.3805,2.3868,2.3945,2.4307,2.4302,2.3159,2.0183,2.0338,2.0772,2.0601,2.0212,2.0427,2.1406,2.0848,2.0521,2.0661,2.0668,2.0535,2.0247,2.0381,2.0174,1.9593,1.9726,1.9659,1.9366,1.9366,1.9366,1.9366,1.9366,1.9205,1.8918,1.8771,1.8457,1.8036,1.7883,1.7722,1.7582,1.7582,1.7495,1.7348,1.7201,1.6961,1.6673,0.0,0.0,0.0,0.0,0.0,0.0,0.0,0.0,0.0,0.0,0.9011,0.9245,0.9486,0.9512,0.9633,0.0,0.0,0.0,0.0,1.1844,1.2732,1.3687,1.4522,1.5104,1.5391,1.5678,1.5832,1.5832,1.5832,1.5979,1.6279,1.6567,1.7594,1.9212,1.9574,2.1407,2.4132,2.4364,2.6,2.8266,2.8301,2.833,2.835,2.8298,2.8287,2.8054,2.6361,2.5713,2.566,2.567,2.594,2.6222,2.6243,2.5244,2.3446,1.9975,1.8487,0.0,0.0,0.0,0.0,0.0,0.0,0.0,0.0,2.0896,2.1234,2.1816,2.2393,2.3027,2.3877,2.4521,2.5293,2.6455,2.6022,2.5803,2.6619,2.6054,2.4763,2.2466,2.2744,2.294,2.2308,2.1427,2.1248,2.2579,2.1451,2.0862,2.1096,2.1109,2.1101,2.117,2.0852,2.0597,2.0356,1.9999,1.974,1.9452,1.9392,1.9366,1.9366,1.9366,1.9239,1.8991,1.8698,1.8437,1.819,1.7889,1.7762,1.7762,1.7762,1.7722,1.7655,1.7542,1.7355,1.7108,0.0,0.0,0.0,0.0,0.0,0.0,0.0,0.0,0.0,0.0,0.0,0.0,0.0,0.0,0.0,0.0,0.0,0.0,0.0,1.1957,1.2819,1.3988,1.4629,1.5104,1.5391,1.5678,1.5832,1.5832,1.5832,1.5979,1.6279,1.6348,1.6757,1.7279,1.7716,1.815,1.8554,1.9707,2.326,2.8266,2.8301,2.834,2.8346,2.8317,2.8271,2.8073,2.6318,2.5693,2.5728,2.5694,2.6754,2.7974,2.7987,2.7902,2.7001,2.3564,0.0,1.8625,2.1699,2.145,2.0706,2.215,2.3941,2.509,0.0,2.4684,2.4934,2.4707,2.5303,2.5684,2.5039,2.5918,2.6894,2.7441,2.7766,2.8222,2.9075,2.9427,2.8682,2.639,2.5328,2.4311,2.2772,2.2706,2.232,2.1033,2.1041,2.1076,2.1109,2.1109,2.1582,2.2845,2.1659,2.1507,2.2312,2.0891,2.004,1.9746,1.9492,1.9366,1.9366,1.9366,1.9352,1.9299,1.9005,1.8851,1.8804,1.851,1.839,1.839,1.839,1.823,1.7929,1.7395,1.7181,1.7108,0.0,0.0,0.0,0.0,0.0,0.0,0.0,0.0,0.0,0.0,0.0,0.0,0.0,0.0,0.0,0.0,0.0,0.0,1.0875,1.147,1.2398,1.3768,1.4229,1.475,1.5384,1.5518,1.5658,1.5832,1.5832,1.6066,1.6526,1.6427,1.6767,1.7381,1.7546,1.7968,1.8632,1.9172,2.2799,2.834,2.8277,2.8343,2.7787,2.2905,2.0626,2.0256,2.1938,2.1475,0.0,0.0,2.3388,2.5614,2.7662,2.8269,2.8041,2.652,2.3712,0.0,2.1489,2.2579,2.3455,2.2804,2.42,2.5618,2.5152,2.5565,2.6197,2.6526,2.707,2.7461,2.7334,2.7959,2.8564,2.874,2.8926,2.9248,2.9844,2.9873,2.9472,2.8537,2.7948,2.7122,2.5501,2.4768,2.4579,2.5149,2.4447,2.3915,2.3915,2.3915,2.4217,2.4801,2.4209,2.4055,2.4404,2.3689,2.307,2.2543,2.1489,2.0873,2.0702,1.9815,1.9272,1.9098,1.8978,1.8824,1.8664,1.8544,1.849,1.849,1.849,1.831,1.8016,1.7762,1.7555,1.7361,0.0,0.0,0.0,0.0,0.0,0.0,0.0,0.0,0.0,0.0,0.0,0.0,0.0,0.0,0.0,0.0,0.0,0.0,0.0,1.0935,1.1857,1.31,1.3674,0.0,1.5137,1.5311,1.5538,1.5832,1.5832,1.6126,1.6707,1.6587,1.6839,1.7583,1.798,1.8532,1.9439,1.9346,2.1851,2.5804,2.5895,2.5415,2.413,1.7729,1.4836,1.4696,1.9392,1.8419,0.0,0.0,2.0685,2.3516,2.6073,2.687,2.6715,2.5744,2.4023,2.2332,2.2058,2.3843,2.5348,2.3839,2.5088,2.656,2.6045,2.6543,2.7295,2.8037,2.8437,2.8701,2.8887,2.918,2.9434,2.9551,2.957,2.9717,3.0137,2.9834,2.9482,2.9248,2.9004,2.8507,2.7698,2.6548,2.627,2.7498,2.643,2.5869,2.5976,2.5976,2.6219,2.6712,2.6219,2.6094,2.6321,2.5855,2.5252,2.463,2.3375,2.2582,2.2145,2.0702,1.9692,1.9045,1.9045,1.8925,1.8731,1.8731,1.8731,1.8731,1.8731,1.8504,1.817,1.817,1.7923,1.7555,0.0,0.0,0.0,0.0,0.0,0.0,0.0,0.0,0.0,0.0,0.0,0.0,0.0,0.0,0.0,0.0,0.0,0.0,0.0,1.0521,1.1283,1.1897,1.3033,1.3935,1.4536,1.5104,1.5538,1.5832,1.5832,1.6126,1.6707,1.6707,1.7065,1.7692,1.8851,1.941,1.9439,1.9346,1.948,1.9687,1.9651,1.8265,1.5977,1.4659,1.4115,1.4846,2.0898,0.0,0.0,0.0,2.0292,2.3093,2.3254,2.323,0.0,1.9321,1.9451,2.137,2.4635,2.5599,2.583,2.6368,2.7779,2.8973,2.8298,2.8535,2.8965,2.9414,2.9521,2.9404,2.8994,2.8926,2.9082,2.9502,2.957,2.9717,3.0137,2.9834,2.9268,2.8428,2.7598,2.7412,2.8145,2.7493,2.66,2.5423,2.5329,2.5485,2.596,2.5976,2.6712,2.8298,2.6832,2.6703,2.828,2.6457,2.5376,2.4878,2.4532,2.4177,2.371,2.2258,2.0694,1.9352,1.9352,1.9352,1.9339,1.9339,1.9339,1.9339,1.9339,1.8985,1.8477,1.8477,1.8096,1.7582,0.0,0.0,0.0,0.0,0.0,0.0,0.0,0.0,0.0,0.0,0.0,0.0,0.0,0.0,0.0,0.0,0.0,0.0,0.0,1.0027,1.0675,1.1263,1.2231,1.3126,1.3921,1.4509,1.505,1.5538,1.5732,1.6022,1.648,1.66,1.7068,1.7629,1.8056,1.8625,1.936,1.9346,1.9452,1.9258,1.761,1.6561,1.566,1.4843,1.4127,1.4046,0.0,0.0,0.0,0.0,1.5888,1.819,1.9335,1.9744,1.9752,1.9752,2.2603,2.5579,2.4785,2.5988,2.7367,2.7351,2.8366,2.9451,2.9564,2.9902,3.0176,3.0019,2.9531,2.9004,2.8584,2.8271,2.8223,2.8652,2.9199,2.9619,2.9766,2.9902,2.9463,2.8047,2.8115,2.8057,2.75,2.7419,2.7691,2.8066,2.8381,2.8584,2.8723,2.9127,2.953,3.002,2.953,2.953,3.002,2.9399,2.8867,2.8431,2.5803,2.3276,2.0816,2.0371,1.9815,1.9366,1.9366,1.9366,1.9366,1.9366,1.9366,1.9366,1.9366,1.9125,1.8778,1.8778,1.8524,1.813,0.0,0.0,0.0,0.0,0.0,0.0,0.0,0.0,0.0,0.0,0.0,0.0,0.0,0.0,0.0,0.0,0.0,0.0,0.0,0.0,1.002,1.0508,1.1269,1.2044,1.2832,1.3427,1.3968,1.4449,1.4957,1.5358,1.5823,1.6463,1.7004,1.7592,1.7193,1.7629,1.8809,1.8794,1.7516,1.5512,1.4888,1.4571,1.4523,1.4463,1.3935,0.0,0.0,0.0,0.0,0.0,1.3362,1.5685,1.7435,1.8831,2.0143,2.1892,2.4636,2.6802,2.5585,2.6747,2.8299,2.8347,2.9199,3.0117,3.0381,3.0547,3.0469,2.9863,2.8935,2.8115,2.7695,2.7012,2.6748,2.749,2.7949,2.8418,2.9033,2.9082,2.8769,2.7988,2.8096,2.8037,2.7519,2.7588,2.8135,2.9258,2.9726,3.0039,3.0185,3.0635,3.0889,3.0889,3.0274,3.002,3.002,2.9412,2.8945,2.8403,2.5771,2.3121,2.0308,2.0308,2.0027,1.9366,1.9366,1.9366,1.9366,1.9366,1.9366,1.9366,1.9366,1.9185,1.8911,1.8804,1.8651,1.8417,0.0,0.0,0.0,0.0,0.0,0.0,0.0,0.0,0.0,0.0,0.0,0.0,0.0,0.0,0.0,0.0,0.0,0.0,0.0,0.0,0.0,0.9653,1.0221,1.0802,1.1369,1.1957,1.2405,1.2775,1.3655,1.4253,1.4763,1.6055,1.6973,1.7369,1.6321,1.6373,1.7198,1.7198,1.4074,0.9202,1.1373,1.2344,1.2433,1.3459,0.0,0.0,0.0,0.0,0.0,0.0,1.2938,1.582,1.7476,2.0203,2.3154,2.4926,2.5157,2.5282,2.6917,2.7874,2.8584,2.9434,3.0273,3.0889,3.0859,3.0478,2.9883,2.9004,2.7783,2.6748,2.6309,2.5195,2.4785,2.6103,2.6045,2.6416,2.8086,2.7685,2.749,2.8232,2.7646,2.748,2.8252,2.7988,2.8096,2.8896,2.9336,2.9756,3.0176,3.0635,3.0889,3.0889,2.9285,2.8417,2.8417,2.6832,2.5674,2.5193,2.4858,2.3692,2.1861,2.1846,2.1002,1.9392,1.9372,1.9366,1.9366,1.9366,1.9366,1.9366,1.9366,1.9192,1.8911,1.8637,1.8531,1.847,0.0,0.0,0.0,0.0,0.0,0.0,0.0,0.0,0.0,0.0,0.0,0.0,0.0,0.0,0.0,0.0,0.0,0.0,0.0,0.0,0.0,0.0,0.0,0.0,0.0,1.1349,1.1797,1.2163,0.0,1.4095,1.4947,1.5688,1.5693,1.5012,1.5528,1.4568,1.24,1.24,1.2025,1.1467,0.0,1.2284,1.2296,0.0,0.0,0.0,0.0,0.0,0.0,0.0,0.0,1.7351,1.7647,1.8294,1.934,2.0891,2.3268,2.5581,2.6124,2.7943,2.9844,3.041,3.0723,3.0801,3.0449,2.9785,2.8916,2.7744,2.6211,2.4853,2.4121,2.3701,2.3887,2.5195,2.6396,2.7539,2.8613,2.9424,2.9619,2.8848,2.9131,2.9219,2.8799,2.8955,2.917,2.9385,2.9502,2.9756,3.0176,3.0635,3.0889,3.0889,2.9285,2.8417,2.8417,2.6832,2.5198,2.3664,2.358,2.2534,2.0688,2.0468,2.0101,1.9679,1.9459,1.9366,1.9366,1.9366,1.9366,1.9366,1.9366,1.9319,1.9245,1.9172,1.9005,1.8771,0.0,0.0,0.0,0.0,0.0,0.0,0.0,0.0,0.0,0.0,0.0,0.0,0.0,0.0,0.0,0.0,0.0,0.0,0.0,0.0,0.0,0.0,0.0,0.0,0.0,1.0234,1.0548,0.0,0.0,0.0,0.0,1.4328,1.4179,1.2622,1.3267,1.232,1.0179,0.0,0.0,0.0,0.0,0.0,0.0,0.0,0.0,0.0,0.0,0.0,0.0,0.0,0.0,1.8479,1.7811,1.8368,1.9346,2.0484,2.2732,2.5002,2.544,2.6964,2.8654,2.9699,2.9776,2.9536,2.9429,2.8701,2.7559,2.5693,2.4394,2.3262,2.2217,2.2178,2.2666,2.3769,2.5078,2.6533,2.8144,2.9014,2.9482,2.9473,2.9902,2.9773,2.8493,2.8663,2.8632,2.8089,2.9127,2.9601,2.9125,2.954,2.953,2.8801,2.7091,2.5993,2.5253,2.4278,2.3338,2.2196,2.2196,2.1554,2.0421,2.012,1.992,1.9786,1.9492,1.9366,1.9366,1.9366,1.9366,1.9366,1.9366,1.9366,1.9352,1.9219,1.9065,1.8878,0.0,0.0,0.0,0.0,0.0,0.0,0.0,0.0,0.0,0.0,0.0,0.0,0.0,0.0,0.0,0.0,0.0,0.0,0.0,0.0,0.0,0.0,0.0,0.0,0.0,0.9051,0.913,0.913,0.0,0.0,0.0,0.0,0.0,0.0,0.0,0.0,0.0,0.0,0.0,0.0,0.0,0.0,0.0,0.0,0.0,0.0,0.0,0.0,0.0,0.0,1.6795,1.9024,1.8047,1.9272,2.1119,2.165,2.2854,2.4101,2.4795,2.5481,2.6558,2.8445,2.8307,2.787,2.8182,2.7412,2.5967,2.3486,2.2588,2.1885,2.0703,2.0889,2.1553,2.2519,2.3398,2.4844,2.7393,2.7842,2.8476,2.9783,2.9891,2.9335,2.7678,2.7552,2.7094,2.6073,2.821,2.8978,2.7678,2.7872,2.7323,2.5741,2.4294,2.2834,2.1109,2.1109,2.1089,2.1049,2.1089,2.0935,2.0608,2.0347,2.0074,1.9786,1.9492,1.9366,1.9366,1.9366,1.9366,1.9366,1.9366,1.9366,1.9339,1.9078,1.8958,1.8885,0.0,0.0,0.0,0.0,0.0,0.0,0.0,0.0,0.0,0.0,0.0,0.0,0.0,0.0,0.0,0.0,0.0,0.0,0.0,0.0,0.0,0.0,0.0,0.0,0.8804,0.8858,0.8884,0.8884,0.9099,0.0,0.0,0.0,0.0,0.0,0.0,0.0,0.0,0.0,0.0,0.0,0.0,0.0,0.0,0.0,0.0,0.0,0.0,0.0,0.0,0.0,1.5882,1.7943,1.8427,1.9078,1.9871,2.0364,2.1814,2.3407,2.4075,2.5502,2.7094,2.8587,2.8298,2.7682,2.7815,2.6269,2.4346,2.248,2.1465,2.0723,2.0137,2.0693,2.1748,2.331,2.4287,2.5625,2.7871,2.8799,2.9016,2.8357,2.8482,2.8072,2.6498,2.6248,2.6273,2.5976,2.6402,2.661,2.6369,2.6428,2.5619,2.4054,2.3698,2.2834,2.1109,2.1109,2.0989,2.0755,2.0995,2.0828,2.0307,2.0254,2.0074,1.9786,1.9492,1.9366,1.9366,1.9366,1.9366,1.9366,1.9366,1.9366,1.9359,1.9305,1.9132,1.8918,0.0,0.0,0.0,0.0,0.0,0.0,0.0,0.0,0.0,0.0,1.2608,0.0,0.0,0.0,0.0,0.0,0.0,0.0,0.0,0.0,0.0,0.0,0.0,0.0,0.8804,0.8804,0.8804,0.8804,0.0,0.8818,0.8775,0.8802,0.8882,0.9136,0.942,0.0,0.0,0.0,0.0,0.0,0.0,0.0,0.0,0.0,0.0,0.0,0.0,0.0,0.0,0.0,1.476,1.6619,1.7642,1.8589,1.9475,1.9925,2.0915,2.2051,2.2708,2.3543,2.4802,2.7202,2.6704,2.5839,2.6464,0.0,0.0,2.0928,2.0195,1.9697,1.9043,1.9814,0.0,2.1943,2.2842,2.4031,2.5853,2.7391,2.782,2.6737,2.77,2.7443,2.5024,2.4778,2.4409,2.3551,2.3427,2.3792,2.4655,2.3915,2.3062,2.2341,2.2341,2.1971,2.1109,2.0955,2.0815,2.0675,2.0661,2.0508,2.0227,2.008,1.9927,1.9786,1.9492,1.9366,1.9366,1.9366,1.9366,1.9366,1.9366,1.9366,1.9366,1.9366,1.9178,1.8945,0.0,0.0,0.0,0.0,0.0,0.0,0.0,1.2744,1.2773,1.2871,1.2881,1.2881,1.2881,1.2881,0.0,0.0,0.0,0.0,0.0,0.0,0.0,0.0,0.0,0.0,0.9008,0.0,0.0,0.8804,0.8804,0.0,0.0,0.0,0.0,0.0,0.9266,0.9273,0.9183,0.0,0.0,0.0,0.0,0.98,0.0,0.0,0.0,0.0,0.0,0.0,0.0,0.0,1.3527,1.4937,1.6119,1.7729,1.9225,1.9452,2.0067,2.0842,2.159,2.1724,2.2448,2.5532,2.4763,2.3694,2.4857,2.3444,2.1332,1.9613,1.9209,1.8945,1.8271,1.9111,2.0012,0.0,2.1101,2.2058,2.3358,2.5034,2.5772,2.4893,2.6321,2.6119,2.3222,2.304,2.2409,2.1054,2.0982,2.1658,2.2952,2.1853,2.1109,2.1109,2.1109,2.1109,2.1109,2.0882,2.0702,2.0581,2.0408,2.0227,2.004,1.9873,1.9766,1.9693,1.9466,1.9366,1.9366,1.9366,1.9366,1.9366,1.9366,1.9366,1.9366,1.9366,1.9178,1.8965,0.0,0.0,0.0,0.0,0.0,0.0,0.0,1.2239,1.2432,1.2832,1.2881,1.2881,1.2881,1.2881,0.0,0.0,0.0,0.0,0.0,0.0,0.0,0.0,0.0,0.0,0.0,0.0,0.0,0.8804,0.8804,0.0,0.0,0.0,0.0,0.0,0.0,0.8964,0.9183,0.9183,0.0,0.0,0.0,0.0,0.0,0.0,0.0,0.0,0.0,0.0,0.0,0.0,0.0,1.2792,1.3995,1.6306,1.8577,1.8604,0.0,0.0,2.1096,2.1557,2.227,2.3917,2.2977,2.1942,2.3234,0.0,1.9622,1.9338,1.8975,1.8672,1.8594,1.9307,1.986,1.9687,0.0,2.098,2.1569,2.2604,2.3061,2.2374,2.308,2.2882,2.1204,2.12,2.1007,2.0354,2.0561,2.0953,2.1342,2.1229,2.1109,2.1109,2.1109,2.1109,2.1109,2.1082,2.0802,2.0274,2.0521,2.0221,1.9452,1.9693,1.9659,1.9406,1.9379,1.9366,1.9366,1.9366,1.9366,1.9366,1.9366,1.9366,1.9366,1.9366,1.9178,1.8965,0.0,0.0,0.0,0.0,0.0,0.0,0.0,1.218,1.2383,1.2822,1.2881,1.2881,1.2881,1.2881,0.0,0.0,0.0,0.0,0.0,0.0,0.0,0.0,0.0,0.0,0.0,0.0,0.9186,0.8815,0.8778,0.0,0.0,0.0,0.0,0.0,0.0,0.8871,0.8978,0.8978,0.0,0.0,0.0,0.0,0.0,0.0,0.0,0.0,0.0,0.0,1.0678,0.0,0.0,0.0,1.2184,1.3888,0.0,0.0,1.8477,1.9579,2.0575,2.1276,2.2032,2.3473,2.2253,2.0914,2.1812,0.0,1.7979,1.8303,1.7847,1.7599,1.8114,1.8094,1.8063,1.843,0.0,0.0,1.8918,2.0127,2.0883,2.0437,2.173,2.2115,2.1007,2.1042,2.1009,2.0775,2.0708,2.0802,2.1096,2.1109,2.1109,2.1109,2.1109,2.1109,2.1109,2.0762,2.0461,2.0227,2.0,1.9706,1.9372,1.9486,1.9472,1.9366,1.9366,1.9366,1.9366,1.9366,1.9366,1.9366,1.9366,1.9366,1.9366,1.9366,1.9292,1.9205,0.0,0.0,0.0,0.0,0.0,0.0,1.1684,1.1943,1.2187,1.2627,1.2803,1.2881,1.2881,1.2881,1.2881,1.2881,0.0,0.0,0.0,0.0,0.0,0.0,0.0,0.0,0.0,0.0,0.9614,0.8799,0.9207,0.9211,0.0,0.0,0.9106,0.9113,0.0,0.0,0.0,0.0,0.0,0.0,0.0,0.0,0.0,0.0,0.0,0.0,0.0,0.0,0.0,0.0,0.0,0.0,0.0,0.0,0.0,0.0,1.7054,1.8357,1.9573,2.0454,2.1227,2.2233,2.0931,1.9645,2.015,0.0,1.6493,1.7024,1.6615,1.6358,1.7079,1.6736,1.6455,0.0,0.0,1.6002,1.6747,1.7961,1.8814,1.8834,2.0083,2.0864,2.0624,2.0748,2.0889,2.0975,2.0795,2.0768,2.0969,2.0982,2.0982,2.0982,2.0982,2.0935,2.0848,2.0441,2.0187,2.01,1.9693,1.9452,1.9366,1.9366,1.9366,1.9366,1.9366,1.9366,1.9366,1.9366,1.9366,1.9366,1.9366,1.9366,1.9366,1.9366,1.9312,1.9252,0.0,0.0,0.0,0.0,0.0,0.0,0.0,1.1332,1.1773,1.2132,1.2617,1.2881,1.2881,1.2881,1.2881,1.2881,0.0,0.0,0.0,0.0,0.0,0.0,0.0,0.0,0.0,0.0,1.1545,0.8799,1.0105,1.0115,0.8804,0.9465,0.9762,0.9762,0.0,0.0,0.0,0.0,0.0,0.0,0.0,0.0,0.0,0.0,0.0,0.0,0.0,0.0,0.0,0.0,0.0,0.0,0.0,0.0,0.0,0.0,1.5337,1.7295,1.7909,1.8925,1.982,1.9813,1.8691,1.7667,0.0,0.0,1.526,1.57,1.5483,1.5234,1.5234,1.5524,1.5585,1.4742,1.545,0.0,1.5494,1.6152,1.6921,1.7528,1.7876,1.841,1.9299,1.9907,2.0368,2.0661,2.0675,2.0675,2.0681,2.0681,2.0681,2.0681,2.0681,2.0541,2.0241,2.0234,2.0087,1.9806,1.98,1.9646,1.9366,1.9366,1.9366,1.9366,1.9366,1.9366,1.9366,1.9366,1.9366,1.9366,1.9366,1.9366,1.9366,1.9366,1.9185,1.8971,0.0,0.0,0.0,0.0,0.0,0.0,0.0,1.1025,1.1387,1.2083,1.2353,1.2549,1.2852,1.2881,1.2881,1.2881,0.0,0.0,0.0,0.0,0.0,0.0,0.0,0.0,0.0,0.0,0.0,1.1604,1.104,1.0568,1.0167,0.9917,0.9814,0.9762,0.9113,0.891,0.0,0.0,0.0,0.0,0.0,0.0,1.0147,0.0,0.0,0.0,0.0,0.0,0.0,0.0,0.0,0.0,0.0,0.0,0.0,0.0,0.0,0.0,1.6266,1.7094,1.7635,1.7442,1.6587,1.5759,1.5631,1.4504,1.3733,1.4568,1.4402,1.4378,1.5092,1.4753,1.4521,1.4855,1.4607,1.459,1.5257,1.5805,1.6553,1.7756,1.9052,2.0034,2.0508,2.0541,2.0655,2.0949,2.0414,2.0341,2.0942,2.0595,2.0468,2.0668,2.0481,2.0327,2.0234,2.0034,1.9887,1.98,1.9599,1.9459,1.9366,1.9366,1.9366,1.9366,1.9366,1.9366,1.9366,1.9366,1.9366,1.9366,1.9366,1.9366,1.9366,1.9366,1.9305,1.9239,0.0,0.0,0.0,0.0,0.0,0.0,0.0,1.0811,1.1162,1.1885,1.2129,1.2393,1.2832,1.2881,1.2881,1.2881,0.0,0.0,0.0,0.0,0.0,0.0,0.0,0.0,0.0,0.0,1.2909,1.2908,1.2004,1.1334,1.0813,1.0922,1.0442,0.9431,0.9379,0.9533,0.0,0.0,0.0,0.0,0.0,0.0,1.0147,0.0,0.0,0.0,0.0,0.0,0.0,0.0,0.0,0.0,0.0,0.0,0.0,0.0,1.1904,1.32,0.0,1.5351,1.5838,1.5658,1.5117,0.0,1.4115,1.336,1.294,1.3418,1.3307,1.3382,1.4019,1.3593,1.3443,1.4281,1.4062,1.4142,1.5097,1.5671,1.642,1.7569,1.9072,2.0087,2.0267,2.0421,2.0541,2.0608,2.0207,2.0154,2.0595,2.0267,2.0154,2.0341,2.0274,2.0127,1.9907,1.9726,1.9639,1.9633,1.9452,1.9366,1.9366,1.9366,1.9366,1.9366,1.9366,1.9366,0.0,1.9366,1.9366,1.9366,1.9366,1.9366,1.9366,1.9366,1.9366,1.9366,0.0,0.0,0.0,0.0,0.0,0.0,0.0,0.0,0.0,0.0,1.1904,1.2353,1.2783,1.2861,1.2881,0.0,0.0,0.0,0.0,0.0,0.0,0.0,0.0,0.0,0.0,1.2881,1.2881,1.2889,1.2881,1.2206,1.0973,1.2277,1.1563,0.9118,0.9899,1.0697,0.0,0.0,0.0,0.0,0.0,0.0,0.0,0.0,0.0,0.0,0.0,0.0,0.0,0.0,0.0,0.0,0.0,0.0,0.0,0.0,0.0,0.0,0.0,1.3647,1.4302,1.4302,1.4095,1.3754,0.0,0.0,0.0,1.2325,1.2271,1.2285,1.2325,1.2338,1.2538,1.3173,1.3748,1.4322,1.491,1.5785,1.6573,1.7148,1.8263,1.8978,1.8958,1.9713,2.01,1.9853,2.004,2.0067,1.9846,1.9813,1.98,1.98,2.006,1.9933,1.9372,1.9366,1.9366,1.9366,1.9366,1.9366,1.9366,1.9366,1.9366,1.9366,1.9366,1.9366,1.9366,1.9366,1.9359,1.9332,1.9332,1.9332,1.9332,1.9332,1.9352,1.9366,0.0,0.0,0.0,0.0,0.0,0.0,0.0,0.0,0.0,0.0,0.0,1.1885,1.2334,1.2676,0.0,0.0,0.0,0.0,0.0,0.0,0.0,0.0,0.0,0.0,0.0,1.2881,1.2891,1.292,1.2891,1.2725,1.2412,1.2742,1.2575,1.1891,1.1057,0.0,0.0,0.0,0.0,0.0,0.0,0.0,0.0,0.0,0.0,0.0,1.0624,1.0624,0.0,0.0,0.0,0.0,0.0,0.0,0.0,0.0,1.0661,1.0799,1.1089,0.0,1.2151,1.2151,1.2104,1.2017,0.0,0.0,0.0,0.0,0.0,0.0,1.2634,1.2721,1.2913,1.3748,1.4182,1.4623,1.5211,1.644,1.7415,1.7789,1.8878,1.9506,1.9285,1.9653,1.9967,2.012,1.978,1.9733,2.0107,1.992,1.98,1.98,1.9867,1.9726,1.9372,1.9366,1.9366,1.9366,1.9366,1.9366,1.9366,1.9366,1.9366,1.9366,1.9366,1.9366,1.9366,1.9366,1.9232,1.9025,1.9025,1.9025,1.9025,1.9025,1.9172,1.9366,0.0,0.0,0.0,0.0,0.0,0.0,0.0,0.0,0.0,0.0,0.0,0.0,0.0,0.0,0.0,0.0,0.0,0.0,0.0,0.0,0.0,0.0,0.0,0.0,0.0,1.2881,1.2881,1.2881,1.2881,1.2881,1.2881,1.29,1.288,1.2871,1.2076,0.0,0.0,0.0,0.0,0.0,1.1053,0.0,0.0,0.0,0.0,0.0,1.1538,1.1476,0.0,1.1163,1.0926,1.0681,0.0,0.0,0.0,0.0,1.0863,1.0624,1.0624,1.0889,1.1229,1.1229,1.1329,1.1423,0.0,0.0,0.0,0.0,0.0,0.0,0.0,0.0,1.3118,1.3941,1.4335,1.4816,1.5678,1.6593,1.7395,1.7976,1.8724,1.9245,1.9359,1.9506,1.9666,1.9826,1.9546,1.9506,1.982,1.9686,1.9599,1.9599,1.9599,1.9526,1.9366,1.9366,1.9366,1.9366,1.9366,1.9366,1.9366,1.9366,1.9366,1.9366,1.9366,1.9366,1.9366,1.9366,1.9272,1.9125,1.9125,1.9125,1.9125,1.9125,1.9145,1.9185,0.0,0.0,0.0,0.0,0.0,0.0,0.0,0.0,0.0,0.0,0.0,0.0,0.0,0.0,0.0,0.0,0.0,0.0,0.0,0.0,0.0,0.0,0.0,0.0,1.2881,1.2881,1.2881,1.2881,1.2881,1.2881,1.2881,1.2881,1.2881,1.2881,1.2881,0.0,0.0,0.0,1.1864,1.1665,1.1801,0.0,0.0,0.0,0.0,0.0,0.0,0.0,0.0,1.195,1.1531,1.1115,1.1772,0.0,0.0,0.0,0.0,0.0,1.0624,1.0868,1.1149,1.0969,1.1176,1.1416,0.0,0.0,0.0,0.0,0.0,0.0,0.0,1.2719,0.0,1.4021,1.4469,1.513,1.6306,1.672,1.7188,1.7956,1.839,1.8784,1.9199,1.9319,1.9366,1.9366,1.9366,1.9366,1.9366,1.9366,1.9366,1.9366,1.9325,1.9299,1.9299,1.9345,1.9366,1.9366,1.9366,1.9366,1.9366,1.9366,1.9366,1.9366,1.9366,1.9366,1.9366,1.9319,1.9299,1.9292,1.9252,1.9259,1.9299,1.9299,1.9165,1.9025,0.0,0.0,0.0,0.0,0.0,0.0,0.0,0.0,0.0,0.0,0.0,0.0,0.0,0.0,0.0,0.0,0.0,0.0,0.0,0.0,0.0,0.0,0.0,1.2881,1.2881,1.2881,1.2881,1.2881,1.2881,1.2881,1.2881,1.2881,1.2881,1.2881,1.2881,1.29,1.2908,1.278,1.2591,1.2324,1.2028,0.0,0.0,0.0,0.0,0.0,0.0,0.0,0.0,1.2826,1.2704,1.2642,1.2765,0.0,0.0,0.0,0.0,0.0,1.0624,1.1316,1.1864,1.0875,1.1029,1.1363,0.0,0.0,0.0,0.0,0.0,0.0,0.0,1.3514,1.4008,1.4389,1.511,1.6039,1.7215,1.7629,1.7869,1.8029,1.8751,1.9072,1.8664,1.9078,1.9366,1.9366,1.9366,1.9366,1.9366,1.9366,1.9366,1.9366,1.9125,1.8991,1.8991,1.9239,1.9366,1.9366,1.9366,1.9366,1.9366,1.9366,1.9366,1.9366,1.9366,1.9366,1.9352,1.9098,1.8991,1.8965,1.8718,1.8771,1.8991,1.8991,1.9125,1.9305,0.0,0.0,0.0,0.0,0.0,0.0,0.0,0.0,0.0,0.0,0.0,0.0,0.0,0.0,0.0,0.0,0.0,0.0,0.0,0.0,0.0,0.0,1.2881,1.2881,1.2881,1.2881,1.2881,1.2881,1.2881,1.2881,1.2881,1.2881,1.2881,1.2881,1.2881,1.291,1.291,1.291,1.2836,1.2739,0.0,0.0,0.0,0.0,0.0,0.0,0.0,0.0,0.0,0.0,1.3373,1.307,1.3485,0.0,0.0,0.0,0.0,0.0,1.1351,1.1767,1.2032,1.1249,1.1717,1.2265,1.1804,0.0,0.0,0.0,0.0,0.0,0.0,0.0,1.4335,1.5104,1.5965,1.6734,1.7275,1.7595,1.7909,1.825,1.8644,1.8911,1.8958,1.9212,1.9366,1.9366,1.9366,1.9366,1.9366,1.9219,1.9199,1.9366,1.8925,1.8764,1.8925,1.8905,1.8971,1.9132,1.9292,1.9366,1.9366,1.9199,1.9125,1.9118,1.8965,1.8891,1.8885,1.8744,1.8784,1.8911,1.8778,1.8905,1.9145,1.8985,1.9112,1.9325,0.0,0.0,0.0,0.0,0.0,0.0,0.0,0.0,0.0,0.0,0.0,0.0,0.0,0.0,0.0,0.0,0.0,0.0,0.0,0.0,1.2912,1.292,1.2881,1.2881,1.2881,1.2881,1.2881,1.2881,1.2881,1.2881,1.2881,1.2881,1.2881,1.2881,1.2881,1.2881,1.2881,1.2881,1.2879,1.2938,0.0,0.0,0.0,0.0,0.0,0.0,0.0,0.0,0.0,0.0,0.0,0.0,0.0,0.0,0.0,1.4025,1.3606,1.2887,1.2266,1.2251,1.2248,1.1762,0.0,1.2746,1.2559,0.0,0.0,0.0,0.0,0.0,0.0,1.4102,1.473,1.5765,1.6673,1.7301,1.7442,1.7716,1.8096,1.8631,1.8698,1.8871,1.9325,1.9366,1.9366,1.9366,1.9305,1.9265,1.9265,1.8985,1.8925,1.9158,1.8657,1.849,1.8711,1.8497,1.8531,1.8824,1.9052,1.9199,1.9252,1.8958,1.8858,1.8911,1.8617,1.849,1.8484,1.8417,1.8557,1.8818,1.8744,1.8898,1.9132,1.8905,1.9011,1.9199,0.0,0.0,0.0,0.0,0.0,0.0,0.0,0.0,0.0,0.0,0.0,0.0,0.0,0.0,0.0,0.0,0.0,0.0,0.0,0.0,1.29,1.2881,1.2881,1.2881,1.2881,1.2881,1.2881,1.2881,1.2881,1.2881,1.2881,1.2881,1.2881,1.2881,1.2881,1.2881,1.2881,1.2881,1.2891,1.2949,1.3379,0.0,0.0,0.0,0.0,0.0,0.0,0.0,0.0,0.0,0.0,0.0,0.0,0.0,1.4154,1.4213,1.3606,1.3009,1.2948,1.299,1.2912,1.2313,0.0,0.0,1.2899,1.2919,0.0,1.3788,0.0,0.0,0.0,1.4736,1.5511,1.6139,1.6981,1.7749,1.8317,1.8644,1.8945,1.9265,1.9305,1.9319,1.9366,1.9366,1.9366,1.9366,1.9112,1.8958,1.8958,1.8677,1.8531,1.8551,1.8243,1.8076,1.8076,1.8076,1.823,1.8524,1.8544,1.8698,1.8945,1.8651,1.8664,1.8911,1.8617,1.849,1.847,1.819,1.8257,1.8497,1.8217,1.829,1.8551,1.8531,1.8704,1.8951,0.0,0.0,0.0,0.0,0.0,0.0,0.0,0.0,0.0,0.0,0.0,0.0,0.0,0.0,0.0,0.0,0.0,0.0,0.0,0.0,1.2339,1.2871,1.2881,1.2881,1.2881,1.2881,1.2881,1.2881,1.2881,1.2881,1.2881,1.2881,1.2881,1.2881,1.2881,1.2881,1.2881,1.2881,1.2881,1.292,1.334,1.3506,0.0,0.0,0.0,0.0,0.0,0.0,0.0,0.0,1.541,1.541,0.0,1.5167,1.4932,1.4932,1.4746,1.4392,1.3906,1.4136,1.4347,1.3483,0.0,0.0,0.0,1.354,1.4001,1.4522,1.501,0.0,1.5163,1.5577,1.6121,1.6669,1.74,1.7949,1.8183,1.8784,1.9105,1.8851,1.8985,1.9018,1.8844,1.8824,1.8824,1.8824,1.8718,1.8651,1.8651,1.8377,1.8297,1.8484,1.8009,1.7849,1.8036,1.7849,1.7809,1.7929,1.831,1.8551,1.8644,1.835,1.8277,1.8364,1.8056,1.7929,1.7916,1.7802,1.7936,1.8223,1.8297,1.839,1.849,1.849,1.8677,1.8898,0.0,0.0,0.0,0.0,0.0,0.0,0.0,0.0,0.0,0.0,0.0,0.0,0.0,0.0,0.0,0.0,0.0,0.0,0.0,0.0,1.2263,1.2861,1.2881,1.2881,1.2881,1.2881,1.2881,1.2881,1.2881,1.2881,1.2881,1.2881,1.2881,1.2881,1.2881,1.2881,1.2881,1.2881,1.2881,1.29,1.3193,1.3311,0.0,0.0,0.0,0.0,0.0,0.0,0.0,0.0,1.541,0.0,0.0,0.0,0.0,1.541,1.541,1.5294,1.4756,1.4854,1.4917,0.0,0.0,0.0,0.0,1.4076,1.4569,1.5133,1.5658,1.5987,1.5865,1.5677,1.5833,1.6468,1.7311,1.7936,1.8029,1.8651,1.8938,1.8537,1.8664,1.8704,1.851,1.849,1.849,1.849,1.8404,1.835,1.835,1.7976,1.7856,1.8056,1.7662,1.7502,1.7622,1.7502,1.7442,1.7448,1.7869,1.817,1.8337,1.8036,1.7956,1.8029,1.7716,1.7582,1.7582,1.7582,1.7709,1.7923,1.8123,1.8203,1.8203,1.8203,1.839,1.8617,0.0,0.0,0.0,0.0,0.0,0.0,0.0,0.0,0.0,0.0,0.0,0.0,0.0,0.0,0.0,0.0,0.0,0.0,0.0,1.2881,1.2881,1.2881,1.2881,1.2881,1.2881,1.2881,1.2881,1.2881,1.2881,1.2881,1.2881,1.2881,1.2881,1.2881,1.2881,1.2881,1.2881,1.2881,1.2881,1.2881,1.2881,1.2881,1.293,0.0,0.0,0.0,0.0,0.0,0.0,0.0,1.541,1.541,0.0,0.0,0.0,1.541,1.541,1.541,1.541,1.4815,1.4312,0.0,0.0,0.0,1.4919,1.4437,1.4409,1.5543,1.6245,1.655,1.5893,1.4865,1.444,1.5628,1.6777,1.7689,1.8003,1.8303,1.849,1.8477,1.8484,1.8484,1.8477,1.8477,1.8477,1.8477,1.8203,1.8036,1.8036,1.7468,1.725,1.725,1.725,1.7007,1.6707,1.7001,1.725,1.725,1.725,1.7462,1.8029,1.7722,1.7749,1.8023,1.7716,1.7582,1.7582,1.7582,1.7582,1.7582,1.7582,1.7582,1.7582,1.7582,1.7776,1.805,0.0,0.0,0.0,0.0,0.0,0.0,0.0,0.0,0.0,0.0,0.0,0.0,0.0,0.0,0.0,0.0,0.0,0.0,0.0,1.2881,1.2881,1.2881,1.2881,1.2881,1.2881,1.2881,1.2881,1.2881,1.2881,1.2881,1.2881,1.2881,1.2881,1.2881,0.0,1.2881,1.2881,1.2881,1.2881,1.291,1.3203,1.3145,1.293,0.0,0.0,0.0,0.0,0.0,0.0,0.0,0.0,0.0,0.0,0.0,0.0,1.5059,1.5176,1.5352,1.5049,1.5457,0.0,1.6119,0.0,0.0,0.0,1.6562,0.0,0.0,1.6856,1.68,1.7008,1.6116,1.5399,1.5765,1.6605,1.7264,1.7675,1.8163,1.8257,1.7622,1.7923,1.8009,1.7589,1.7736,1.7769,1.7562,1.7468,1.7321,1.7114,1.6934,1.684,1.684,1.684,1.6794,1.6707,1.6794,1.684,1.684,1.684,1.7148,1.7709,1.7415,1.7442,1.7702,1.7408,1.7395,1.7582,1.7582,1.7582,1.7582,1.7582,1.7582,1.7582,1.7582,1.7776,1.805,0.0,0.0,0.0,0.0,0.0,0.0,0.0,0.0,0.0,0.0,0.0,0.0,0.0,0.0,0.0,0.0,0.0,0.0,0.0,0.0,1.2881,1.2881,1.2881,1.2881,1.2881,1.2881,1.2881,1.2881,1.2881,1.2881,1.2881,1.2881,1.2881,1.2881,0.0,1.2881,1.2881,1.2881,1.2881,1.292,1.334,1.3262,1.293,0.0,0.0,0.0,0.0,0.0,0.0,0.0,0.0,0.0,0.0,0.0,0.0,1.5059,1.5098,1.5146,1.5059,1.5732,0.0,1.6522,1.6878,1.7649,1.9255,0.0,0.0,0.0,1.7277,1.7003,1.6891,1.6245,1.5799,1.5758,1.6567,1.7353,1.7544,1.7911,1.7939,1.7388,1.7405,1.7257,1.7123,1.7237,1.7161,1.6987,1.6974,1.6894,1.6714,1.66,1.6533,1.6533,1.6533,1.648,1.6359,1.6473,1.6533,1.6533,1.6533,1.678,1.7228,1.7054,1.7068,1.7221,1.7048,1.7074,1.7241,1.7361,1.7408,1.7408,1.7408,1.7408,1.7395,1.7275,1.7428,1.7689,0.0,0.0,0.0,0.0,0.0,0.0,0.0,0.0,0.0,0.0,0.0,0.0,0.0,0.0,0.0,0.0,0.0,0.0,0.0,0.0,1.2881,1.2881,1.2881,1.2881,1.2881,1.2881,1.2881,1.2881,1.2881,1.2881,0.0,0.0,1.2881,1.2881,0.0,1.2881,1.2881,1.2881,1.2881,1.292,1.334,1.3281,1.2978,1.3359,0.0,0.0,0.0,0.0,0.0,0.0,0.0,0.0,1.5352,0.0,1.4912,1.5254,1.5107,1.4922,1.5312,0.0,0.0,1.6349,1.7768,0.0,2.2518,1.9664,1.6807,1.7897,1.8077,1.7749,1.6647,1.6116,1.5766,1.5809,1.6703,1.7471,1.7455,1.7503,1.7496,1.7475,1.6914,1.658,1.6893,1.68,1.6693,1.6667,1.6667,1.6653,1.6627,1.638,1.6233,1.6233,1.6233,1.6106,1.5832,1.6099,1.6233,1.6233,1.6233,1.6366,1.6627,1.6653,1.6667,1.6667,1.6693,1.6707,1.6727,1.7001,1.7108,1.7108,1.7108,1.7108,1.7074,1.6807,1.6874,1.7108,0.0,0.0,0.0,0.0,0.0,0.0,0.0,0.0,0.0,0.0,0.0,0.0,0.0,0.0,0.0,0.0,0.0,0.0,0.0,0.0,1.2881,1.2881,1.2881,1.2881,1.2881,1.2881,1.2881,1.2881,1.2881,0.0,0.0,0.0,0.0,1.2881,0.0,1.2881,1.2881,1.2881,1.2881,1.292,1.334,1.3447,1.3379,1.3477,1.3447,0.0,0.0,0.0,0.0,0.0,0.0,0.0,1.4922,1.5088,1.5234,1.499,1.5088,1.5293,1.5391,1.5438,0.0,0.0,1.891,2.075,2.2658,2.2328,2.1633,2.1862,2.1886,2.179,2.1579,1.8349,1.5835,1.5816,1.6029,1.6199,1.6195,1.6593,1.6853,1.684,1.6785,1.65,1.6058,1.6341,1.6394,1.6386,1.6366,1.6266,1.6032,1.5959,1.5925,1.5925,1.5925,1.5892,1.5832,1.5892,1.5925,1.5925,1.5925,1.5959,1.6025,1.6259,1.6366,1.638,1.6607,1.6707,1.6707,1.6774,1.68,1.68,1.68,1.68,1.6794,1.6727,1.6747,1.68,0.0,0.0,0.0,0.0,0.0,0.0,0.0,0.0,0.0,0.0,0.0,0.0,0.0,0.0,0.0,0.0,0.0,0.0,0.0,0.0,0.0,0.0,1.2881,1.2881,1.2881,1.2881,1.2881,1.2881,0.0,0.0,0.0,0.0,0.0,1.2881,0.0,1.2881,1.2881,1.2881,1.2881,1.292,1.334,1.3389,1.3232,1.3437,1.3379,1.3184,1.2959,0.0,0.0,0.0,0.0,0.0,0.0,0.0,1.4531,1.4727,1.4648,1.4629,0.0,0.0,0.0,1.7571,0.0,2.2002,2.2899,2.3113,2.3067,2.312,2.3104,2.306,2.3112,1.9082,1.6569,1.8957,1.729,1.5757,1.5789,1.6115,1.6239,1.6299,1.6303,1.6122,1.5853,1.5978,1.6115,1.6072,1.6059,1.5992,1.5838,1.5832,1.5832,1.5832,1.5832,1.5832,1.5832,1.5832,1.5832,1.5832,1.5832,1.5832,1.5832,1.5985,1.6059,1.6072,1.6219,1.6286,1.6299,1.644,1.65,1.65,1.65,1.65,1.648,1.6339,1.6373,1.65,0.0,0.0,0.0,0.0,0.0,0.0,0.0,0.0,0.0,0.0,0.0,0.0,0.0,0.0,0.0,0.0,0.0,0.0,0.0,0.0,0.0,0.0,1.2881,1.2881,1.2881,1.2881,1.2881,1.2881,0.0,0.0,0.0,0.0,0.0,1.2881,0.0,1.2881,1.2881,1.2881,1.2881,1.291,1.3262,1.3232,1.3018,1.3301,1.3232,1.2978,1.291,1.3105,1.3398,1.3398,0.0,0.0,0.0,0.0,1.376,1.4537,1.4243,1.3929,0.0,0.0,1.6265,1.7989,2.0546,0.0,2.2631,2.2661,2.2661,2.2661,2.2938,2.3125,2.3094,1.9766,1.8361,2.2409,1.9686,1.6772,1.5958,1.5812,1.5832,1.5832,1.5832,1.5832,1.5832,1.5832,1.5832,1.5832,1.5785,1.5758,1.5758,1.5712,1.5705,1.5758,1.5758,1.5778,1.5832,1.5832,1.5805,1.5752,1.5752,1.5732,1.5678,1.5732,1.5785,1.5832,1.5832,1.5832,1.5845,1.6092,1.6192,1.6192,1.6192,1.6192,1.6166,1.5919,1.5985,1.6192,0.0,0.0,0.0,0.0,0.0,0.0,0.0,0.0,0.0,0.0,0.0,0.0,0.0,0.0,0.0,0.0,0.0,0.0,1.3239,0.0,0.0,1.2881,1.2881,1.2881,1.2881,1.2881,1.2881,0.0,0.0,0.0,0.0,0.0,0.0,1.2881,0.0,0.0,1.2881,1.2881,1.2881,1.2881,1.2939,1.3154,1.3389,1.3076,1.3154,1.3379,1.3018,1.291,1.2969,1.2969,1.3242,0.0,0.0,0.0,1.4082,1.4493,1.4516,1.4399,0.0,0.0,1.8085,0.0,2.0576,2.0937,0.0,2.091,2.091,2.091,2.2049,2.3137,2.3114,2.2572,2.2362,2.2966,2.251,2.0649,1.6371,1.5812,1.5832,1.5832,1.5832,1.5832,1.5832,1.5832,1.5832,1.5832,1.5805,1.5776,1.5776,1.5427,1.5406,1.5763,1.5564,1.5571,1.5825,1.5832,1.5705,1.5451,1.5451,1.5324,1.5084,1.5337,1.5591,1.5832,1.5832,1.5832,1.5832,1.5872,1.5885,1.5885,1.5885,1.5885,1.5885,1.5845,1.5852,1.5885,0.0,0.0,0.0,0.0,0.0,0.0,0.0,0.0,0.0,0.0,0.0,0.0,0.0,0.0,0.0,1.04,1.1291,1.2218,1.2849,1.2908,1.2881,1.2881,1.2881,1.2881,1.2881,1.2881,1.2881,0.0,0.0,0.0,0.0,1.2881,1.2881,0.0,0.0,0.0,0.0,1.2881,1.2881,1.2881,1.2881,1.2988,1.3135,1.2949,1.2998,1.3135,1.2949,1.2881,1.2881,1.2881,1.3008,1.3154,1.3154,0.0,0.0,0.0,1.3623,0.0,1.3465,1.4274,1.5773,0.0,1.9909,2.0636,2.0629,1.9822,1.9409,2.042,2.1184,2.198,2.2898,2.3088,2.3103,2.3063,2.3057,2.1371,1.6506,1.5777,1.5821,1.5778,1.5798,1.5765,1.5818,1.5792,1.5798,1.5798,1.5831,1.5561,1.4851,1.472,1.4817,1.5352,1.5255,1.5217,1.5344,1.5344,1.5284,1.5157,1.5157,1.5084,1.497,1.5097,1.5311,1.5585,1.5585,1.5678,1.5832,1.5832,1.5832,1.5832,1.5832,1.5832,1.5832,1.5832,1.5832,1.5832,0.0,0.0,0.0,0.0,0.0,0.0,0.0,0.0,0.0,0.0,0.0,0.0,0.0,0.0,0.0,0.0,1.1655,1.26,1.2887,1.288,1.291,1.2909,1.29,1.2881,1.2881,1.2881,0.0,0.0,0.0,0.0,1.2881,1.2881,1.2881,0.0,1.2881,0.0,0.0,0.0,0.0,0.0,1.2881,1.2881,1.2881,1.2881,1.2881,1.2881,1.2881,1.2881,1.2881,1.2881,1.2881,1.2881,1.2881,1.2881,0.0,0.0,0.0,0.0,0.0,0.0,1.3482,1.6038,1.8346,1.9846,1.9364,1.8605,1.8337,1.9673,1.9949,2.0355,2.1571,2.2159,2.2429,2.2426,2.2457,2.0793,1.607,1.5346,1.5376,1.5386,1.5664,1.5793,1.5798,1.5828,1.5698,1.5389,1.5327,1.4959,1.4148,1.4084,1.4274,1.4747,1.485,1.4883,1.4963,1.489,1.4856,1.4945,1.4856,1.4816,1.4743,1.4816,1.497,1.5184,1.5331,1.5518,1.5725,1.5798,1.5832,1.5832,1.5832,1.5832,1.5832,1.5832,1.5832,1.5832,0.0,0.0,0.0,0.0,0.0,0.0,0.0,0.0,0.0,0.0,0.0,0.0,0.0,1.0411,1.0411,1.0306,1.0377,1.1132,1.2792,1.2924,1.289,1.2892,1.2918,0.0,1.2881,1.2881,0.0,0.0,0.0,0.0,1.2881,1.2881,1.2881,1.2881,1.2881,1.2881,1.2881,0.0,0.0,0.0,0.0,1.2881,1.2881,1.2881,1.2881,1.2881,1.2881,1.2881,1.2881,1.2881,1.2881,1.2881,1.2881,1.2881,1.2881,0.0,0.0,0.0,0.0,1.2889,0.0,1.3126,1.5684,1.7719,1.6067,1.69,1.8017,1.8126,1.8156,1.8182,1.8248,1.962,2.0757,2.0733,2.0727,1.921,1.4775,1.4149,1.419,1.4203,1.5171,1.5805,1.5819,1.5812,1.5383,1.427,1.4209,1.4154,1.406,1.4091,1.4071,1.4141,1.4355,1.4676,1.4963,1.4683,1.4549,1.4737,1.4549,1.4396,1.4142,1.4416,1.4549,1.4596,1.5157,1.5404,1.5438,1.5718,1.5832,1.5832,1.5832,1.5832,1.5832,1.5832,1.5832,1.5832,0.0,0.0,0.0,0.0,0.0,0.0,0.0,0.0,0.0,0.0,0.0,0.0,0.0,1.0288,1.0797,1.2053,1.3448,1.3906,1.2939,1.4334,1.4537,1.2987,1.2918,1.2881,1.2881,1.2881,0.0,0.0,0.0,1.2881,1.2881,1.2881,1.2881,1.2881,1.2881,1.2881,1.2881,1.2881,0.0,0.0,0.0,1.2881,1.2881,1.2881,1.2881,1.2881,1.2881,1.2881,1.2881,1.2881,1.2881,1.2881,1.2881,1.2881,1.2881,1.2881,1.2881,0.0,0.0,0.0,0.0,1.2878,1.3811,1.4535,1.3967,1.5139,1.6465,1.7037,1.7635,1.7968,1.7963,1.9399,2.0625,2.0566,2.0574,2.0024,1.8519,1.826,1.7243,1.4399,1.4482,1.5814,1.86,1.636,1.4528,1.4109,1.4137,1.4143,1.4143,1.4142,1.4128,1.4137,1.415,1.4295,1.4402,1.4108,1.4058,1.4337,1.4058,1.3998,1.4096,1.42,1.4242,1.4262,1.4764,1.504,1.5137,1.5332,1.5445,1.5465,1.5657,1.5832,1.5832,1.5832,1.5832,1.5832,0.0,0.0,0.0,0.0,0.0,0.0,0.0,0.0,0.0,0.0,0.0,0.0,0.0,0.0,1.2091,1.4117,1.49,1.4598,1.3016,1.5157,1.5395,1.3,1.2888,1.2881,1.2881,1.2881,0.0,0.0,0.0,0.0,0.0,1.2881,1.2881,1.2881,1.2881,1.2881,0.0,0.0,0.0,1.2881,1.2881,1.2881,1.2881,1.2881,1.2881,1.2881,1.2881,1.2881,1.29,1.2909,1.292,1.29,1.2909,1.292,1.2881,1.2881,1.2881,0.0,1.2881,0.0,0.0,0.0,1.2898,1.2881,1.2893,1.4061,1.5342,1.6098,1.6917,1.7491,1.7681,1.8813,1.9737,1.9703,2.0187,2.0615,2.0594,2.0596,1.9552,1.6637,1.5777,1.6208,1.8204,1.6461,1.4923,1.4175,1.4122,1.4088,1.4088,1.4088,1.4041,1.3941,1.3848,1.3794,1.3794,1.3594,1.3595,1.3784,1.3601,1.3777,1.4068,1.3981,1.3944,1.4135,1.424,1.4549,1.4932,1.5033,1.5251,1.5389,1.5678,1.5792,1.5806,1.5798,1.5832,1.5818,0.0,0.0,0.0,0.0,0.0,0.0,0.0,0.0,0.0,0.0,0.0,0.0,0.0,0.0,0.0,1.6222,1.4336,1.3007,1.3022,1.5188,1.5405,1.3001,1.2905,1.292,1.292,1.2881,1.2881,0.0,0.0,0.0,0.0,0.0,1.2881,1.2881,1.2881,1.2881,1.2881,0.0,1.2881,1.2881,1.2881,1.2881,1.2881,1.2881,1.2881,1.2881,1.2891,1.2891,1.29,1.2909,1.2915,1.2959,1.29,1.2886,1.2881,1.2881,0.0,0.0,0.0,0.0,0.0,1.2881,1.2881,1.291,1.2919,1.3756,1.4725,1.5262,1.5861,1.6404,1.6941,1.7556,1.7937,1.8037,1.9423,2.0544,2.0554,2.0538,2.0531,2.0531,1.8892,1.6876,1.4417,1.5997,1.6335,1.4314,1.4082,1.4082,1.4075,1.4068,1.3928,1.3641,1.336,1.3213,1.3213,1.32,1.32,1.3193,1.3371,1.3643,1.4001,1.3643,1.3714,1.4083,1.3716,1.3955,1.469,1.4912,1.5252,1.5791,1.5789,1.58,1.5835,1.5812,1.5812,1.5792,0.0,0.0,0.0,0.0,0.0,0.0,0.0,0.0,0.0,0.0,0.0,0.0,0.0,0.0,1.5114,1.3978,1.4864,1.5499,1.5525,1.6152,1.5429,1.301,1.2882,1.2895,1.2895,1.2909,1.2881,1.2881,0.0,0.0,0.0,0.0,0.0,0.0,1.2881,1.2881,1.2881,1.2881,1.2881,1.2881,1.2881,1.2881,1.2881,1.2881,1.2881,1.291,1.2895,1.2881,1.2928,1.2878,1.3691,1.4478,1.3303,1.29,0.0,1.2881,1.2881,0.0,1.2881,0.0,0.0,0.0,0.0,0.0,1.29,1.3379,1.3831,1.3994,1.4684,1.533,1.5768,1.6497,1.7284,1.792,1.8378,1.8734,1.8749,1.8689,1.8727,1.8727,1.5831,1.4509,1.6059,1.5431,1.4976,1.4961,1.4448,1.3995,1.3774,1.3567,1.3414,1.3333,1.3253,1.3213,1.3213,1.2986,1.2993,1.3231,1.3141,1.2989,1.2791,1.3099,1.3326,1.35,1.3794,1.405,1.428,1.4341,1.4441,1.4581,1.4611,1.506,1.5798,1.5752,1.58,1.58,0.0,0.0,0.0,0.0,0.0,0.0,0.0,0.0,0.0,0.0,0.0,0.0,0.0,0.0,0.0,1.4534,1.5708,1.6522,1.6523,1.65,1.587,1.4484,1.4404,1.3924,1.2919,1.2887,1.289,1.2881,0.0,0.0,0.0,0.0,0.0,0.0,0.0,0.0,0.0,0.0,1.2899,1.2881,1.2881,1.2881,1.2881,1.2881,1.2881,1.291,1.2897,1.3372,1.3942,1.3945,1.4119,1.4192,1.3212,1.289,1.2881,1.2881,1.2881,0.0,0.0,0.0,0.0,1.2881,0.0,0.0,1.2881,1.3066,1.3301,1.3477,1.3969,1.4518,1.4994,1.5672,1.6295,1.6816,1.6943,1.7159,1.7935,1.8021,1.7999,1.7991,1.5999,1.5227,1.6703,1.5899,1.5209,1.5001,1.4567,1.4035,1.3467,1.318,1.3019,1.3019,1.3278,1.3439,1.3439,1.3426,1.3167,1.282,1.2732,1.3353,1.4704,1.508,1.5181,1.5142,1.3903,1.4675,1.6741,1.6044,1.5075,1.4072,1.4136,1.6024,1.8875,1.8824,1.8839,1.8847,0.0,0.0,0.0,0.0,0.0,0.0,0.0,0.0,0.0,0.0,0.0,0.0,0.0,0.0,0.0,0.0,1.6511,1.6492,1.6479,1.6511,0.0,1.6522,1.652,1.5522,1.3346,1.305,1.2885,1.289,0.0,0.0,0.0,0.0,0.0,0.0,0.0,0.0,0.0,1.3024,1.2924,1.29,1.292,1.2881,1.2881,1.2881,1.2881,1.2881,1.292,1.3875,1.5126,1.5321,1.4389,1.3155,1.2974,1.2893,1.292,1.29,1.291,0.0,0.0,0.0,0.0,1.2891,1.2988,0.0,1.291,1.3008,1.3155,1.3389,1.3518,1.3767,1.4288,1.479,1.5143,1.5128,1.5282,1.594,1.7506,1.7875,1.7949,1.7842,1.7852,1.7499,1.6617,1.6643,1.6108,1.4743,1.4572,1.4144,1.3239,1.2866,1.2775,1.292,1.3388,1.3738,1.3723,1.4055,1.354,1.2283,1.2283,1.4332,1.8024,1.8024,1.7971,1.7779,1.4402,1.5725,2.0161,1.8615,1.6715,1.4791,1.4846,1.8071,2.2794,2.2834,2.2928,2.3065,1.11,0.0,0.0,0.0,0.0,0.0,0.0,0.0,0.0,0.0,0.0,0.0,0.0,0.0,0.0,0.0,1.6504,1.6516,1.6479,1.6504,0.0,1.6485,1.651,1.628,1.5835,1.3909,1.2882,1.2875,0.0,0.0,0.0,0.0,0.0,0.0,0.0,0.0,0.0,1.3731,1.2882,1.2895,1.2909,1.2881,1.2881,1.2881,1.2881,1.292,1.2924,1.3118,1.3598,1.4964,1.5182,1.467,1.3342,1.288,1.2883,1.2889,1.2918,1.2912,1.29,1.3194,1.3441,1.3027,1.3652,0.0,1.3115,1.3609,1.4007,1.3194,1.3057,1.3086,1.3234,1.3326,1.3404,1.3394,1.4527,1.5528,1.5892,1.7093,1.772,1.7021,1.6939,1.6568,1.5689,1.5138,1.4841,1.4921,1.4551,1.3889,1.2909,1.2552,1.2755,1.3477,1.363,1.3845,1.4103,1.4159,1.355,1.2263,1.2263,1.4311,1.7978,1.7978,1.8017,1.7946,1.7193,1.7469,1.8486,1.8117,1.8552,1.9307,1.9291,2.0035,2.1075,2.1118,2.1921,2.31,1.0484,0.0,0.0,0.0,0.0,0.0,0.0,0.0,0.0,0.0,0.0,0.0,0.0,0.0,0.0,0.0,0.0,0.0,0.0,0.0,1.6522,1.6522,1.648,1.6492,1.6502,1.532,1.4687,1.4704,0.0,0.0,0.0,0.0,0.0,0.0,0.0,0.0,0.0,1.5222,1.4025,1.2882,1.2899,1.2881,1.2881,1.2881,1.2881,1.29,1.2918,1.3061,1.3442,1.443,1.4653,1.4506,1.4223,1.358,1.3058,1.3922,1.355,1.2995,1.3381,1.361,1.3657,1.3516,1.389,0.0,0.0,1.355,1.3588,1.3034,1.29,1.2881,1.2888,1.2916,1.2928,1.2929,1.4317,1.5087,1.4294,1.5603,1.6567,1.6084,1.5647,1.5501,1.5663,1.5405,1.5024,1.4594,1.3479,1.2583,1.2157,1.2084,1.2442,1.3204,1.3761,1.4369,1.5068,1.5738,1.5795,1.5112,1.5121,1.6143,1.8011,1.7996,1.7988,1.7994,1.7996,1.8035,1.7988,1.8005,1.8514,1.9389,2.0294,2.0603,2.0627,2.0611,2.1661,2.3102,1.0378,0.0,0.0,0.0,0.0,0.0,0.0,0.0,0.0,0.0,0.0,0.0,0.0,0.0,0.0,0.0,0.0,0.0,1.6522,1.6522,1.6522,1.6522,1.6522,1.651,1.6497,1.6497,1.652,1.6514,0.0,0.0,0.0,0.0,0.0,0.0,0.0,0.0,0.0,0.0,1.5392,1.3564,1.3072,1.289,1.2881,1.2881,1.2881,1.2881,1.2881,1.3283,1.3828,1.4041,1.4064,1.4212,1.5087,1.4463,1.364,1.4993,1.4328,1.3242,1.3909,1.3979,1.388,1.3984,1.4018,1.3932,0.0,0.0,0.0,1.302,1.3175,1.3303,1.2982,1.2908,1.2928,1.2924,1.4294,1.4799,1.315,1.4315,1.5351,1.5187,1.4417,1.4366,1.5702,1.588,1.527,1.388,1.2528,1.1675,1.1343,1.1763,1.2367,1.2923,1.4101,1.5111,1.5978,1.7337,1.8036,1.7976,1.7686,1.7671,1.7976,1.7632,1.7674,1.7996,1.7996,1.7552,1.6955,1.7675,1.7963,1.8161,1.9895,2.0576,2.0595,2.0622,2.1481,2.2655,1.0646,1.0291,0.0,0.0,0.0,0.0,0.0,0.0,0.0,0.0,0.0,0.0,0.0,1.649,1.6492,0.0,1.6522,1.6522,1.6522,1.6522,0.0,1.6522,1.6522,1.6479,1.6504,1.6504,1.6517,1.6507,0.0,0.0,0.0,0.0,0.0,0.0,1.6379,0.0,0.0,1.6516,1.6345,1.5891,1.3736,1.2916,1.2881,1.2881,1.2881,1.2881,1.2881,1.3412,1.4063,1.4113,1.4582,1.5247,1.5372,1.5266,1.5148,1.5354,1.4728,1.3965,1.4069,1.4281,1.4389,1.3893,1.4478,1.4805,1.3351,0.0,1.6577,1.3501,0.0,1.465,1.3194,0.0,0.0,1.2902,1.4307,1.482,1.3152,1.4316,1.5108,1.4361,1.3525,1.355,1.4836,1.4932,1.4307,1.2713,1.2937,1.2577,1.1108,1.2059,1.3013,1.3892,1.478,1.5569,1.6265,1.7386,1.7981,1.7953,1.6458,1.6514,1.7955,1.6411,1.6523,1.8017,1.8015,1.6095,1.3228,1.658,1.7998,1.8142,1.9938,2.0619,2.0566,2.0585,2.0692,2.0889,1.2146,1.1997,0.0,0.0,0.0,0.0,0.0,0.0,0.0,0.0,0.0,0.0,1.4439,1.5636,1.6523,1.6479,1.6522,1.6522,1.6522,1.6522,0.0,1.6522,1.6522,1.6522,1.6522,1.6522,1.6516,0.0,1.6516,0.0,0.0,0.0,0.0,0.0,1.6523,1.6486,1.6511,1.6486,1.6507,1.6426,1.5394,1.4129,1.2881,1.2881,1.2881,1.2969,1.3422,1.35,1.3413,1.338,1.3632,1.3972,1.3932,1.3959,1.4134,1.5088,1.4439,1.3608,1.4567,1.4586,1.4388,1.4621,1.5049,1.5233,1.4501,1.4713,1.4641,1.3195,0.0,0.0,0.0,0.0,0.0,0.0,1.3501,1.4053,1.4302,1.4135,1.3811,1.3456,1.3513,1.3698,1.4014,1.3815,1.3395,1.2724,1.2755,1.2501,1.1835,1.2646,1.3421,1.4152,1.4675,1.5366,1.6185,1.636,1.6842,1.7441,1.6053,1.5811,1.6477,1.576,1.5782,1.652,1.651,1.5551,1.4311,1.6901,1.7984,1.8056,1.8834,1.9102,1.924,2.0223,2.0575,2.0593,1.3192,0.0,0.0,0.0,0.0,0.0,0.0,0.0,0.0,1.6508,1.6487,1.5824,1.4104,1.5457,1.6498,1.6491,1.651,1.6492,1.6479,1.6522,1.6522,1.6522,1.6522,1.6522,1.6522,1.6522,1.6522,0.0,0.0,0.0,0.0,0.0,0.0,0.0,0.0,1.651,1.6448,1.577,1.5881,1.6438,1.5799,1.4459,1.2899,1.291,1.2881,1.2978,1.3561,1.354,1.3249,1.3223,1.3058,1.2906,1.2885,1.322,1.3815,1.5039,1.4525,1.3867,1.5054,1.4926,1.4619,1.5259,1.5049,1.4689,1.4728,1.3751,1.2909,1.2909,1.3441,0.0,0.0,0.0,1.2908,1.2903,0.0,1.3299,1.4521,1.365,1.2899,1.2886,1.3511,1.379,1.338,1.3077,1.2813,1.2592,1.247,1.2289,1.2118,1.2972,1.3613,1.4001,1.462,1.5205,1.5879,1.5677,1.5916,1.6618,1.6023,1.5661,1.543,1.5374,1.5388,1.5422,1.5392,1.5378,1.5523,1.6749,1.7576,1.8009,1.8024,1.7976,1.8201,1.9948,2.0635,2.0576,1.3216,1.3189,0.0,0.0,0.0,0.0,0.0,1.6446,1.6497,1.6516,1.6479,1.646,1.6367,1.6471,1.6502,1.6516,1.6502,1.6507,1.6491,1.6522,1.6522,1.6522,1.6522,1.6522,1.6522,1.6522,1.6522,1.6522,0.0,0.0,0.0,0.0,0.0,0.0,1.6522,1.6479,1.6343,1.3998,1.4339,1.6312,1.3972,1.2954,1.2892,1.2909,1.2881,1.2881,1.2949,1.3419,1.4032,1.4042,1.3557,1.29,1.292,1.4033,1.5353,1.5389,1.5351,1.5359,1.5416,1.5371,1.537,1.5405,1.4176,1.2991,1.2997,1.2953,1.29,1.29,1.4779,1.5679,1.3342,1.2886,1.289,0.0,1.2898,0.0,0.0,1.2915,1.2894,1.2876,1.3261,1.334,1.2939,1.291,1.2597,1.1909,1.2144,1.2,1.1346,1.2776,1.3606,1.3597,1.4743,1.5371,1.543,1.585,1.585,1.5439,1.6277,1.6238,1.541,1.5371,1.5381,1.5391,1.5413,1.5368,1.5414,1.5441,1.6486,1.7969,1.7999,1.7997,1.8192,1.994,2.0621,2.0566,0.0,0.0,0.0,0.0,1.4826,1.4869,1.6303,1.6479,1.6485,1.6505,1.651,1.6513,1.648,1.6502,1.7099,1.8564,1.7335,1.6516,1.6507,1.6517,1.6522,1.6522,1.6522,1.6522,1.6522,1.6522,1.6522,1.6522,1.6522,0.0,0.0,0.0,0.0,0.0,0.0,1.651,1.6467,1.5622,1.5736,1.6435,1.561,1.4327,1.2898,1.2897,1.2881,1.2969,1.3322,1.3371,1.3371,1.3912,1.3571,1.2903,1.2903,1.3285,1.3985,1.5067,1.4615,1.3959,1.5076,1.5417,1.539,1.5415,1.4974,1.4251,1.3138,1.2902,1.3221,1.4312,1.4324,1.3882,1.3037,1.2899,1.3244,0.0,0.0,1.2876,0.0,1.3575,1.3793,1.3008,1.3007,1.3037,1.2891,1.2881,1.2774,1.2559,1.29,1.2974,1.2757,1.349,1.4088,1.4373,1.4809,1.5127,1.541,1.5557,1.5557,1.541,1.5713,1.5704,1.541,1.541,1.541,1.542,1.541,1.6039,1.7131,1.7099,1.6821,1.6365,1.7541,1.7967,1.8062,1.8632,1.7752,1.671,1.6224,1.6499,1.6512,1.6499,1.651,1.6484,1.6511,1.649,1.6487,1.6492,1.7894,1.8828,1.8846,1.8141,1.8253,1.9677,1.8478,1.7341,1.6544,1.6495,1.6502,1.6479,1.6523,1.6504,1.6479,1.6522,1.6522,1.6522,1.6522,1.6514,0.0,0.0,0.0,0.0,0.0,1.6494,1.6523,1.6514,1.651,1.6492,1.652,1.5572,1.4161,1.4197,1.3652,1.2974,1.3283,1.3204,1.2966,1.3511,1.3319,1.2884,1.2922,1.2893,1.3096,1.4178,1.4169,1.4023,1.511,1.5385,1.5397,1.5412,1.5431,1.4986,1.3285,1.2917,1.3384,1.5059,1.4778,1.3912,1.3084,1.2899,1.3232,0.0,0.0,1.3182,0.0,1.4835,1.4967,1.3893,1.3416,1.3152,1.2929,1.2881,1.2881,1.2881,1.3135,1.3281,1.3281,1.3682,1.4111,1.4541,1.4687,1.4914,1.541,1.541,1.541,1.541,1.541,1.541,1.541,1.541,1.541,1.542,1.5427,1.6207,1.7507,1.7186,1.6799,1.6468,1.7543,1.7995,1.8071,1.8724,1.7841,1.6591,1.6649,1.6591,1.6488,1.6502,1.6509,1.6522,1.6522,1.6502,1.6587,1.68,2.0469,2.3053,2.2948,2.1043,1.9793,1.9782,1.9788,1.8906,1.68,1.667,1.6656,1.6675,1.6556,1.6507,1.6504,1.6479,1.6522,1.6522,1.6522,0.0,0.0,0.0,0.0,0.0,1.6559,1.654,1.6633,1.6552,1.6494,1.6491,1.6504,1.649,1.6515,1.6511,1.5074,1.3057,1.3,1.2956,1.2882,1.2899,1.2918,1.2919,1.2998,1.2976,1.2917,1.2888,1.4043,1.5297,1.5297,1.5338,1.5385,1.5389,1.5422,1.4949,1.3383,1.2967,1.3349,1.4945,1.5875,1.5775,1.3503,1.3154,1.319,0.0,0.0,1.3884,1.617,1.6517,1.6238,1.5464,1.4521,1.3647,1.3017,1.2929,1.2881,1.2881,1.2881,1.2881,1.2881,1.3281,1.3701,1.4068,1.4421,1.4838,1.54,1.541,1.541,1.541,1.541,1.541,1.541,1.541,1.542,1.541,1.5439,1.5895,1.6621,1.5845,1.6485,1.7988,1.8008,1.8069,1.8356,1.9969,2.0611,1.9982,1.8557,1.7584,1.6491,1.6517,1.6524,1.6522,1.6522,1.6502,1.769,2.0983,2.2392,2.2481,2.0853,2.0133,1.9818,1.9813,1.9786,1.9568,1.9005,1.8945,1.8956,1.896,1.7364,1.6483,1.6487,1.6517,1.6522,1.6522,1.6522,1.6511,1.652,0.0,0.0,0.0,0.0,1.7384,1.8768,1.7162,1.6494,1.6479,1.6485,1.651,1.651,1.6486,1.6132,1.5457,1.4552,1.3666,1.2878,1.2882,1.2907,1.3132,1.4376,1.3912,1.2894,1.2878,1.3181,1.3516,1.3516,1.4434,1.5427,1.5411,1.5419,1.529,1.4838,1.3774,1.3023,1.3437,1.4663,1.5667,1.5609,1.6917,1.7471,1.5858,1.5591,1.581,1.6422,1.6512,1.6426,1.623,1.5946,1.5211,1.3705,1.3152,1.2881,1.2881,1.2881,1.2881,1.2881,1.3281,1.3701,1.4068,1.4496,1.498,1.541,1.541,1.541,1.541,1.541,1.541,1.541,1.541,1.542,1.5422,1.5882,1.6334,1.6704,1.7132,1.7612,1.8019,1.7988,1.8804,1.9972,2.0404,2.0625,2.0474,1.9441,1.8707,1.7909,1.7902,1.8825,1.8906,1.6839,1.65,1.8104,2.2525,2.311,2.2643,2.1396,2.0387,1.9789,1.9784,1.98,1.98,1.98,1.9784,1.9798,1.9811,1.8626,1.7501,1.6502,1.648,1.6522,1.6522,1.6522,1.649,1.6556,0.0,0.0,0.0,0.0,1.8556,1.9565,1.7394,1.6501,1.6486,1.6514,1.6522,0.0,1.6522,1.6522,1.6423,1.5744,1.506,1.4473,1.449,1.3784,1.305,1.4,1.3634,1.3035,1.376,1.3491,1.2884,1.2902,1.3565,1.4787,1.6824,1.658,1.5787,1.5489,1.4676,1.4003,1.3994,1.4753,1.592,1.7639,1.8179,1.7958,1.67,1.6487,1.6483,1.6479,1.6511,1.6497,1.6504,1.6916,1.6663,1.5108,1.4061,1.3511,1.3647,1.3511,1.3511,1.3705,1.3748,1.4132,1.4987,1.5508,1.5967,1.6358,1.6927,1.6927,1.6358,1.6026,1.5864,1.5864,1.5526,1.539,1.5475,1.6586,1.6914,1.6787,1.7658,1.8012,1.7974,1.8027,1.8601,1.9541,2.0327,2.0564,2.0605,1.972,1.9976,2.0185,2.0203,2.2076,2.23,1.8516,1.7626,1.8534,2.1796,2.2243,2.2322,2.2623,2.0953,1.9811,1.9788,1.9825,1.9825,1.9788,1.9775,1.9786,1.9824,1.9533,1.8454,1.6523,1.6491,1.6522,1.6522,1.6522,1.6523,0.0,0.0,0.0,0.0,0.0,0.0,1.9588,1.7707,1.6749,1.6478,1.6498,1.6484,1.6522,1.6522,1.6522,1.6522,1.6522,1.6492,1.6502,1.6499,1.5129,1.3396,1.3361,1.3377,1.3638,1.5121,1.4279,1.2878,1.2874,1.2889,1.3941,1.8142,1.8075,1.6759,1.6148,1.5675,1.5389,1.5401,1.5382,1.6306,1.9251,1.8006,1.6495,1.6523,1.648,1.6498,1.6498,1.6504,1.6479,1.6491,1.7388,0.0,1.6616,1.5119,1.4369,1.4698,1.4312,1.429,1.4698,1.4367,1.4807,1.6154,1.6933,1.7489,1.7978,1.8838,1.877,1.7834,1.7022,1.6595,1.6492,1.5924,1.5547,1.5478,1.7193,1.7503,1.6811,1.7676,1.8008,1.7969,1.7973,1.7986,1.8162,1.969,2.0292,2.0284,1.9701,2.1439,2.2925,2.2909,2.3288,2.4068,2.5446,2.3544,2.0904,1.8025,1.7684,1.8366,2.0206,2.0032,1.9783,1.9794,1.978,1.9819,1.9791,1.9826,1.9821,1.9798,1.8063,1.6897,1.6492,1.6486,1.6522,1.6522,1.6522,1.6486,0.0,0.0,0.0,0.0,0.0,0.0,1.968,1.9312,1.8112,1.6507,1.6504,1.649,1.6522,1.6522,1.6522,1.6522,1.6522,1.6504,1.651,1.6502,1.6235,1.5861,1.5843,1.5858,1.5932,1.6208,1.4714,1.292,1.292,1.2908,1.3402,1.5641,1.769,1.9172,1.9076,1.7159,1.5419,1.5399,1.5391,1.6299,1.9262,1.798,1.6491,1.6478,1.6481,1.6479,1.6479,1.6492,1.6485,1.651,1.6703,1.6728,1.6529,1.5652,1.4983,1.4709,1.4312,1.429,1.4698,1.4628,1.5158,1.6311,1.7537,1.8767,2.0056,1.8665,1.8339,1.9159,1.798,1.709,1.6503,1.6774,1.6356,1.5498,1.6885,1.735,1.705,1.7716,1.8008,1.8018,1.7998,1.8014,1.8019,1.837,1.8495,1.8637,2.1724,2.1639,2.1565,2.1595,2.2685,2.4522,2.717,2.5198,2.2589,2.0446,1.9045,1.8634,1.9682,1.8794,1.8556,1.971,1.8729,1.809,1.8072,1.8106,1.8078,1.8101,1.7053,1.6492,1.6497,1.651,1.651,1.651,1.651,1.6778,0.0,1.729,0.0,0.0,0.0,1.9713,1.9716,1.9719,1.9112,1.8052,1.6954,1.6488,1.6503,1.6502,1.6522,1.6522,1.6522,1.6522,1.6491,1.6492,1.6486,1.6511,1.6478,1.6504,1.6493,1.6488,1.4781,1.29,1.2888,1.2898,1.3109,1.3888,1.6994,1.9782,1.9806,1.7501,1.5422,1.5407,1.5385,1.6288,1.9238,1.8933,1.8213,1.8194,1.8219,1.8649,1.9999,2.0177,2.0172,2.0185,1.9006,1.7708,1.6591,1.6157,1.5847,1.5644,1.5452,1.5452,1.5611,1.5631,1.5881,1.6444,1.7795,1.8958,1.9752,1.9402,1.9353,1.9667,1.8623,1.795,1.7633,1.7102,1.6496,1.6038,1.6756,1.6967,1.6931,1.7667,1.7978,1.7984,1.8017,1.7968,1.8035,1.8035,1.7992,1.8123,2.3594,2.1951,2.0368,1.9795,2.2318,2.5152,2.7265,2.5322,2.3594,2.3597,2.1871,2.0408,1.9874,1.8232,1.7714,1.898,1.7513,1.6524,1.6498,1.65,1.6508,1.6524,1.6512,1.6522,1.6479,1.6522,1.6517,1.6512,1.6966,1.7525,1.8069,1.701,1.7619,1.969,1.969,1.969,1.9705,1.9694,1.97,1.9549,1.7839,1.6913,1.6478,1.6486,1.6514,1.6522,1.6522,1.6522,1.6522,1.6522,1.6522,1.6522,1.6522,1.6522,1.651,1.6483,1.4807,1.2967,1.3351,1.3417,1.3433,1.3431,1.6143,1.8881,1.8838,1.7043,1.5431,1.5425,1.5877,1.7024,1.9395,1.9799,1.9797,1.9801,1.9813,2.0708,2.3238,2.3615,2.358,2.3606,2.1786,1.9866,1.8166,1.7529,1.7203,1.717,1.674,1.6515,1.6515,1.6494,1.6498,1.6524,1.7879,1.8796,1.9146,2.0049,2.0313,1.9987,1.9263,1.8768,1.8447,1.7356,1.6633,1.6259,1.6584,1.6787,1.6914,1.75,1.7829,1.7989,1.7976,1.8017,1.8008,1.8008,1.8008,1.8018,2.3584,2.3393,2.2494,2.0091,2.3864,2.7297,2.7561,2.5303,2.3591,2.3579,2.3387,2.2367,2.0067,1.9622,1.8772,1.696,1.664,1.6485,1.6481,1.6527,1.651,1.6485,1.6516,1.6504,1.6522,1.6522,1.6491,1.6516,1.8492,1.9014,1.8098,1.6983,1.7619,1.969,1.969,1.969,1.969,1.9705,1.9723,1.9669,1.9497,1.8252,1.6507,1.6491,1.6477,1.6522,1.6522,1.6522,1.6522,1.6522,1.6522,1.6522,1.6522,1.6522,1.6516,1.6522,1.479,1.3226,1.4757,1.5148,1.5164,1.5178,1.5487,1.5807,1.5787,1.5621,1.5421,1.542,1.7551,1.9466,1.9765,1.9805,1.9797,1.9809,1.981,2.0691,2.3259,2.3629,2.3591,2.3603,2.3368,2.3134,2.2942,2.0805,1.9395,1.9418,1.7585,1.6507,1.6507,1.6486,1.6477,1.6517,1.7656,1.8707,1.9709,1.9849,2.0125,2.063,1.9997,1.898,1.7699,1.799,1.7148,1.5576,1.6348,1.6953,1.7305,1.6982,1.7295,1.8007,1.8019,1.8022,1.8008,1.8008,1.8008,1.8018,2.3584,2.3591,2.3806,2.4323,2.4847,2.5194,2.5195,2.4283,2.3584,2.3585,2.2207,2.0881,1.9858,1.8591,1.798,1.8398,1.8437,1.7889,1.6587,1.6498,1.6522,1.6522,1.6522,1.6522,1.6522,1.6522,1.6492,1.6502,1.7409,1.7578,1.7157,1.6692,1.7658,1.969,1.969,1.969,1.969,1.969,1.9713,1.9708,1.9685,1.9181,1.8344,1.7464,1.71,1.6993,1.6993,1.6752,1.6522,1.6522,1.6522,1.6522,1.6522,1.6522,1.651,1.6508,1.5835,1.5478,1.7514,1.6763,1.5411,1.5382,1.5406,1.5836,1.7665,1.803,1.8047,1.8055,1.8975,1.9818,1.979,2.0875,2.1328,2.0037,1.9795,2.0685,2.3226,2.3584,2.3608,2.3588,2.3616,2.2993,2.1388,2.1729,2.1391,1.9821,1.8931,1.8416,1.8416,1.8394,1.9126,2.0698,1.9737,1.9399,1.9904,1.9839,1.9911,2.015,1.9911,1.9254,1.8232,1.8001,1.7141,1.584,1.6455,1.668,1.6684,1.7234,1.7084,1.6561,1.7599,1.7992,1.8008,1.8008,1.8008,1.8008,2.3471,2.361,2.4192,2.6091,2.4867,2.3615,2.36,2.3615,2.3599,2.3583,2.1984,2.0529,1.9795,1.8372,1.807,1.9565,1.9715,1.8779,1.6651,1.652,1.6494,1.6494,1.6486,1.6481,1.6481,1.6527,1.6504,1.652,1.652,1.6823,1.7447,1.7464,1.824,1.969,1.969,1.969,1.969,1.969,1.969,1.9705,1.9701,1.9723,1.9587,1.8592,1.7973,1.7693,1.7558,1.7312,1.6951,1.6857,1.6663,1.6494,1.6497,1.6498,1.6516,1.6481,1.6943,1.781,1.9391,1.8307,1.67,1.6666,1.6678,1.7235,1.9323,1.977,1.978,1.9809,1.9768,1.9784,1.9768,2.1082,2.1602,2.0051,2.108,2.2462,2.3435,2.3595,2.3613,2.3613,2.3595,2.2864,2.1017,2.1819,2.1696,1.9853,2.0427,2.0522,1.9759,1.9691,2.0533,2.238,2.147,2.0607,1.9934,2.0023,2.0003,1.9798,1.9798,1.9307,1.8328,1.7401,1.6665,1.6145,1.6396,1.6504,1.6556,1.7234,1.6821,1.5864,1.6871,1.7551,1.8008,1.8008,1.8008,1.8008,2.3078,2.3612,2.3601,2.3637,2.3601,2.3618,2.3612,2.361,2.361,2.3595,2.359,2.258,1.9969,1.97,1.967,1.9706,1.9683,1.8797,1.665,1.6479,1.652,1.652,1.6488,1.6507,1.6507,1.6511,1.6522,1.6479,1.6479,1.7631,1.9757,1.9686,1.969,1.969,1.969,1.969,1.969,1.969,1.969,1.969,1.969,1.9708,1.9706,1.9669,1.9238,1.8526,1.8201,1.8106,1.8039,1.7716,1.7089,1.6504,1.6519,1.6516,1.652,1.6475,1.8069,1.9747,1.9788,1.978,1.9773,1.9758,1.9733,1.9765,1.9777,1.979,1.9811,1.9811,1.9798,1.9795,1.9814,1.9828,1.982,1.9814,2.4133,2.6584,2.3992,2.3587,2.3596,2.3596,2.3608,2.3584,2.3553,2.1218,1.9742,1.9689,2.2071,2.2441,1.9824,1.9689,1.9689,1.9757,2.2236,2.2351,1.983,2.0444,2.0446,1.9798,1.9798,1.9044,1.7567,1.6083,1.5644,1.6125,1.6135,1.6562,1.7334,1.659,1.6468,1.6619,1.5734,1.6494,1.8008,1.8008,1.8008,1.8008,2.0548,2.1014,2.1014,2.1027,2.2443,2.3615,2.3598,2.3603,2.3603,2.36,2.3584,2.2593,1.9995,1.9695,1.9694,1.9715,1.9689,1.9407,1.8731,1.8676,1.8675,1.8675,1.8665,1.8016,1.6532,1.6494,1.6497,1.6497,1.6486,1.7618,1.9749,1.9691,1.9701,1.969,1.969,1.969,1.969,1.969,1.969,1.969,1.969,1.9698,1.97,1.97,1.9553,1.9301,1.8812,1.8257,1.773,1.7636,1.7116,1.6492,1.649,1.6502,1.6818,1.8304,1.9264,1.9823,1.98,1.9797,1.9793,1.9828,1.9778,1.982,1.982,1.9809,1.9798,1.9798,1.9798,1.9784,1.978,1.9822,1.9772,1.9808,2.118,2.1956,2.1158,2.0996,2.1643,2.3378,2.3614,2.3611,2.3588,2.1222,1.9688,1.9701,2.046,2.0586,1.976,1.9685,2.0127,2.1015,2.1026,2.1056,2.1082,2.044,2.0003,1.9798,1.9307,1.8286,1.6821,1.5864,1.5488,1.5654,1.626,1.6504,1.6586,1.7224,1.7259,1.6959,1.7091,1.7541,1.8008,1.8008,1.8008,1.8008,1.9354,1.9813,1.9555,1.8699,2.0574,2.1902,2.1039,2.1628,2.2152,2.214,2.2129,2.1491,1.9867,1.8962,1.8482,1.8493,1.9219,1.9706,1.9683,1.9689,1.9695,1.9695,1.972,1.9084,1.7722,1.7706,1.7301,1.6507,1.6497,1.7617,1.9707,1.9686,1.9701,1.969,1.969,1.969,1.969,1.969,1.969,1.969,1.969,1.969,1.969,1.969,1.9722,1.9657,1.9317,1.8858,1.8379,1.8379,1.8089,1.7697,1.7702,1.7701,1.7989,1.9399,1.9775,1.9797,1.9788,1.9788,1.9788,1.9788,1.9825,1.9798,1.9798,1.9798,1.9798,1.9798,1.9798,1.9798,1.9798,1.9798,1.9798,1.9825,1.9788,1.981,1.9817,1.9063,1.9456,2.1871,2.3023,2.36,2.3603,2.2108,2.0779,1.9776,1.8948,1.8847,1.9685,1.972,2.0302,2.1669,2.0911,2.0543,2.0553,2.0028,1.9515,1.898,1.8221,1.7413,1.6492,1.5758,1.5498,1.5693,1.6416,1.667,1.6684,1.7589,1.7789,1.7445,1.7876,1.7967,1.8008,1.8008,1.8008,1.8008,1.9171,1.9549,1.89,1.6843,1.8216,1.8892,1.6822,1.8186,1.9469,1.9498,1.9461,1.946,1.9488,1.7704,1.6486,1.6507,1.8335,1.9564,1.9698,1.9701,1.9698,1.972,1.9686,1.9706,1.9692,1.9711,1.8653,1.6507,1.6507,1.7531,1.9469,1.9618,1.9686,1.9705,1.969,1.969,1.969,1.969,1.969,1.969,1.969,1.969,1.969,1.969,1.969,1.969,1.969,1.969,1.969,1.969,1.9708,1.9698,1.971,1.9691,1.9698,1.9791,1.9777,1.9858,1.9997,2.0073,1.9997,1.9845,1.9787,1.9799,1.9825,1.9825,1.9773,1.9798,1.9798,1.9798,1.9798,1.9798,1.9798,1.9825,1.9825,1.9813,1.9782,1.7896,1.7274,1.9303,2.1974,2.3526,2.3345,2.3201,2.2149,1.9893,1.7731,1.7492,1.9684,1.9586,2.0035,2.1265,2.1427,2.0589,1.871,1.9282,1.8879,1.7523,1.6866,1.6539,1.6368,1.5758,1.5694,1.6045,1.6494,1.6924,1.7324,1.7744,1.792,1.792,1.7959,1.7969,1.7969,1.7998,1.8008,1.8008,1.7205,1.7272,1.7119,1.6573,1.6925,1.7091,1.6591,1.6914,1.7242,1.7249,1.7277,1.7277,1.7272,1.6801,1.6517,1.649,1.6963,1.7948,1.9584,1.9686,1.971,1.9708,1.9715,1.9693,1.9707,1.97,1.8655,1.6507,1.6507,1.6749,1.7288,1.8931,1.9715,1.9678,1.9707,1.969,1.969,1.969,1.969,1.969,1.969,1.969,1.969,1.969,1.969,1.969,1.969,1.969,1.969,1.969,1.9683,1.9685,1.9686,1.972,1.9697,1.98,1.9782,2.0233,2.2191,2.2705,2.2205,2.0303,1.9777,1.9798,1.981,1.9811,1.9775,1.9812,1.9798,1.9798,1.9798,1.9798,1.9774,1.9799,1.9811,1.9817,1.9801,1.7906,1.668,1.7206,2.0996,2.2833,2.0882,1.9185,1.8614,1.9727,1.7728,1.746,1.9683,1.8176,1.7301,1.7333,1.8548,1.8995,1.8614,1.8277,1.7677,1.6765,1.7135,1.6754,1.57,1.6036,1.5982,1.5586,1.6035,1.6279,1.6416,1.6855,1.7031,1.707,1.7402,1.7529,1.7568,1.7891,1.8008,1.8008,1.63,1.6484,1.6505,1.6501,1.6516,1.6498,1.6479,1.6527,1.651,1.6481,1.6509,1.6478,1.6494,1.6519,1.6486,1.6509,1.6494,1.6991,1.8166,1.8244,1.8224,1.824,1.9185,1.9723,1.9686,1.9701,1.8646,1.6477,1.6488,1.6497,1.6548,1.7675,1.8784,1.9706,1.9708,1.9685,1.969,1.97,1.9685,1.969,1.969,1.969,1.969,1.969,1.969,1.969,1.969,1.969,1.969,1.969,1.969,1.969,1.969,1.9683,1.9511,1.8557,1.9028,2.008,2.1505,2.1131,2.0025,1.863,1.8289,1.8282,1.8277,1.9058,1.9798,1.9799,1.9798,1.9798,1.9798,1.9788,1.98,1.9784,1.8931,1.8282,1.8287,1.7251,1.686,1.7867,2.0306,2.134,1.9947,1.7822,1.6999,1.8185,1.8109,1.8513,1.9754,1.7688,1.655,1.6739,1.6935,1.7251,1.7664,1.6946,1.6415,1.6036,1.6754,1.6698,1.5921,1.6322,1.6265,1.5884,1.6049,1.6125,1.6154,1.6543,1.6665,1.6777,1.7217,1.7383,1.7432,1.7852,1.8008,1.8008,1.5545,1.5938,1.596,1.596,1.5942,1.6082,1.6451,1.6504,1.6492,1.6492,1.6498,1.6516,1.6516,1.6491,1.6522,1.6522,1.6477,1.6517,1.6517,1.6515,1.6493,1.6494,1.8257,1.9368,1.9689,1.9701,1.865,1.6494,1.6494,1.6494,1.6517,1.6491,1.7632,1.9689,1.9348,1.9205,1.9243,1.9574,1.9693,1.9713,1.9713,1.9683,1.969,1.969,1.969,1.969,1.969,1.969,1.969,1.969,1.969,1.969,1.969,1.9568,1.9061,1.7075,1.7847,1.9279,1.9288,1.8158,1.6958,1.6797,1.6752,1.6717,1.6538,1.8215,1.9811,1.9811,1.9784,1.9811,1.9809,1.9801,1.972,1.9382,1.7714,1.6525,1.6523,1.6489,1.7321,1.9527,1.9826,1.9806,1.9808,1.8091,1.702,1.6991,1.8747,1.9799,1.9808,1.8013,1.7287,1.7897,1.6558,1.604,1.6482,1.5758,1.541,1.541,1.6255,1.6595,1.6482,1.6708,1.6754,1.6673,1.6325,1.6138,1.6177,1.6439,1.6572,1.667,1.7119,1.7324,1.7432,1.7852,1.7969,1.7852,1.3377,1.346,1.3447,1.3447,1.3472,1.4156,1.6178,1.6502,1.6478,1.6478,1.6487,1.651,1.651,1.6492,1.6522,1.6522,1.6527,1.6502,1.6502,1.6506,1.6507,1.6496,1.6833,1.7868,1.9641,1.9684,1.8631,1.6484,1.6498,1.6497,1.6489,1.6488,1.7626,1.9627,1.782,1.7002,1.7129,1.8945,1.9706,1.9685,1.9685,1.9701,1.969,1.969,1.969,1.969,1.969,1.969,1.969,1.969,1.969,1.969,1.969,1.9087,1.8087,1.6844,1.674,1.6992,1.7015,1.8145,1.9073,1.8177,1.7937,1.77,1.6694,1.8215,1.9775,1.9784,1.979,1.9783,1.9793,1.9799,1.9207,1.7333,1.6705,1.649,1.6487,1.6489,1.7312,1.952,1.9795,1.9813,1.9806,1.9495,1.9283,1.928,1.9595,1.9784,1.9793,1.948,1.9331,1.9446,1.8482,1.7497,1.6482,1.5758,1.541,1.541,1.68,1.709,1.6539,1.7797,1.8015,1.7413,1.6726,1.6425,1.6378,1.5811,1.583,1.6211,1.666,1.7061,1.7432,1.7852,1.7696,1.7338,1.2888,1.2914,1.2912,1.2912,1.2912,1.3303,1.4406,1.4536,1.4562,1.4562,1.4563,1.5083,1.6377,1.6516,1.6504,1.6479,1.6522,1.6522,1.6522,1.6522,1.6502,1.6515,1.6488,1.6954,1.7958,1.7991,1.7474,1.6507,1.6524,1.6522,1.6509,1.6497,1.7046,1.7909,1.6915,1.6494,1.657,1.7584,1.7987,1.8026,1.843,1.8679,1.8855,1.9169,1.9214,1.917,1.9551,1.969,1.969,1.969,1.969,1.969,1.969,1.9346,1.864,1.6992,1.6494,1.6629,1.7232,1.8158,1.8969,1.9041,1.8644,1.8196,1.8265,1.8141,1.8349,1.9577,2.072,2.1225,2.0035,1.9825,1.9101,1.6837,1.7478,1.7867,1.6686,1.6495,1.7322,1.9533,1.9825,1.9818,1.9793,1.9809,1.9788,1.9822,1.9809,1.9786,1.9813,1.9784,1.9808,1.9812,1.8614,1.7709,1.709,1.6743,1.6574,1.6574,1.7677,1.8004,1.7688,1.8394,1.8501,1.8124,1.6978,1.6492,1.6436,1.569,1.5527,1.5781,1.6465,1.6709,1.6777,1.7676,1.7982,1.795,1.2881,1.2881,1.2881,1.2881,1.2881,1.288,1.2914,1.2916,1.2919,1.2919,1.2894,1.3608,1.5457,1.6138,1.6497,1.651,1.6498,1.6498,1.6498,1.6504,1.6522,1.6522,1.649,1.6494,1.6491,1.6494,1.6514,1.6514,1.6506,1.6522,1.6509,1.6477,1.6517,1.6507,1.6488,1.6563,1.6705,1.6548,1.655,1.6745,1.7357,1.7812,1.8145,1.8574,1.8608,1.8551,1.914,1.9332,1.9369,1.9479,1.953,1.953,1.9639,1.9575,1.9174,1.7679,1.6888,1.6731,1.7766,1.8177,1.8505,1.9344,1.907,1.878,1.9621,1.8473,1.7778,1.9453,2.116,2.1784,2.0128,1.9798,1.9065,1.6862,1.8357,1.9237,1.7509,1.7282,1.7804,1.9233,2.0098,2.058,2.0575,2.0545,2.0563,2.0573,2.0085,1.9812,1.9811,1.9798,1.9798,1.9798,1.8555,1.7841,1.7841,1.7688,1.7578,1.7633,1.834,1.8715,1.8715,1.8874,1.898,1.8874,1.7578,1.7034,1.6922,1.6197,1.5866,1.5919,1.6728,1.6908,1.6837,1.7986,1.8596,1.8988,1.2881,1.2881,1.2881,1.2881,1.2881,1.2881,1.291,1.289,1.289,1.289,1.2916,1.2981,1.3149,1.5151,1.6502,1.649,1.649,1.649,1.649,1.6492,1.6522,1.6522,1.6497,1.6527,1.6502,1.6527,1.6484,1.6484,1.6509,1.6522,1.6522,1.6497,1.6486,1.6507,1.6511,1.6799,1.7218,1.6714,1.6799,1.7259,1.7502,1.7814,1.8106,1.8145,1.8131,1.8131,1.8224,1.8224,1.8302,1.8779,1.8968,1.9043,1.953,1.9236,1.8777,1.9302,1.8073,1.6676,1.7441,1.8147,1.8681,1.8758,1.9246,1.9698,1.9799,1.9659,1.9619,1.9752,1.9905,1.9974,1.9842,1.982,1.9091,1.6852,1.8345,1.9746,1.9559,1.9537,1.9181,1.8265,2.0944,2.2877,2.2851,2.2852,2.287,2.2844,2.0964,1.9772,1.9798,1.9798,1.9798,1.9798,1.9044,1.8608,1.8608,1.795,1.7578,1.7633,1.834,1.8715,1.8715,1.9423,1.9695,1.9695,1.8874,1.8555,1.8501,1.7731,1.7294,1.7141,1.7886,1.8251,1.8512,1.9291,1.9676,1.9856,1.2881,1.2898,1.2895,1.2877,1.2926,1.2913,1.2905,1.2887,1.2878,1.291,1.2885,1.3481,1.4994,1.5934,1.5894,1.4384,1.4272,1.4887,1.6377,1.6492,1.6522,1.6522,1.6522,1.6522,1.6522,1.6522,1.6522,1.6522,1.6522,1.6522,1.6522,1.6522,1.6502,1.6498,1.6514,1.6595,1.6795,1.6595,1.6637,1.6795,1.6876,1.6976,1.7146,1.7463,1.7585,1.7666,1.7987,1.8106,1.8159,1.8584,1.8691,1.8811,1.9493,1.9498,1.9348,1.9618,1.8194,1.6571,1.6851,1.7644,1.8563,1.9221,1.9584,1.9798,1.9798,1.9768,1.9825,1.9789,1.9785,1.9805,1.9818,1.9818,1.8951,1.6248,1.6514,1.7693,1.9559,2.0969,2.1688,2.1212,2.2339,2.3124,2.3077,2.3116,2.2539,2.1174,2.1555,2.1272,1.9861,1.9798,1.9798,1.9798,1.9527,1.9359,1.9359,1.9097,1.898,1.8992,1.9254,1.9359,1.9371,1.9695,1.9798,1.9747,1.9044,1.8715,1.8661,1.7895,1.7767,1.8082,1.8603,1.8888,1.9105,1.995,2.0421,2.0789,1.2898,1.2905,1.3131,1.3899,1.4028,1.4041,1.4026,1.3381,1.2892,1.29,1.2897,1.3799,1.6228,1.6484,1.552,1.3097,1.2889,1.3915,1.6329,1.6498,1.6522,1.6522,1.6522,1.6522,1.6522,1.6522,1.6522,1.6522,1.6522,1.6127,1.5401,1.6151,1.6367,1.6114,1.6367,1.6522,1.6522,1.6522,1.6522,1.6522,1.6522,1.6522,1.6552,1.6909,1.7034,1.7118,1.7463,1.7585,1.7652,1.8111,1.8124,1.8083,1.8948,1.9427,1.9558,1.8877,1.8133,1.7398,1.6715,1.706,1.8016,1.9434,1.9787,1.9798,1.9798,1.978,1.9552,1.8595,1.8441,1.8393,1.8419,1.8439,1.7768,1.5738,1.5843,1.7313,2.0415,2.2167,2.3111,2.3083,2.3113,2.3105,2.3109,2.3086,2.2493,2.0964,2.1825,2.167,1.9874,1.9798,1.9798,1.9798,1.9798,1.9798,1.9798,1.9798,1.9798,1.9798,1.9798,1.9798,1.9798,1.9798,1.9798,1.9747,1.9254,1.9044,1.8992,1.8501,1.8386,1.8655,1.9333,1.9634,1.9771,2.0796,2.1436,2.1825,1.2892,1.2895,1.3649,1.6056,1.6476,1.6456,1.6464,1.4417,1.2896,1.289,1.2897,1.3799,1.6216,1.6484,1.5544,1.3124,1.2925,1.3906,1.6332,1.6497,1.6522,1.6522,1.6522,1.6522,1.6522,1.6522,1.6522,1.6522,1.6522,1.5267,1.2984,1.5389,1.6058,1.5348,1.6157,1.6522,1.6522,1.6522,1.6522,1.6522,1.6522,1.6522,1.6522,1.6522,1.6522,1.6522,1.6522,1.6522,1.6607,1.7334,1.7109,1.671,1.7746,1.8824,1.9265,1.7113,1.803,1.9322,1.7099,1.6488,1.7015,1.9242,1.9788,1.9798,1.9811,1.9811,1.8976,1.6011,1.5406,1.5409,1.5448,1.5396,1.5446,1.5456,1.6905,1.9193,2.2621,2.3107,2.3116,2.3116,2.3103,2.3059,2.3083,2.3103,2.3103,2.309,2.1733,2.057,1.9836,1.9798,1.9798,1.9798,1.9798,1.9798,1.9798,1.9798,1.9798,1.9798,1.9798,1.9798,1.9798,1.9798,1.9798,1.9798,1.9798,1.9798,1.9798,1.9798,1.9371,1.8827,2.0159,2.0594,2.0553,2.1807,2.2661,2.3065,1.2894,1.1898,1.1694,1.3613,1.3971,1.3575,1.2357,1.2589,1.292,1.2919,1.2897,1.3154,1.3917,1.5475,1.6192,1.5475,1.3895,1.3906,1.6332,1.6487,1.6504,1.6504,1.651,1.6522,1.6522,1.6522,1.6522,1.6522,1.6522,1.6139,1.5456,1.6151,1.6367,1.6157,1.6411,1.6522,1.6522,1.6522,1.6522,1.6522,1.6522,1.6522,1.6522,1.6522,1.6522,1.6522,1.6522,1.6522,1.6522,1.6748,1.6685,1.6579,1.6896,1.7222,1.734,1.6691,1.6946,1.7355,1.6663,1.6488,1.7015,1.9242,1.9786,1.9813,1.9788,1.9821,1.9551,1.8691,1.7824,1.7233,1.7235,1.7197,1.804,2.0392,2.1212,2.1944,2.2948,2.3115,2.3106,2.3106,2.1724,2.1409,2.2949,2.2433,2.185,2.1564,2.0658,2.024,2.0401,2.0024,1.9798,1.9798,1.9798,1.9798,1.9798,1.9798,1.9798,1.9798,1.9798,1.9798,1.9798,1.9798,1.9798,1.9798,1.9798,1.9798,1.9798,1.9798,1.9932,2.0135,2.0536,2.1119,2.1782,2.2131,2.2422,2.2611,1.1871,1.1577,1.143,1.1804,1.188,1.1526,1.0481,1.1781,1.2913,1.2899,1.2918,1.2912,1.2909,1.5072,1.6476,1.6496,1.4305,1.3502,1.4971,1.5077,1.5492,1.6467,1.6498,1.6522,1.6522,1.6522,1.6522,1.6522,1.6522,1.6244,1.5787,1.6287,1.6312,1.6058,1.6367,1.6522,1.6522,1.6522,1.6522,1.6522,1.6522,1.6522,1.6522,1.6522,1.6522,1.6522,1.6522,1.6522,1.6522,1.6522,1.6522,1.6522,1.6522,1.6522,1.6516,1.6497,1.651,1.6497,1.6516,1.649,1.7026,1.9231,1.9808,2.0052,2.1082,2.1199,2.1091,2.1092,2.0544,1.9993,2.0011,1.9988,2.0705,2.2739,2.3081,2.309,2.3132,2.313,2.3088,2.3081,2.1928,2.1504,2.2547,2.2084,2.1468,2.0873,2.0416,2.03,2.0706,2.0338,2.015,2.015,2.015,2.0037,1.9798,1.9798,1.9798,1.9798,1.9798,1.9798,1.9798,1.9798,1.9798,1.9798,1.9798,1.9798,1.9798,1.9798,2.0012,2.0376,2.0815,2.1393,2.2033,2.2472,2.2636,2.2686,1.0275,1.1586,1.2191,1.059,1.0293,1.0312,1.0299,1.1787,1.2879,1.2907,1.2919,1.2898,1.2896,1.4851,1.6173,1.619,1.4149,1.2822,1.2686,1.3043,1.4217,1.6386,1.6491,1.6491,1.6522,1.6522,1.6522,1.6522,1.6522,1.5954,1.4896,1.6009,1.6114,1.5448,1.6108,1.6471,1.6522,1.6471,1.6471,1.6522,1.6552,1.6552,1.6552,1.6552,1.6552,1.6552,1.6522,1.6522,1.6522,1.6522,1.6522,1.6522,1.6522,1.6491,1.6516,1.6516,1.649,1.6536,1.6757,1.6812,1.7272,1.9307,1.9808,2.0481,2.3026,2.3565,2.3511,2.3507,2.3276,2.3073,2.3091,2.3105,2.3108,2.3108,2.3131,2.3078,2.3078,2.3078,2.3085,2.3076,2.3031,2.277,2.2058,2.1983,2.1606,2.074,2.0769,2.0794,2.0794,2.0794,2.0794,2.0794,2.0794,2.0464,1.9886,1.9874,1.9849,1.9798,1.9798,1.9823,1.9874,1.9823,1.9823,1.9874,1.9823,1.9798,1.9798,1.9798,1.9798,1.9911,2.0991,2.1443,2.1619,2.2673,2.3002,2.299,1.0315,1.0603,1.0735,1.0384,1.0316,1.0278,1.0293,1.1797,1.2889,1.2903,1.2899,1.2899,1.2913,1.3358,1.3707,1.3696,1.3205,1.2304,1.0948,1.3894,1.5929,1.6455,1.6523,1.6498,1.6479,1.6522,1.6522,1.6522,1.6522,1.6355,1.612,1.6355,1.6423,1.6244,1.5973,1.612,1.6497,1.6057,1.612,1.6552,1.6951,1.7105,1.7105,1.7105,1.7105,1.7076,1.6637,1.6522,1.6522,1.6522,1.6522,1.6522,1.6522,1.6523,1.6512,1.6512,1.6517,1.6869,1.8597,1.9095,1.9207,1.9658,1.9808,2.0497,2.3014,2.5191,2.6623,2.6623,2.4709,2.3089,2.3117,2.3094,2.3117,2.3117,2.3115,2.3078,2.3078,2.3078,2.3113,2.3097,2.2711,2.241,2.2254,2.1845,2.1368,2.0769,2.1066,2.1305,2.1305,2.1305,2.1305,2.1305,2.1305,2.1041,2.0489,2.0476,2.025,1.9798,1.9798,2.0037,2.0464,2.0012,2.0049,2.0504,1.9999,1.9798,1.9798,1.9798,1.9798,1.9874,2.0577,2.1104,2.1568,2.2246,2.2485,2.2422,1.0299,1.0312,1.0293,1.0309,1.0312,1.0312,1.0306,1.1052,1.1958,1.2773,1.2178,1.1659,1.1648,1.1661,1.2465,1.4422,1.4615,1.3783,1.181,1.284,1.3918,1.4742,1.4957,1.5496,1.6491,1.6504,1.6494,1.6522,1.6486,1.6498,1.6509,1.6486,1.6212,1.5761,1.5973,1.5957,1.5731,1.5706,1.5856,1.612,1.644,1.6677,1.6909,1.6909,1.6909,1.6879,1.6595,1.6522,1.6522,1.6522,1.6522,1.6522,1.6522,1.6504,1.6722,1.7766,1.8078,1.8316,1.949,1.9782,1.9826,1.9826,1.9811,2.0458,2.3049,2.5661,2.7573,2.7567,2.5219,2.3122,2.3122,2.3078,2.3078,2.3078,2.3078,2.3078,2.3078,2.3078,2.3078,2.3078,2.2874,2.2598,2.2334,2.1807,2.1368,2.1079,2.133,2.1606,2.187,2.1882,2.1882,2.1882,2.1631,2.123,2.0731,2.0718,2.0567,2.0213,2.0213,2.0376,2.0718,2.0627,2.0778,2.1041,2.074,2.0464,2.0213,2.0213,2.0049,1.9886,2.0727,2.123,2.1594,2.2397,2.2535,2.2234,1.0312,1.0283,1.0283,1.0283,1.0283,1.0293,1.0312,1.0315,1.0842,1.2276,1.1219,1.029,1.0279,1.0297,1.1671,1.5136,1.5426,1.4659,1.2815,1.1206,1.0925,1.2386,1.2713,1.3761,1.5681,1.6034,1.6329,1.6519,1.6481,1.6306,1.5942,1.6316,1.6021,1.5212,1.584,1.5765,1.5166,1.5341,1.558,1.5831,1.5853,1.6185,1.6637,1.6637,1.6637,1.6637,1.6522,1.6522,1.6522,1.6522,1.6522,1.6509,1.6502,1.6515,1.6909,1.9141,1.9809,1.9787,1.9814,1.9775,1.9798,1.9798,1.9813,2.0434,2.2961,2.5203,2.6841,2.6803,2.4848,2.3122,2.3122,2.3078,2.3078,2.3078,2.3078,2.3078,2.3078,2.3078,2.3078,2.3078,2.299,2.2811,2.2347,2.1895,2.1631,2.1631,2.1719,2.197,2.2422,2.2447,2.2447,2.2447,2.2008,2.1506,2.0953,2.0941,2.0957,2.0857,2.0903,2.0941,2.0966,2.133,2.1543,2.1619,2.1531,2.123,2.0857,2.0857,2.0526,2.0188,2.123,2.1568,2.1594,2.2523,2.2573,2.2096,1.0302,1.0283,1.0283,1.0283,1.0283,1.0293,1.0303,1.0305,1.0368,1.0607,1.045,1.0315,1.0281,1.0288,1.0533,1.1085,1.1153,1.1003,1.0695,1.0466,1.0406,1.0655,1.0692,1.1274,1.241,1.4213,1.5573,1.6509,1.6494,1.5517,1.3671,1.56,1.6437,1.6236,1.5089,1.5243,1.6208,1.489,1.513,1.6401,1.6386,1.6717,1.7188,1.7188,1.7188,1.7105,1.668,1.6522,1.6522,1.6522,1.6522,1.6527,1.6497,1.6515,1.6908,1.9098,1.9763,1.9808,1.978,1.9775,1.9798,1.9798,1.9825,2.0373,2.2671,2.3453,2.371,2.3695,2.3386,2.3122,2.3122,2.3078,2.3078,2.3078,2.3078,2.3078,2.3078,2.3078,2.3078,2.3078,2.2711,2.2397,2.2322,2.2246,2.2196,2.2196,2.2636,2.2949,2.2965,2.2965,2.2965,2.2965,2.289,2.2648,2.2096,2.2083,2.1845,2.138,2.1857,2.2083,2.2071,2.1669,2.1744,2.2171,2.1694,2.1443,2.138,2.138,2.133,2.133,2.1958,2.1907,2.1506,2.1656,2.1656,2.1518,1.0297,1.0294,1.0301,1.0321,1.0283,1.0283,1.0283,1.0282,1.0281,1.0303,1.0282,1.0281,1.0303,1.0303,1.0291,1.0312,1.0302,1.0312,1.0312,1.0289,1.0312,1.0302,1.0845,1.1609,1.2552,1.3111,1.3813,1.4675,1.5898,1.5363,1.3206,1.4192,1.5306,1.6459,1.5399,1.4995,1.5155,1.4727,1.479,1.518,1.5504,1.575,1.6006,1.6635,1.6674,1.6401,1.6481,1.6522,1.6497,1.6515,1.6507,1.651,1.6488,1.7329,1.8466,1.9427,2.0759,2.1615,2.0201,1.9811,1.9801,1.9812,2.0745,2.1904,2.288,2.3091,2.3083,2.309,2.3114,2.3115,2.31,2.3078,2.3078,2.3078,2.3078,2.3078,2.3078,2.3078,2.3078,2.3078,2.2865,2.2774,2.2774,2.2774,2.2774,2.2774,2.3,2.3078,2.3078,2.3078,2.3078,2.3078,2.2836,2.256,2.2309,2.2309,2.2184,2.1958,2.251,2.2611,2.2309,2.2385,2.2535,2.2761,2.2523,2.2234,2.1945,2.1945,2.1769,2.1506,2.1757,2.1707,2.1493,2.1493,2.1292,2.1041]},{"header":{"parameterUnit":"m.s-1","parameterCategory":1,"la1":30.6,"la2":28.766,"lo1":-90.7593,"lo2":-88.6598,"dy":0.0162,"dx":0.0183,"nx":116,"ny":114,"refTime":"2023-07-29T06:00:00:Z","depth":0,"parameterNumber":3,"parameterNumberName":"V-component_of_WINDS"},"data":[0.0,0.0,0.0,0.0,0.0,0.0,0.0,0.0,0.0,0.0,0.0,0.0,0.0,0.0,0.0,0.0,0.0,0.0,0.0,0.0,0.0,0.0,0.0,0.0,0.0,0.0,0.0,0.0,0.0,0.0,0.0,0.0,0.0,0.0,0.0,0.0,0.0,0.0,0.0,0.0,0.0,0.0,0.0,0.0,0.0,0.0,0.0,0.0,0.0,0.0,0.0,0.0,0.0,0.0,0.0,0.0,0.0,0.0,0.0,0.0,0.0,0.0,0.0,0.0,0.0,0.0,0.0,0.0,0.0,0.0,0.0,0.0,0.0,0.0,0.0,0.0,0.0,0.0,0.0,0.0,0.0,0.0,0.0,0.0,0.0,0.0,0.0,0.0,0.0,0.0,0.0,0.0,0.0,0.0,0.0,0.0,0.0,0.0,0.0,0.0,0.0,0.0,0.0,0.0,0.0,0.0,0.0,0.0,0.0,0.0,0.0,0.0,0.0,0.0,0.0,0.0,0.0,0.0,0.0,0.0,0.0,0.0,0.0,0.0,0.0,0.0,0.0,0.0,0.0,0.0,0.0,0.0,0.0,0.0,0.0,0.0,0.0,0.0,0.0,0.0,0.0,0.0,0.0,0.0,0.0,0.0,0.0,0.0,0.0,0.0,0.0,0.0,0.0,0.0,0.0,0.0,0.0,0.0,0.0,0.0,0.0,0.0,0.0,0.0,0.0,0.0,0.0,0.0,0.0,0.0,0.0,0.0,0.0,0.0,0.0,0.0,0.0,0.0,0.0,0.0,0.0,0.0,0.0,0.0,0.0,0.0,0.0,0.0,0.0,0.0,0.0,0.0,0.0,0.0,0.0,0.0,0.0,0.0,0.0,0.0,0.0,0.0,0.0,0.0,0.0,0.0,0.0,0.0,0.0,0.0,0.0,0.0,0.0,0.0,0.0,0.0,0.0,0.0,0.0,0.0,0.0,0.0,0.0,0.0,0.0,0.0,0.0,0.0,0.0,0.0,0.0,0.0,0.0,0.0,0.0,0.0,0.0,0.0,0.0,0.0,0.0,0.0,0.0,0.0,0.0,0.0,0.0,0.0,0.0,0.0,0.0,0.0,0.0,0.0,0.0,0.0,0.0,0.0,0.0,0.0,0.0,0.0,0.0,0.0,0.0,0.0,0.0,0.0,0.0,0.0,0.0,0.0,0.0,0.0,0.0,0.0,0.0,0.0,0.0,0.0,0.0,0.0,0.0,0.0,0.0,0.0,0.0,0.0,0.0,0.0,0.0,0.0,0.0,0.0,0.0,0.0,0.0,0.0,0.0,0.0,0.0,0.0,0.0,0.0,0.0,0.0,0.0,0.0,0.0,0.0,0.0,0.0,0.0,0.0,0.0,0.0,0.0,0.0,0.0,0.0,0.0,0.0,0.0,0.0,0.0,0.0,0.0,0.0,0.0,0.0,0.0,0.0,0.0,0.0,0.0,0.0,0.0,0.0,0.0,0.0,0.0,0.0,0.0,0.0,0.0,0.0,0.0,0.0,0.0,0.0,0.0,0.0,0.0,0.0,0.0,0.0,0.0,0.0,0.0,0.0,0.0,0.0,0.0,0.0,0.0,0.0,0.0,0.0,0.0,0.0,0.0,0.0,0.0,0.0,0.0,0.0,0.0,0.0,0.0,0.0,0.0,0.0,0.0,0.0,0.0,0.0,0.0,0.0,0.0,0.0,0.0,0.0,0.0,0.0,0.0,0.0,0.0,0.0,0.0,0.0,0.0,0.0,0.0,0.0,0.0,0.0,0.0,0.0,0.0,0.0,0.0,0.0,0.0,0.0,0.0,0.0,0.0,0.0,0.0,0.0,0.0,0.0,0.0,0.0,0.0,0.0,0.0,0.0,0.0,0.0,0.0,0.0,0.0,0.0,0.0,0.0,0.0,0.0,0.0,0.0,0.0,0.0,0.0,0.0,0.0,0.0,0.0,0.0,0.0,0.0,0.0,0.0,0.0,0.0,0.0,0.0,0.0,0.0,0.0,0.0,0.0,0.0,0.0,0.0,0.0,0.0,0.0,0.0,0.0,0.0,0.0,0.0,0.0,0.0,0.0,0.0,0.0,0.0,0.0,0.0,0.0,0.0,0.0,0.0,0.0,0.0,0.0,0.0,0.0,0.0,0.0,0.0,0.0,0.0,0.0,0.0,0.0,0.0,0.0,0.0,0.0,0.0,0.0,0.0,0.0,0.0,0.0,0.0,0.0,0.0,0.0,0.0,0.0,0.0,0.0,0.0,0.0,0.0,0.0,0.0,0.0,0.0,0.0,0.0,0.0,0.0,0.0,0.0,0.0,0.0,0.0,0.0,0.0,0.0,0.0,0.0,0.0,0.0,0.0,0.0,0.0,0.0,0.0,0.0,0.0,0.0,0.0,0.0,0.0,0.0,0.0,0.0,0.0,0.0,0.0,0.0,0.0,0.0,0.0,0.0,0.0,0.0,0.0,0.0,0.0,0.0,0.0,0.0,0.0,0.0,0.0,0.0,0.0,0.0,0.0,0.0,0.0,0.0,0.0,0.0,0.0,0.0,0.0,0.0,0.0,0.0,0.0,0.0,0.0,0.0,0.0,0.0,0.0,0.0,0.0,0.0,0.0,0.0,0.0,0.0,0.0,0.0,0.0,0.0,0.0,0.0,0.0,0.0,0.0,0.0,0.0,0.0,0.0,0.0,0.0,0.0,0.0,0.0,0.0,0.0,0.0,0.0,0.0,0.0,0.0,0.0,0.0,0.0,0.0,0.0,0.0,0.0,0.0,0.0,0.0,0.0,0.0,0.0,0.0,0.0,0.0,0.0,0.0,0.0,0.0,0.0,0.0,0.0,0.0,0.0,0.0,0.0,0.0,0.0,0.0,0.0,0.0,0.0,0.0,0.0,0.0,0.0,0.0,0.0,0.0,0.0,0.0,0.0,0.0,0.0,0.0,0.0,0.0,0.0,0.0,0.0,0.0,0.0,0.0,0.0,0.0,0.0,0.0,0.0,0.0,0.0,0.0,0.0,0.0,0.0,0.0,0.0,0.0,0.0,0.0,0.0,0.0,0.0,0.0,0.0,0.0,0.0,0.0,0.0,0.0,0.0,0.0,0.0,0.0,0.0,0.0,0.0,0.0,0.0,0.0,0.0,0.0,0.0,0.0,0.0,0.0,0.0,0.0,0.0,0.0,0.0,0.0,0.0,0.0,0.0,0.0,0.0,0.0,0.0,0.0,0.0,0.0,0.0,0.0,0.0,0.0,0.0,0.0,0.0,0.0,0.0,0.0,0.0,0.0,0.0,0.0,0.0,0.0,0.0,0.0,0.0,0.0,0.0,0.0,0.0,0.0,0.0,0.0,0.0,0.0,0.0,0.0,0.0,0.0,0.0,0.0,0.0,0.0,0.0,0.0,0.0,0.0,0.0,0.0,0.0,0.0,0.0,0.0,0.0,0.0,0.0,0.0,0.0,0.0,0.0,0.0,0.0,0.0,0.0,0.0,0.0,0.0,0.0,0.0,0.0,0.0,0.0,0.0,0.0,0.0,0.0,0.0,0.0,0.0,0.0,0.0,0.0,0.0,0.0,0.0,0.0,0.0,0.0,0.0,0.0,0.0,0.0,0.0,0.0,0.0,0.0,0.0,0.0,0.0,0.0,0.0,0.0,0.0,0.0,0.0,0.0,0.0,0.0,0.0,0.0,0.0,0.0,0.0,0.0,0.0,0.0,0.0,0.0,0.0,0.0,0.0,0.0,0.0,0.0,0.0,0.0,0.0,0.0,0.0,0.0,0.0,0.0,0.0,0.0,0.0,0.0,0.0,0.0,0.0,0.0,0.0,0.0,0.0,0.0,0.0,0.0,0.0,0.0,0.0,0.0,0.0,0.0,0.0,0.0,0.0,0.0,0.0,0.0,0.0,0.0,0.0,0.0,0.0,0.0,0.0,0.0,0.0,0.0,0.0,0.0,0.0,0.0,0.0,0.0,0.0,0.0,0.0,0.0,0.0,0.0,0.0,0.0,0.0,0.0,0.0,0.0,0.0,0.0,0.0,0.0,0.0,0.0,0.0,0.0,0.0,0.0,0.0,0.0,0.0,0.0,0.0,0.0,0.0,0.0,0.0,0.0,0.0,0.0,0.0,0.0,0.0,0.0,0.0,0.0,0.0,0.0,0.0,0.0,0.0,0.0,0.0,0.0,0.0,0.0,0.0,0.0,0.0,0.0,0.0,0.0,0.0,0.0,0.0,0.0,0.0,0.0,0.0,0.0,0.0,0.0,0.0,0.0,0.0,0.0,0.0,0.0,0.0,0.0,0.0,0.0,0.0,0.0,0.0,0.0,0.0,0.0,0.0,0.0,0.0,0.0,0.0,0.0,0.0,0.0,0.0,0.0,0.0,0.0,0.0,0.0,0.0,0.0,0.0,0.0,0.0,0.0,0.0,0.0,0.0,0.0,0.0,0.0,0.0,0.0,0.0,0.0,0.0,0.0,0.0,0.0,0.0,0.0,0.0,0.0,0.0,0.0,0.0,0.0,0.0,0.0,0.0,0.0,0.0,0.0,0.0,0.0,0.0,0.0,0.0,0.0,0.0,0.0,0.0,0.0,0.0,0.0,0.0,0.0,0.0,0.0,0.0,0.0,0.0,0.0,0.0,0.0,0.0,0.0,0.0,0.0,0.0,0.0,0.0,0.0,0.0,0.0,0.0,0.0,0.0,0.0,0.0,0.0,0.0,0.0,0.0,0.0,0.0,0.0,0.0,0.0,0.0,0.0,0.0,0.0,0.0,0.0,0.0,0.0,0.0,0.0,0.0,0.0,0.0,0.0,0.0,0.0,0.0,0.0,0.0,0.0,0.0,0.0,0.0,0.0,0.0,0.0,0.0,0.0,0.0,0.0,0.0,0.0,0.0,0.0,0.0,0.0,0.0,0.0,0.0,0.0,0.0,0.0,0.0,0.0,0.0,0.0,0.0,0.0,0.0,0.0,0.0,0.0,0.0,0.0,0.0,0.0,0.0,0.0,0.0,0.0,0.0,0.0,0.0,0.0,0.0,0.0,0.0,0.0,0.0,0.0,0.0,0.0,0.0,0.0,0.0,0.0,0.0,0.0,0.0,0.0,0.0,0.0,0.0,0.0,0.0,0.0,0.0,0.0,0.0,0.0,0.0,0.0,0.0,0.0,0.0,0.0,0.0,0.0,0.0,0.0,0.0,0.0,0.0,0.0,0.0,0.0,0.0,0.0,0.0,0.0,0.0,0.0,0.0,0.0,0.0,0.0,0.0,0.0,0.0,0.0,0.0,0.0,0.0,0.0,0.0,0.0,0.0,0.0,0.0,0.0,0.0,0.0,0.0,0.0,0.0,0.0,0.0,0.0,0.0,0.0,0.0,0.0,0.0,0.0,0.0,0.0,0.0,0.0,0.0,0.0,0.0,0.0,0.0,0.0,0.0,0.0,0.0,0.0,0.0,0.0,0.0,0.0,0.0,0.0,0.0,0.0,0.0,0.0,0.0,0.0,0.0,0.0,0.0,0.0,0.0,0.0,0.0,0.0,0.0,0.0,0.0,0.0,0.0,0.0,0.0,0.0,0.0,0.0,0.0,0.0,0.0,0.0,0.0,0.0,0.0,0.0,0.0,0.0,0.0,0.0,0.0,0.0,0.0,0.0,0.0,0.0,0.0,0.0,0.0,0.0,0.0,0.0,0.0,0.0,0.0,0.0,0.0,0.0,0.0,0.0,0.0,0.0,0.0,0.0,0.0,0.0,0.0,0.0,0.0,0.0,0.0,0.0,0.0,0.0,0.0,0.0,0.0,0.0,0.0,0.0,0.0,0.0,0.0,0.0,0.0,0.0,0.0,0.0,0.0,0.0,0.0,0.0,0.0,0.0,0.0,0.0,0.0,0.0,0.0,0.0,0.0,0.0,0.0,0.0,0.0,0.0,0.0,0.0,0.0,0.0,0.0,0.0,0.0,0.0,0.0,0.0,0.0,0.0,0.0,0.0,0.0,0.0,0.0,0.0,0.0,0.0,0.0,0.0,0.0,0.0,0.0,0.0,0.0,0.0,0.0,0.0,0.0,0.0,0.0,0.0,-2.7915,-2.7952,0.0,0.0,0.0,0.0,0.0,0.0,0.0,0.0,0.0,0.0,0.0,0.0,0.0,0.0,0.0,0.0,0.0,0.0,0.0,0.0,0.0,0.0,0.0,0.0,0.0,0.0,0.0,0.0,0.0,0.0,0.0,0.0,0.0,0.0,0.0,0.0,0.0,0.0,0.0,0.0,0.0,0.0,0.0,0.0,0.0,0.0,0.0,0.0,0.0,0.0,0.0,0.0,0.0,0.0,0.0,0.0,0.0,0.0,0.0,0.0,0.0,0.0,0.0,0.0,0.0,0.0,0.0,0.0,0.0,0.0,0.0,0.0,0.0,0.0,0.0,0.0,0.0,0.0,0.0,0.0,0.0,0.0,0.0,0.0,0.0,0.0,0.0,0.0,0.0,0.0,0.0,0.0,0.0,0.0,0.0,0.0,0.0,0.0,0.0,0.0,0.0,0.0,0.0,0.0,0.0,0.0,0.0,0.0,0.0,0.0,0.0,0.0,0.0,0.0,-2.9622,-2.8723,0.0,0.0,0.0,0.0,0.0,0.0,0.0,0.0,0.0,0.0,0.0,0.0,0.0,0.0,0.0,0.0,0.0,0.0,0.0,0.0,0.0,0.0,0.0,0.0,0.0,0.0,0.0,0.0,0.0,0.0,0.0,0.0,0.0,0.0,0.0,0.0,0.0,0.0,0.0,0.0,0.0,0.0,0.0,0.0,0.0,0.0,0.0,0.0,0.0,0.0,0.0,0.0,0.0,0.0,0.0,0.0,0.0,0.0,0.0,0.0,0.0,0.0,0.0,0.0,0.0,0.0,0.0,0.0,0.0,0.0,0.0,0.0,0.0,0.0,0.0,0.0,0.0,0.0,0.0,0.0,0.0,0.0,0.0,0.0,0.0,0.0,0.0,0.0,0.0,0.0,0.0,0.0,0.0,0.0,0.0,0.0,0.0,0.0,0.0,0.0,0.0,0.0,0.0,0.0,0.0,0.0,0.0,0.0,-3.3777,-3.4451,-3.521,-3.521,-3.5284,-3.5293,-3.2632,-3.0779,-2.9654,-3.0191,0.0,0.0,0.0,0.0,0.0,0.0,0.0,0.0,0.0,0.0,0.0,0.0,0.0,0.0,0.0,0.0,0.0,0.0,0.0,0.0,0.0,0.0,0.0,0.0,0.0,0.0,0.0,0.0,0.0,0.0,0.0,0.0,0.0,0.0,0.0,0.0,0.0,0.0,-2.8552,-2.9313,-3.0455,-3.1776,0.0,0.0,0.0,0.0,0.0,0.0,0.0,0.0,0.0,0.0,0.0,0.0,0.0,0.0,0.0,0.0,0.0,0.0,0.0,0.0,0.0,0.0,0.0,0.0,0.0,0.0,0.0,0.0,0.0,0.0,0.0,0.0,0.0,0.0,0.0,0.0,0.0,0.0,0.0,0.0,0.0,0.0,0.0,0.0,-2.7503,-2.664,0.0,0.0,0.0,0.0,0.0,0.0,0.0,0.0,0.0,0.0,0.0,0.0,0.0,-3.3257,-3.4348,-3.5412,-3.5884,-3.5826,-3.6586,-3.6659,-3.6138,-3.6138,-3.6505,-3.7147,-3.6707,0.0,-3.21,-3.1494,0.0,0.0,0.0,0.0,0.0,0.0,0.0,0.0,0.0,0.0,0.0,0.0,0.0,0.0,0.0,0.0,0.0,0.0,0.0,0.0,0.0,0.0,0.0,0.0,0.0,0.0,0.0,0.0,0.0,0.0,0.0,0.0,0.0,0.0,0.0,0.0,-2.7522,-2.7927,-2.9045,-2.9753,-3.0886,-3.2256,-3.1715,-3.1577,-3.1716,-3.0716,0.0,0.0,0.0,0.0,0.0,0.0,0.0,0.0,0.0,0.0,0.0,0.0,0.0,0.0,0.0,0.0,0.0,0.0,0.0,0.0,0.0,0.0,0.0,0.0,0.0,0.0,0.0,0.0,0.0,0.0,0.0,0.0,0.0,0.0,0.0,0.0,0.0,0.0,0.0,-2.9127,-2.9127,-2.752,-2.9042,-2.9465,0.0,0.0,0.0,0.0,0.0,0.0,0.0,0.0,0.0,-3.3796,-3.4572,-3.5425,-3.6395,-3.6973,-3.7833,-3.9019,-3.9808,-4.0487,-4.102,-4.0543,-4.0781,-4.1497,-4.0579,-3.9129,-3.7221,-3.5037,-3.3862,-3.3348,0.0,0.0,0.0,0.0,-3.2522,-3.2926,0.0,0.0,0.0,0.0,0.0,0.0,0.0,0.0,0.0,0.0,0.0,0.0,0.0,0.0,0.0,-2.703,0.0,0.0,0.0,0.0,0.0,0.0,0.0,0.0,0.0,0.0,0.0,0.0,-2.8866,-2.9607,-3.0829,-3.1449,-3.2514,-3.3945,-3.4381,-3.4014,-3.3016,-3.2059,-3.1061,0.0,0.0,0.0,0.0,0.0,0.0,0.0,0.0,0.0,0.0,0.0,0.0,0.0,0.0,0.0,0.0,0.0,0.0,0.0,0.0,0.0,0.0,0.0,0.0,0.0,0.0,0.0,0.0,0.0,0.0,0.0,0.0,0.0,0.0,0.0,0.0,0.0,0.0,-2.977,-3.0362,-2.806,-3.0311,-3.1089,0.0,0.0,0.0,0.0,0.0,0.0,-3.3195,-3.4717,-3.6035,-3.7067,-3.776,-3.8524,-3.9313,-3.9533,-4.0543,-4.2341,-4.2947,-4.3846,-4.5002,-4.4378,-4.4433,-4.4947,-4.3736,-4.2892,-4.2066,-3.8634,-3.6725,-3.5852,-3.5055,-3.4871,-3.5037,-3.4816,-3.5128,-3.5716,0.0,0.0,0.0,0.0,0.0,0.0,0.0,0.0,0.0,0.0,0.0,0.0,0.0,0.0,-2.7366,-2.7885,-2.8294,-2.8638,0.0,0.0,0.0,0.0,0.0,0.0,0.0,0.0,0.0,-3.0748,-3.1441,-3.3136,-3.574,-3.5998,-3.6894,-3.8356,-3.7883,-3.724,-3.6297,-3.2751,-3.1998,-3.2983,0.0,0.0,0.0,0.0,0.0,0.0,0.0,0.0,0.0,0.0,0.0,0.0,0.0,0.0,0.0,0.0,0.0,0.0,0.0,0.0,0.0,0.0,0.0,0.0,0.0,0.0,0.0,0.0,0.0,0.0,0.0,0.0,0.0,0.0,0.0,0.0,0.0,0.0,0.0,-2.806,-3.1664,0.0,0.0,0.0,0.0,-3.2978,-3.4488,-3.5788,-3.6606,-3.7812,-3.9208,-4.0785,-4.2341,-4.3516,-4.4342,-4.5094,-4.5535,-4.5663,-4.57,-4.5755,-4.5847,-4.5792,-4.5792,-4.5847,-4.5755,-4.57,-4.5351,-4.135,-3.9239,-3.8432,-3.7624,-3.7771,-3.8358,-3.7588,-3.7331,-3.7257,0.0,0.0,0.0,0.0,0.0,0.0,0.0,0.0,0.0,0.0,0.0,0.0,0.0,-2.8746,-3.008,-3.1294,-3.1213,-3.0841,-3.0217,0.0,0.0,0.0,0.0,0.0,0.0,0.0,-3.0992,-3.2383,-3.3683,-3.5172,-3.6877,-3.7091,-3.7983,-3.9378,-3.8845,-3.8744,-3.873,-3.5987,-3.4524,-3.3897,-3.1545,-3.0265,0.0,0.0,0.0,0.0,0.0,0.0,0.0,0.0,0.0,0.0,0.0,0.0,0.0,0.0,0.0,0.0,0.0,0.0,0.0,0.0,0.0,0.0,0.0,0.0,0.0,0.0,0.0,0.0,0.0,0.0,0.0,0.0,0.0,0.0,0.0,0.0,0.0,-3.2662,-3.5292,0.0,-3.4951,-3.5717,-3.6412,-3.6642,-3.7989,-3.9349,-4.0637,-4.188,-4.3057,-4.4158,-4.4745,-4.5186,-4.548,-4.5755,-4.6159,-4.6673,-4.6673,-4.6948,-4.7425,-4.6911,-4.6673,-4.6654,-4.6122,-4.5902,-4.5792,-4.4342,-4.3296,-4.2488,-4.168,-4.1222,-4.0983,-4.0689,-4.0579,-4.0543,0.0,0.0,0.0,0.0,0.0,0.0,0.0,0.0,0.0,0.0,0.0,-2.6814,-2.8429,-3.0068,-3.171,-3.3338,-3.2793,-3.209,-3.1444,0.0,0.0,0.0,0.0,0.0,0.0,-3.1511,-3.3168,-3.4654,-3.6253,-3.7721,-3.8996,-3.8712,-3.9268,-4.0446,-3.9949,-4.0017,-4.0375,-3.916,-3.7331,-3.5164,-3.3665,-3.2792,-3.2059,0.0,0.0,0.0,0.0,0.0,0.0,0.0,0.0,0.0,0.0,0.0,0.0,0.0,0.0,0.0,0.0,0.0,0.0,0.0,0.0,0.0,0.0,0.0,0.0,0.0,0.0,0.0,0.0,0.0,0.0,0.0,0.0,0.0,0.0,-3.355,-3.5423,-3.6387,-3.8832,-4.0081,-3.9091,-3.9868,-4.0664,-4.1202,-4.243,-4.3725,-4.5017,-4.5882,-4.6728,-4.7535,-4.7553,-4.7553,-4.7553,-4.7553,-4.7829,-4.8361,-4.8086,-4.8361,-4.9132,-4.8324,-4.7939,-4.7921,-4.737,-4.6985,-4.6709,-4.6709,-4.6397,-4.581,-4.4727,-4.3809,-4.3112,-4.3112,-4.2947,-4.269,0.0,0.0,0.0,0.0,0.0,0.0,0.0,0.0,0.0,0.0,-2.4924,-2.6101,-2.7695,-3.0026,-3.2118,-3.377,-3.282,-3.2292,-3.2617,-2.9336,0.0,0.0,0.0,0.0,-3.0992,-3.3364,-3.5587,-3.7551,-3.9184,-4.0763,-4.2252,-4.1214,-4.1096,-4.1778,-4.144,-4.1256,-4.129,-4.2022,-4.029,-3.6969,-3.6886,-3.5956,-3.4498,0.0,0.0,0.0,0.0,0.0,0.0,0.0,0.0,0.0,0.0,0.0,0.0,0.0,0.0,0.0,0.0,0.0,0.0,0.0,0.0,0.0,0.0,0.0,0.0,0.0,0.0,0.0,0.0,0.0,0.0,0.0,0.0,0.0,-3.2213,-3.6046,-3.8818,-3.8783,-4.2115,-4.3843,-4.2448,-4.4849,-4.6504,-4.654,-4.7688,-4.8746,-4.9572,-4.9627,-4.9976,-5.0784,-5.0802,-5.0802,-5.0802,-5.0802,-5.0802,-5.0802,-4.9994,-5.005,-5.0765,-4.9976,-4.9609,-4.9591,-4.9591,-4.9095,-4.8306,-4.8306,-4.8306,-4.8159,-4.6581,-4.548,-4.4782,-4.4764,-4.4213,-4.3497,0.0,0.0,0.0,0.0,0.0,0.0,0.0,0.0,0.0,0.0,-2.5915,-2.775,-2.9365,-3.1696,-3.4027,-3.6285,-3.4019,-3.2876,-3.3851,0.0,0.0,0.0,0.0,0.0,-3.3442,-3.5593,-3.7497,-3.9221,-4.0855,-4.164,-4.1669,-4.2562,-4.2637,-4.2027,-4.2492,-4.2467,-4.207,-4.2794,-4.2492,-4.1402,-3.9276,-3.8147,-3.7563,0.0,0.0,0.0,0.0,0.0,0.0,0.0,0.0,0.0,0.0,0.0,0.0,0.0,0.0,0.0,0.0,0.0,0.0,0.0,0.0,0.0,0.0,0.0,0.0,0.0,0.0,0.0,0.0,0.0,0.0,0.0,-3.4501,-3.6301,-3.6858,-3.872,-4.0648,-4.2309,-4.475,-4.6382,-4.6567,-4.7871,-4.8956,-4.9559,-4.9896,-5.0215,-5.0453,-5.0472,-5.0563,-5.0802,-5.0802,-5.0802,-5.0802,-5.0802,-5.0802,-5.0802,-5.0582,-5.0582,-5.0802,-5.0563,-5.0141,-4.9591,-4.9591,-4.9095,-4.8306,-4.8306,-4.8306,-4.8269,-4.781,-4.7168,-4.6379,-4.5792,-4.469,-4.3497,0.0,0.0,0.0,0.0,0.0,0.0,0.0,0.0,0.0,0.0,-2.6007,-2.7915,-2.9531,-3.1549,-3.3642,-3.5752,-3.3587,-3.2381,-3.3102,0.0,0.0,0.0,0.0,-3.3568,-3.5727,-3.7882,-3.9625,-4.091,-4.2176,-4.2626,-4.2287,-4.3387,-4.3382,-4.2463,-4.3354,-4.3596,-4.3297,-4.4067,-4.4536,-4.4677,-4.2942,-4.2105,-4.1521,-3.8954,-3.7869,-3.7541,-3.5905,-3.5664,-3.5808,-3.3734,0.0,0.0,0.0,0.0,0.0,0.0,0.0,0.0,0.0,0.0,0.0,0.0,0.0,0.0,0.0,0.0,0.0,0.0,0.0,0.0,0.0,0.0,0.0,0.0,-3.723,-3.9733,-4.1745,-4.2588,-4.3683,-4.5581,-4.7785,-4.9352,-4.9793,-5.06,-5.1444,-5.2252,-5.2307,-5.2454,-5.2784,-5.2803,-5.2656,-5.2325,-5.2307,-5.216,-5.1811,-5.1811,-5.1811,-5.1811,-5.1463,-5.1481,-5.1793,-5.1463,-5.0857,-5.0086,-5.0086,-4.9426,-4.8306,-4.8306,-4.8306,-4.8306,0.0,0.0,0.0,0.0,-4.5094,-4.3993,0.0,0.0,0.0,0.0,0.0,0.0,0.0,0.0,0.0,0.0,0.0,-2.7145,-2.8553,-3.0173,-3.1806,-3.3513,-3.21,-3.1201,0.0,0.0,0.0,-3.1492,-3.428,-3.6485,-3.7881,-4.0084,-4.1644,-4.2433,-4.3149,-4.3479,-4.3428,-4.3922,-4.3755,-4.3068,-4.4215,-4.4761,-4.4864,-4.5495,-4.6226,-4.692,-4.6935,-4.6447,-4.5416,-4.2717,-4.2023,-4.204,-3.9277,-3.7942,-3.7356,-3.626,0.0,0.0,0.0,0.0,0.0,0.0,0.0,0.0,0.0,0.0,0.0,0.0,0.0,0.0,0.0,0.0,0.0,0.0,0.0,0.0,0.0,0.0,0.0,0.0,-4.0366,-4.2559,-4.6105,-4.6784,-4.7324,-4.843,-5.06,-5.1995,-5.1995,-5.2821,-5.3628,-5.4344,-5.4473,-5.484,-5.5556,-5.5592,0.0,0.0,0.0,-5.4106,-5.3225,-5.3298,-5.3298,-5.3206,-5.2472,-5.2509,-5.3188,-5.2454,-5.1701,-5.0949,-5.0949,-4.9994,-4.8453,-4.8453,-4.8398,-4.8306,-4.8306,-4.7829,-4.7021,-4.6195,-4.5388,-4.469,0.0,0.0,0.0,0.0,0.0,0.0,0.0,0.0,0.0,-2.419,-2.5603,-2.6722,-2.7034,-2.8503,-3.0375,-3.2651,-3.0779,-3.0026,0.0,0.0,-3.22,-3.5135,-3.6144,-3.7831,-4.0359,-4.1497,-4.2451,-4.3259,-4.3406,-4.3286,-4.2882,-4.4692,-4.4907,-4.3925,-4.5935,-4.6585,-4.6246,-4.6355,-4.6925,-4.7696,-4.7726,-4.6921,-4.5668,-4.5023,-4.4155,-4.2968,-4.1166,-4.1234,-4.163,-3.8538,-3.8448,-3.926,-3.6713,0.0,0.0,0.0,0.0,0.0,0.0,0.0,0.0,0.0,0.0,0.0,0.0,0.0,0.0,0.0,0.0,0.0,0.0,0.0,0.0,-4.0151,-4.2302,-4.4537,-4.6976,-4.8923,-5.017,-5.0314,-5.1316,-5.1995,-5.1995,-5.3316,-5.4234,-5.4399,-5.4987,-5.5427,-5.5574,-5.5592,-5.5225,-5.4436,-5.5023,-5.4675,-5.3225,-5.3849,-5.3849,-5.3206,-5.3041,0.0,-5.3206,-5.3041,-5.2527,-5.1756,-5.1756,-5.0839,-4.9334,-4.9334,-4.893,-4.8306,-4.8306,-4.7829,-4.7021,-4.6195,-4.5388,-4.4617,0.0,0.0,0.0,0.0,0.0,0.0,0.0,0.0,0.0,0.0,-2.5254,-2.6153,-2.6557,-2.7328,-2.8466,-3.0063,-2.9108,0.0,0.0,-3.1762,-3.3716,-3.6762,-3.8259,-3.9867,-4.168,-4.2488,-4.3094,-4.3497,-4.3497,-4.3576,-4.3724,-4.5205,-4.5612,-4.5249,-4.716,-4.7911,-4.7705,-4.7756,-4.8192,-4.8951,-4.8574,-4.8012,-4.7323,-4.6915,-4.6123,-4.4959,-4.3866,-4.3429,-4.3137,-4.1252,-4.0882,-4.0962,-3.946,-3.7716,-3.5963,0.0,0.0,0.0,0.0,0.0,0.0,0.0,0.0,0.0,0.0,0.0,0.0,0.0,0.0,-3.6992,-3.7719,0.0,-4.0798,-4.2945,-4.4889,-4.6743,-4.8487,-5.0383,-5.1411,-5.0911,-5.2298,-5.3072,-5.2635,-5.406,-5.5001,-5.5047,-5.5761,-5.6381,-5.6767,-5.6785,-5.6418,-5.5629,-5.5996,-5.5427,-5.383,-5.4197,-5.4014,-5.3206,-5.3206,-5.3206,-5.3206,-5.3206,-5.2766,-5.1977,-5.1573,-5.071,-4.9554,-4.9132,-4.8691,-4.8306,-4.8306,-4.8067,-4.7664,-4.726,-4.6599,-4.581,0.0,0.0,0.0,0.0,0.0,0.0,0.0,0.0,0.0,0.0,-2.4759,-2.5401,-2.6062,-2.6135,-2.6465,0.0,0.0,0.0,0.0,-3.254,-3.4981,-3.7606,-3.99,-4.1497,-4.2286,-4.3075,-4.3497,-4.3497,-4.3497,-4.3901,-4.4727,-4.5516,-4.6134,-4.6669,-4.8146,-4.8941,-4.9205,-4.9135,-4.9417,-4.996,-4.9266,-4.9069,-4.9103,-4.8523,-4.7782,-4.6921,-4.6123,-4.4761,-4.3345,-4.3362,-4.2539,-4.1559,-4.1593,-4.0398,-3.8638,-3.6981,-3.6087,0.0,0.0,0.0,0.0,0.0,0.0,0.0,0.0,-3.5475,-3.6228,-3.7787,-3.8785,-3.9884,-4.1356,-4.2472,-4.3809,-4.5821,-4.7187,-4.8528,-5.0062,-5.1412,-5.1916,-5.1057,-5.2938,-5.4044,-5.3526,-5.4745,-5.5715,-5.5884,-5.6619,-5.7317,-5.796,-5.7997,-5.7584,-5.6621,-5.6905,-5.6208,-5.4444,-5.4576,-5.4234,-5.3445,-5.328,-5.3206,-5.3206,-5.3206,-5.2858,-5.2179,-5.1371,-5.0655,-4.9976,-4.915,-4.8802,-4.8802,-4.8802,-4.8691,-4.8508,-4.8196,-4.7682,-4.7003,0.0,0.0,0.0,0.0,0.0,0.0,0.0,0.0,0.0,0.0,0.0,0.0,0.0,0.0,0.0,0.0,0.0,0.0,0.0,-3.2852,-3.522,-3.8432,-4.0194,-4.1497,-4.2286,-4.3075,-4.3497,-4.3497,-4.3497,-4.3901,-4.4727,-4.5533,-4.6673,-4.8125,-4.9005,-4.9866,-5.0633,-5.0028,-4.9882,-4.996,-4.9266,-4.9334,-4.9848,-4.9797,-4.8968,-4.7659,-4.6754,-4.4953,-4.3032,-4.3188,-4.3024,-4.2872,-4.3096,-4.2965,-4.2384,-4.0205,0.0,-3.5399,-3.4391,-3.3832,-3.3789,-3.4937,-3.5328,-3.6506,0.0,-4.0879,-4.0888,-4.2365,-4.3826,-4.4485,-4.3369,-4.4891,-4.6583,-4.753,-4.8335,-4.9379,-5.0871,-5.1749,-5.201,-5.124,-5.2511,-5.3655,-5.4305,-5.5158,-5.5946,-5.663,-5.7419,-5.7905,-5.7997,-5.7997,-5.7342,-5.584,-5.7167,-5.6765,-5.4538,-5.514,-5.506,-5.4252,-5.3555,-5.3206,-5.3206,-5.3206,-5.317,-5.3023,-5.2215,-5.1793,-5.1665,-5.0857,-5.0527,-5.0527,-5.0527,-5.0086,-4.926,-4.7792,-4.7205,-4.7003,0.0,0.0,0.0,0.0,0.0,0.0,0.0,0.0,0.0,0.0,0.0,0.0,0.0,0.0,0.0,0.0,0.0,0.0,-2.9879,-3.1513,-3.4064,-3.7826,-3.9093,-4.0524,-4.2268,-4.2635,-4.302,-4.3497,-4.3497,-4.414,-4.5406,-4.5754,-4.7022,-4.9084,-4.9895,-5.0741,-5.154,-5.1279,-5.1208,-5.1128,-5.0492,-5.0096,-4.9871,-4.9401,-4.8299,-4.6864,-4.5993,-4.3787,0.0,0.0,-4.2193,-4.2211,-4.363,-4.2912,-4.1184,-3.9877,-3.7947,0.0,-3.5941,-3.5613,-3.5605,-3.6672,-3.854,-4.0601,-4.2488,-4.3401,-4.4253,-4.5713,-4.6887,-4.7564,-4.7344,-4.8426,-4.9475,-4.9779,-5.0101,-5.0659,-5.1691,-5.1742,-5.1566,-5.1219,-5.1743,-5.2379,-5.3165,-5.4349,-5.5205,-5.5506,-5.6224,-5.6685,-5.6685,-5.6685,-5.6366,-5.5705,-5.6348,-5.5989,-5.4492,-5.4807,-5.4349,-5.3109,-5.3186,-5.299,-5.2554,-5.2999,-5.2949,-5.2472,-5.2142,-5.172,-5.1279,-5.0949,-5.0802,-5.0802,-5.0802,-5.0306,-4.9499,-4.8802,-4.8233,-4.77,0.0,0.0,0.0,0.0,0.0,0.0,0.0,0.0,0.0,0.0,0.0,0.0,0.0,0.0,0.0,0.0,0.0,0.0,0.0,-3.0044,-3.2577,-3.5991,-3.7569,0.0,-4.1589,-4.2066,-4.269,-4.3497,-4.3497,-4.4305,-4.5902,-4.5883,-4.7224,-4.9654,-5.0425,-5.1265,-5.1993,-5.209,-5.2108,-5.2039,-5.1098,-5.0422,-4.975,-4.871,-4.7052,-4.5231,-4.4599,-4.236,0.0,0.0,-4.0162,-4.0323,-4.1929,-4.1377,-3.9982,-3.9453,-3.8259,-3.6984,-3.635,-3.6891,-3.7936,-3.8902,-4.1753,-4.4423,-4.4885,-4.5974,-4.7276,-4.8562,-4.9255,-4.9712,-5.0033,-5.0541,-5.098,-5.1183,-5.1217,-5.1471,-5.2198,-5.1674,-5.1065,-5.0659,-5.0236,-5.0385,-5.1279,-5.2956,-5.4161,-5.4555,-5.5102,-5.5476,-5.5706,-5.5706,-5.5592,-5.5379,-5.5592,-5.5327,-5.457,-5.4511,-5.3845,-5.2519,-5.2812,-5.2561,-5.1856,-5.2554,-5.2669,-5.2325,-5.2325,-5.1995,-5.1463,-5.1463,-5.1463,-5.1463,-5.1463,-5.0839,-4.9921,-4.9921,-4.9242,-4.8233,0.0,0.0,0.0,0.0,0.0,0.0,0.0,0.0,0.0,0.0,0.0,0.0,0.0,0.0,0.0,0.0,0.0,0.0,0.0,-2.8906,-3.0999,-3.2687,-3.5807,-3.8285,-3.9937,-4.1497,-4.269,-4.3497,-4.3497,-4.4305,-4.5902,-4.5902,-4.7205,-4.9616,-5.0419,-5.1231,-5.1993,-5.209,-5.2102,-5.1962,-5.0532,-4.9845,-4.9538,-4.7946,-4.5457,-4.2811,-4.2612,0.0,0.0,0.0,-3.6608,-3.7136,-3.7035,-3.8472,0.0,-4.0056,-3.9013,-3.739,-3.5182,-3.7247,-4.0351,-4.1791,-4.4456,-4.7048,-4.8523,-4.9424,-5.0168,-5.0947,-5.1133,-5.093,-5.0219,-5.0101,-5.0371,-5.1099,-5.1217,-5.1471,-5.2198,-5.1674,-5.0693,-4.9238,-4.78,-4.7479,-4.8995,-5.1167,-5.3061,-5.452,-5.4628,-5.4965,-5.5671,-5.5706,-5.5379,-5.4651,-5.532,-5.5361,-5.4616,-5.4547,-5.4111,-5.3352,-5.2608,-5.1847,-5.1138,-5.1808,-5.2536,-5.317,-5.317,-5.317,-5.3133,-5.3133,-5.3133,-5.3133,-5.3133,-5.216,-5.0765,-5.0765,-4.9719,-4.8306,0.0,0.0,0.0,0.0,0.0,0.0,0.0,0.0,0.0,0.0,0.0,0.0,0.0,0.0,0.0,0.0,0.0,0.0,0.0,-2.7548,-2.9329,-3.0944,-3.3605,-3.6064,-3.8248,-3.9863,-4.135,-4.269,-4.3222,-4.4322,-4.5901,-4.592,-4.6893,-4.8767,-4.9609,-5.0149,-5.0435,-5.0399,-5.1006,-5.1852,-4.9728,-4.914,-4.9291,-4.6025,-4.3157,-4.0505,0.0,0.0,0.0,0.0,-3.3687,-3.4392,-3.5061,-3.5437,-3.5634,-3.5634,-3.6704,-3.7922,-3.8166,-4.0597,-4.3585,-4.552,-4.7917,-4.9998,-5.095,-5.1792,-5.2266,-5.1995,-5.115,-5.0236,-4.9509,-4.8968,-4.8883,-4.9627,-5.0574,-5.1302,-5.1555,-5.1792,-5.1031,-4.8578,-4.8697,-4.8595,-4.7631,-4.8711,-5.0214,-5.2234,-5.2819,-5.3197,-5.3455,-5.3925,-5.4106,-5.3881,-5.4106,-5.4106,-5.3881,-5.3866,-5.3444,-5.2637,-5.2323,-5.2279,-5.2509,-5.2725,-5.2999,-5.3206,-5.3206,-5.3206,-5.3206,-5.3206,-5.3206,-5.3206,-5.3206,-5.2546,-5.1591,-5.1591,-5.0894,-4.9811,0.0,0.0,0.0,0.0,0.0,0.0,0.0,0.0,0.0,0.0,0.0,0.0,0.0,0.0,0.0,0.0,0.0,0.0,0.0,0.0,-2.753,-2.887,-3.0962,-3.3091,-3.5257,-3.689,-3.8377,-3.9698,-4.1093,-4.2485,-4.3771,-4.4327,-4.548,-4.7053,-4.7886,-4.8434,-4.868,-4.8644,-4.8787,-4.8826,-4.722,-4.6214,-4.5369,-4.2303,-3.9902,0.0,0.0,0.0,0.0,0.0,-3.129,-3.216,-3.2448,-3.3284,-3.4196,-3.4199,-3.6697,-3.9735,-4.0945,-4.3648,-4.6636,-4.8608,-5.0574,-5.2164,-5.2621,-5.2909,-5.2773,-5.1725,-5.0118,-4.8697,-4.797,-4.6786,-4.6329,-4.7614,-4.8409,-4.9221,-5.0287,-5.0371,-4.983,-4.8477,-4.8663,-4.8562,-4.7665,-4.7784,-4.8731,-5.0676,-5.1488,-5.2029,-5.2283,-5.3061,-5.3501,-5.3501,-5.3783,-5.3881,-5.3881,-5.4171,-5.3868,-5.3139,-5.2839,-5.286,-5.3251,-5.3251,-5.3211,-5.3206,-5.3206,-5.3206,-5.3206,-5.3206,-5.3206,-5.3206,-5.3206,-5.2711,-5.1958,-5.1665,-5.1242,-5.06,0.0,0.0,0.0,0.0,0.0,0.0,0.0,0.0,0.0,0.0,0.0,0.0,0.0,0.0,0.0,0.0,0.0,0.0,0.0,0.0,0.0,-2.6521,-2.8081,-2.9677,-3.1237,-3.2852,-3.4082,-3.4862,-3.7264,-3.8896,-3.9749,-4.1285,-4.2813,-4.4378,-4.5148,-4.5918,-4.6616,-4.6616,-4.5326,-4.3291,-4.3196,-4.1341,-3.8552,-3.7232,0.0,0.0,0.0,0.0,0.0,0.0,-2.9579,-3.0716,-2.9669,-3.2332,-3.5825,-3.5931,-3.9112,-4.2707,-4.3497,-4.6391,-4.9509,-5.098,-5.2435,-5.3501,-5.345,-5.279,-5.1758,-5.0236,-4.8122,-4.6329,-4.5568,-4.3639,-4.2929,-4.5213,-4.5111,-4.5754,-4.8646,-4.7953,-4.7614,-4.89,-4.7885,-4.7597,-4.8934,-4.8477,-4.8663,-5.005,-5.0811,-5.1539,-5.2266,-5.3061,-5.3501,-5.3501,-5.4218,-5.4589,-5.4589,-5.532,-5.5373,-5.4648,-5.3921,-5.3526,-5.3435,-5.3399,-5.3317,-5.328,-5.3225,-5.3206,-5.3206,-5.3206,-5.3206,-5.3206,-5.3206,-5.2729,-5.1958,-5.1206,-5.0912,-5.0747,0.0,0.0,0.0,0.0,0.0,0.0,0.0,0.0,0.0,0.0,0.0,0.0,0.0,0.0,0.0,0.0,0.0,0.0,0.0,0.0,0.0,0.0,0.0,0.0,0.0,-3.1182,-3.2412,-3.3193,0.0,-3.5781,-3.7229,-3.7643,-3.8359,-3.9363,-4.019,-4.0299,-3.9935,-3.9935,-4.0274,-4.066,0.0,-3.8375,-3.8412,0.0,0.0,0.0,0.0,0.0,0.0,0.0,0.0,-3.3509,-3.4081,-3.6295,-3.9003,-4.0781,-4.3305,-4.5913,-4.7866,-4.9896,-5.1691,-5.2672,-5.3213,-5.3348,-5.2739,-5.1589,-5.0084,-4.8054,-4.5399,-4.3047,-4.1779,-4.1052,-4.1373,-4.3639,-4.572,-4.7699,-4.956,-5.0963,-5.1302,-4.9965,-5.0456,-5.0608,-4.9881,-5.0152,-5.0524,-5.0896,-5.1099,-5.1539,-5.2266,-5.3061,-5.3501,-5.3501,-5.4218,-5.4589,-5.4589,-5.532,-5.5612,-5.5412,-5.5215,-5.508,-5.4966,-5.4381,-5.4122,-5.4069,-5.3463,-5.3206,-5.3206,-5.3206,-5.3206,-5.3206,-5.3206,-5.3078,-5.2876,-5.2674,-5.2215,-5.1573,0.0,0.0,0.0,0.0,0.0,0.0,0.0,0.0,0.0,0.0,0.0,0.0,0.0,0.0,0.0,0.0,0.0,0.0,0.0,0.0,0.0,0.0,0.0,0.0,0.0,-2.8117,-2.898,0.0,0.0,0.0,0.0,-3.4168,-3.5095,-3.5892,-3.6699,-3.6822,-3.6396,0.0,0.0,0.0,0.0,0.0,0.0,0.0,0.0,0.0,0.0,0.0,0.0,0.0,0.0,-3.5498,-3.7553,-4.0073,-4.2697,-4.4689,-4.7128,-4.9602,-5.1588,-5.2921,-5.3891,-5.4415,-5.3994,-5.3011,-5.1231,-4.9712,-4.7733,-4.4502,-4.2252,-4.029,-3.8481,-3.8413,-3.9259,-4.117,-4.3436,-4.5957,-4.8748,-5.0253,-5.1065,-5.1048,-5.1792,-5.2092,-5.1668,-5.1976,-5.2461,-5.3107,-5.2277,-5.2055,-5.2814,-5.3567,-5.4106,-5.4454,-5.5238,-5.5741,-5.6059,-5.6509,-5.6693,-5.6709,-5.6709,-5.6518,-5.6106,-5.528,-5.473,-5.4363,-5.3555,-5.3206,-5.3206,-5.3206,-5.3206,-5.3206,-5.3206,-5.3206,-5.317,-5.2803,-5.238,-5.1867,0.0,0.0,0.0,0.0,0.0,0.0,0.0,0.0,0.0,0.0,0.0,0.0,0.0,0.0,0.0,0.0,0.0,0.0,0.0,0.0,0.0,0.0,0.0,0.0,0.0,-2.4869,-2.5256,-2.5256,0.0,0.0,0.0,0.0,0.0,0.0,0.0,0.0,0.0,0.0,0.0,0.0,0.0,0.0,0.0,0.0,0.0,0.0,0.0,0.0,0.0,0.0,-3.6432,-3.7742,-4.0774,-4.3799,-4.6611,-4.8342,-5.0734,-5.3193,-5.4723,-5.5591,-5.5994,-5.5827,-5.4668,-5.2693,-4.9559,-4.7479,-4.4976,-4.0679,-3.9123,-3.7905,-3.5859,-3.618,-3.733,-3.9005,-4.0527,-4.3031,-4.7445,-4.8223,-4.9323,-5.2109,-5.2564,-5.2921,-5.374,-5.3783,-5.4343,-5.5596,-5.3904,-5.3095,-5.374,-5.4409,-5.5102,-5.5836,-5.6545,-5.7234,-5.7997,-5.7997,-5.7941,-5.7831,-5.7941,-5.7519,-5.662,-5.5904,-5.5152,-5.4363,-5.3555,-5.3206,-5.3206,-5.3206,-5.3206,-5.3206,-5.3206,-5.3206,-5.3133,-5.2417,-5.2087,-5.1885,0.0,0.0,0.0,0.0,0.0,0.0,0.0,0.0,0.0,0.0,0.0,0.0,0.0,0.0,0.0,0.0,0.0,0.0,0.0,0.0,0.0,0.0,0.0,0.0,-2.419,-2.4337,-2.441,-2.441,-2.4831,0.0,0.0,0.0,0.0,0.0,0.0,0.0,0.0,0.0,0.0,0.0,0.0,0.0,0.0,0.0,0.0,0.0,0.0,0.0,0.0,0.0,-3.9063,-4.3051,-4.5323,-4.7819,-5.0446,-5.3397,-5.4676,-5.5479,-5.7063,-5.7616,-5.7447,-5.6105,-5.4651,-5.2615,-4.8914,-4.55,-4.2168,-3.8937,-3.7178,-3.5893,-3.4878,-3.5842,-3.7669,-4.0375,-4.2066,-4.4384,-4.8274,-4.9881,-5.1286,-5.3053,-5.385,-5.4504,-5.5243,-5.5341,-5.5394,-5.5706,-5.5354,-5.5168,-5.5283,-5.5407,-5.5893,-5.6668,-5.6861,-5.7234,-5.7997,-5.7997,-5.7666,-5.7024,-5.7685,-5.7226,-5.5794,-5.5647,-5.5152,-5.4363,-5.3555,-5.3206,-5.3206,-5.3206,-5.3206,-5.3206,-5.3206,-5.3206,-5.3188,-5.3041,-5.2564,-5.1977,0.0,0.0,0.0,0.0,0.0,0.0,0.0,0.0,0.0,0.0,-2.2398,0.0,0.0,0.0,0.0,0.0,0.0,0.0,0.0,0.0,0.0,0.0,0.0,0.0,-2.419,-2.419,-2.419,-2.419,0.0,-2.4393,-2.4781,-2.5206,-2.5613,-2.5979,-2.6418,0.0,0.0,0.0,0.0,0.0,0.0,0.0,0.0,0.0,0.0,0.0,0.0,0.0,0.0,0.0,-3.8958,-4.3579,-4.6262,-4.9391,-5.2438,-5.4374,-5.5569,-5.6703,-5.8773,-5.9012,-5.843,-5.7352,-5.5057,-5.1826,-4.7254,0.0,0.0,-3.6248,-3.4979,-3.4117,-3.2983,-3.432,0.0,-3.8007,-3.9563,-4.2258,-4.7124,-4.8413,-5.0188,-5.3626,-5.4365,-5.5042,-5.6204,-5.6313,-5.6474,-5.6858,-5.6909,-5.6737,-5.6367,-5.6685,-5.708,-5.7449,-5.7449,-5.7613,-5.7997,-5.7574,-5.7189,-5.6804,-5.6767,-5.6345,-5.5574,-5.517,-5.4748,-5.4363,-5.3555,-5.3206,-5.3206,-5.3206,-5.3206,-5.3206,-5.3206,-5.3206,-5.3206,-5.3206,-5.2692,-5.205,0.0,0.0,0.0,0.0,0.0,0.0,0.0,-2.2073,-2.2124,-2.2293,-2.231,-2.231,-2.231,-2.231,0.0,0.0,0.0,0.0,0.0,0.0,0.0,0.0,0.0,0.0,-2.4094,0.0,0.0,-2.419,-2.419,0.0,0.0,0.0,0.0,0.0,-2.5809,-2.5827,-2.5403,0.0,0.0,0.0,0.0,-2.6924,0.0,0.0,0.0,0.0,0.0,0.0,0.0,0.0,-3.7165,-4.1038,-4.4287,-4.871,-5.2821,-5.3445,-5.5133,-5.7262,-5.9318,-5.9685,-5.9249,-5.8371,-5.5294,-5.1102,-4.602,-4.1648,-3.7704,-3.4143,-3.3271,-3.2814,-3.1647,-3.3102,-3.4837,0.0,-3.7296,-4.0206,-4.5596,-4.6835,-4.8985,-5.3689,-5.457,-5.538,-5.6762,-5.7025,-5.7255,-5.7455,-5.7648,-5.7543,-5.7166,-5.7679,-5.7997,-5.7997,-5.7997,-5.7997,-5.7997,-5.7373,-5.6877,-5.6547,-5.6069,-5.5574,-5.506,-5.4601,-5.4308,-5.4106,-5.3482,-5.3206,-5.3206,-5.3206,-5.3206,-5.3206,-5.3206,-5.3206,-5.3206,-5.3206,-5.2692,-5.2105,0.0,0.0,0.0,0.0,0.0,0.0,0.0,-2.1305,-2.1532,-2.2226,-2.231,-2.231,-2.231,-2.231,0.0,0.0,0.0,0.0,0.0,0.0,0.0,0.0,0.0,0.0,0.0,0.0,0.0,-2.419,-2.419,0.0,0.0,0.0,0.0,0.0,0.0,-2.4797,-2.5403,-2.5403,0.0,0.0,0.0,0.0,0.0,0.0,0.0,0.0,0.0,0.0,0.0,0.0,0.0,-3.5147,-3.845,-4.48,-5.1041,-5.1114,0.0,0.0,-5.796,-5.9226,-5.9963,-5.8461,-5.513,-5.1072,-4.6599,0.0,-3.6904,-3.4007,-3.2865,-3.2341,-3.2205,-3.344,-3.5103,-3.7025,0.0,-4.0954,-4.4718,-4.7125,-4.9738,-5.3032,-5.4705,-5.593,-5.6712,-5.7464,-5.7327,-5.5923,-5.6492,-5.718,-5.7849,-5.7932,-5.7997,-5.7997,-5.7997,-5.7997,-5.7997,-5.7923,-5.7152,-5.5702,-5.6381,-5.5556,-5.3445,-5.4106,-5.4014,-5.3316,-5.3243,-5.3206,-5.3206,-5.3206,-5.3206,-5.3206,-5.3206,-5.3206,-5.3206,-5.3206,-5.2692,-5.2105,0.0,0.0,0.0,0.0,0.0,0.0,0.0,-2.1204,-2.1448,-2.2209,-2.231,-2.231,-2.231,-2.231,0.0,0.0,0.0,0.0,0.0,0.0,0.0,0.0,0.0,0.0,0.0,0.0,-2.3775,-2.3895,-2.4116,0.0,0.0,0.0,0.0,0.0,0.0,-2.4373,-2.4667,-2.4667,0.0,0.0,0.0,0.0,0.0,0.0,0.0,0.0,0.0,0.0,-2.914,0.0,0.0,0.0,-3.3476,-3.8157,0.0,0.0,-5.0765,-5.3794,-5.6528,-5.8455,-5.9322,-5.7735,-5.4056,-4.9874,-4.6247,0.0,-3.6059,-3.4243,-3.287,-3.1914,-3.1693,-3.231,-3.3441,-3.5215,0.0,0.0,-4.2995,-4.4165,-4.6631,-5.2553,-5.3784,-5.5082,-5.7327,-5.7813,-5.7721,-5.7079,-5.6895,-5.7152,-5.796,-5.7997,-5.7997,-5.7997,-5.7997,-5.7997,-5.7997,-5.7042,-5.6216,-5.5574,-5.495,-5.4142,-5.3225,-5.3537,-5.35,-5.3206,-5.3206,-5.3206,-5.3206,-5.3206,-5.3206,-5.3206,-5.3206,-5.3206,-5.3206,-5.3206,-5.3004,-5.2766,0.0,0.0,0.0,0.0,0.0,0.0,-2.034,-2.0686,-2.1109,-2.187,-2.2175,-2.231,-2.231,-2.231,-2.231,-2.231,0.0,0.0,0.0,0.0,0.0,0.0,0.0,0.0,0.0,0.0,-2.35,-2.3692,-2.383,-2.3996,0.0,0.0,-2.4036,-2.4054,0.0,0.0,0.0,0.0,0.0,0.0,0.0,0.0,0.0,0.0,0.0,0.0,0.0,0.0,0.0,0.0,0.0,0.0,0.0,0.0,0.0,0.0,-4.6856,-5.0435,-5.3775,-5.6198,-5.7537,-5.6443,-5.2799,-4.8623,-4.5525,0.0,-3.5776,-3.4331,-3.2963,-3.1933,-3.162,-3.1979,-3.2825,0.0,0.0,-3.7022,-4.1978,-4.2832,-4.5142,-5.1051,-5.1978,-5.3308,-5.6282,-5.7005,-5.7391,-5.7629,-5.7134,-5.706,-5.7611,-5.7648,-5.7648,-5.7648,-5.7648,-5.7519,-5.7281,-5.6161,-5.5464,-5.5225,-5.4106,-5.3445,-5.3206,-5.3206,-5.3206,-5.3206,-5.3206,-5.3206,-5.3206,-5.3206,-5.3206,-5.3206,-5.3206,-5.3206,-5.3206,-5.3206,-5.3059,-5.2894,0.0,0.0,0.0,0.0,0.0,0.0,0.0,-1.9529,-2.0289,-2.1119,-2.1854,-2.231,-2.231,-2.231,-2.231,-2.231,0.0,0.0,0.0,0.0,0.0,0.0,0.0,0.0,0.0,0.0,-2.303,-2.3692,-2.3378,-2.3544,-2.419,-2.3876,-2.3714,-2.3714,0.0,0.0,0.0,0.0,0.0,0.0,0.0,0.0,0.0,0.0,0.0,0.0,0.0,0.0,0.0,0.0,0.0,0.0,0.0,0.0,0.0,0.0,-4.2139,-4.7517,-4.9205,-5.1995,-5.4454,-5.4436,-5.1353,-4.7567,0.0,0.0,-3.617,-3.4055,-3.3015,-3.2484,-3.2484,-3.3103,-3.4001,-3.5371,-3.753,0.0,-4.1999,-4.4378,-4.6489,-4.8159,-4.9114,-5.0582,-5.3023,-5.4693,-5.5959,-5.6767,-5.6804,-5.6804,-5.6822,-5.6822,-5.6822,-5.6822,-5.6822,-5.6436,-5.5611,-5.5592,-5.5188,-5.4418,-5.4399,-5.3977,-5.3206,-5.3206,-5.3206,-5.3206,-5.3206,-5.3206,-5.3206,-5.3206,-5.3206,-5.3206,-5.3206,-5.3206,-5.3206,-5.3206,-5.2711,-5.2123,0.0,0.0,0.0,0.0,0.0,0.0,0.0,-1.9096,-1.9722,-2.1034,-2.1397,-2.1735,-2.226,-2.231,-2.231,-2.231,0.0,0.0,0.0,0.0,0.0,0.0,0.0,0.0,0.0,0.0,0.0,-2.3022,-2.3146,-2.3323,-2.3522,-2.3649,-2.3692,-2.3714,-2.4054,-2.4151,0.0,0.0,0.0,0.0,0.0,0.0,-2.7879,0.0,0.0,0.0,0.0,0.0,0.0,0.0,0.0,0.0,0.0,0.0,0.0,0.0,0.0,0.0,-4.469,-4.6966,-4.8453,-4.7921,-4.5571,-4.3004,-4.1531,-3.8282,-3.5314,-3.4321,-3.3521,-3.2872,-3.255,-3.2941,-3.4002,-3.6085,-3.7321,-3.9022,-4.1919,-4.3424,-4.548,-4.8783,-5.2344,-5.5042,-5.6345,-5.6436,-5.6748,-5.7556,-5.6088,-5.5886,-5.7538,-5.6583,-5.6235,-5.6785,-5.6271,-5.5849,-5.5592,-5.5042,-5.4638,-5.4399,-5.3849,-5.3463,-5.3206,-5.3206,-5.3206,-5.3206,-5.3206,-5.3206,-5.3206,-5.3206,-5.3206,-5.3206,-5.3206,-5.3206,-5.3206,-5.3206,-5.3041,-5.2858,0.0,0.0,0.0,0.0,0.0,0.0,0.0,-1.8724,-1.9333,-2.0585,-2.1008,-2.1465,-2.2226,-2.231,-2.231,-2.231,0.0,0.0,0.0,0.0,0.0,0.0,0.0,0.0,0.0,0.0,-2.2587,-2.27,-2.2816,-2.2982,-2.3189,-2.3289,-2.3315,-2.3343,-2.3658,-2.3744,0.0,0.0,0.0,0.0,0.0,0.0,-2.7879,0.0,0.0,0.0,0.0,0.0,0.0,0.0,0.0,0.0,0.0,0.0,0.0,0.0,-3.2706,-3.6266,0.0,-4.2176,-4.3516,-4.302,-4.1534,0.0,-3.8781,-3.6707,-3.4842,-3.4284,-3.3782,-3.3332,-3.3027,-3.3225,-3.4127,-3.6253,-3.7363,-3.8854,-4.1479,-4.3057,-4.5112,-4.8269,-5.2399,-5.5188,-5.5684,-5.6106,-5.6436,-5.662,-5.5519,-5.5372,-5.6583,-5.5684,-5.5372,-5.5886,-5.5702,-5.5299,-5.4693,-5.4197,-5.3959,-5.394,-5.3445,-5.3206,-5.3206,-5.3206,-5.3206,-5.3206,-5.3206,-5.3206,0.0,-5.3206,-5.3206,-5.3206,-5.3206,-5.3206,-5.3206,-5.3206,-5.3206,-5.3206,0.0,0.0,0.0,0.0,0.0,0.0,0.0,0.0,0.0,0.0,-2.0619,-2.1397,-2.2141,-2.2276,-2.231,0.0,0.0,0.0,0.0,0.0,0.0,0.0,0.0,0.0,0.0,-2.231,-2.2423,-2.2666,-2.2423,-2.2598,-2.3135,-2.2848,-2.2693,-2.2711,-2.3042,-2.307,0.0,0.0,0.0,0.0,0.0,0.0,0.0,0.0,0.0,0.0,0.0,0.0,0.0,0.0,0.0,0.0,0.0,0.0,0.0,0.0,0.0,0.0,0.0,-3.7496,-3.9294,-3.9294,-3.8726,-3.779,0.0,0.0,0.0,-3.3862,-3.3715,-3.3752,-3.3862,-3.3899,-3.4449,-3.6193,-3.7771,-3.935,-4.0965,-4.3369,-4.5535,-4.7113,-5.0178,-5.2142,-5.2087,-5.4161,-5.5225,-5.4546,-5.506,-5.5133,-5.4528,-5.4436,-5.4399,-5.4399,-5.5115,-5.4766,-5.3225,-5.3206,-5.3206,-5.3206,-5.3206,-5.3206,-5.3206,-5.3206,-5.3206,-5.3206,-5.3206,-5.3206,-5.3206,-5.3206,-5.3188,-5.3115,-5.3115,-5.3115,-5.3115,-5.3115,-5.317,-5.3206,0.0,0.0,0.0,0.0,0.0,0.0,0.0,0.0,0.0,0.0,0.0,-2.0585,-2.1363,-2.1955,0.0,0.0,0.0,0.0,0.0,0.0,0.0,0.0,0.0,0.0,0.0,-2.231,-2.2327,-2.2378,-2.2327,-2.2377,-2.2508,-2.2637,-2.2685,-2.2721,-2.3052,0.0,0.0,0.0,0.0,0.0,0.0,0.0,0.0,0.0,0.0,0.0,-2.8994,-2.8994,0.0,0.0,0.0,0.0,0.0,0.0,0.0,0.0,-2.9292,-2.947,-3.0467,0.0,-3.3385,-3.3385,-3.3256,-3.3018,0.0,0.0,0.0,0.0,0.0,0.0,-3.4477,-3.4715,-3.5477,-3.7771,-3.8964,-4.0175,-4.1791,-4.5168,-4.7847,-4.8875,-5.1867,-5.3592,-5.2986,-5.3995,-5.4858,-5.528,-5.4344,-5.4216,-5.5244,-5.473,-5.4399,-5.4399,-5.4583,-5.4197,-5.3225,-5.3206,-5.3206,-5.3206,-5.3206,-5.3206,-5.3206,-5.3206,-5.3206,-5.3206,-5.3206,-5.3206,-5.3206,-5.3206,-5.2839,-5.227,-5.227,-5.227,-5.227,-5.227,-5.2674,-5.3206,0.0,0.0,0.0,0.0,0.0,0.0,0.0,0.0,0.0,0.0,0.0,0.0,0.0,0.0,0.0,0.0,0.0,0.0,0.0,0.0,0.0,0.0,0.0,0.0,0.0,-2.231,-2.231,-2.231,-2.231,-2.231,-2.231,-2.2457,-2.2536,-2.2519,-2.2712,0.0,0.0,0.0,0.0,0.0,-2.6519,0.0,0.0,0.0,0.0,0.0,-2.8558,-2.8583,0.0,-2.8707,-2.8839,-2.8952,0.0,0.0,0.0,0.0,-2.8863,-2.8994,-2.8994,-2.9916,-3.0852,-3.0852,-3.1127,-3.1384,0.0,0.0,0.0,0.0,0.0,0.0,0.0,0.0,-3.5797,-3.8303,-3.9386,-4.0708,-4.3075,-4.559,-4.7792,-4.9389,-5.1444,-5.2876,-5.3188,-5.3592,-5.4032,-5.4473,-5.3702,-5.3592,-5.4454,-5.4087,-5.3849,-5.3849,-5.3849,-5.3647,-5.3206,-5.3206,-5.3206,-5.3206,-5.3206,-5.3206,-5.3206,-5.3206,-5.3206,-5.3206,-5.3206,-5.3206,-5.3206,-5.3206,-5.2949,-5.2546,-5.2546,-5.2546,-5.2546,-5.2546,-5.2601,-5.2711,0.0,0.0,0.0,0.0,0.0,0.0,0.0,0.0,0.0,0.0,0.0,0.0,0.0,0.0,0.0,0.0,0.0,0.0,0.0,0.0,0.0,0.0,0.0,0.0,-2.231,-2.231,-2.231,-2.231,-2.231,-2.231,-2.231,-2.231,-2.231,-2.231,-2.231,0.0,0.0,0.0,-2.3284,-2.432,-2.5163,0.0,0.0,0.0,0.0,0.0,0.0,0.0,0.0,-2.8324,-2.854,-2.8767,-2.842,0.0,0.0,0.0,0.0,0.0,-2.8994,-2.9861,-3.0632,-3.0136,-3.0705,-3.1366,0.0,0.0,0.0,0.0,0.0,0.0,0.0,-3.4945,0.0,-3.8524,-3.9753,-4.157,-4.48,-4.5938,-4.7223,-4.9334,-5.0527,-5.161,-5.2747,-5.3078,-5.3206,-5.3206,-5.3206,-5.3206,-5.3206,-5.3206,-5.3206,-5.3206,-5.3096,-5.3023,-5.3023,-5.3151,-5.3206,-5.3206,-5.3206,-5.3206,-5.3206,-5.3206,-5.3206,-5.3206,-5.3206,-5.3206,-5.3206,-5.3078,-5.3023,-5.3004,-5.2894,-5.2913,-5.3023,-5.3023,-5.2656,-5.227,0.0,0.0,0.0,0.0,0.0,0.0,0.0,0.0,0.0,0.0,0.0,0.0,0.0,0.0,0.0,0.0,0.0,0.0,0.0,0.0,0.0,0.0,0.0,-2.231,-2.231,-2.231,-2.231,-2.231,-2.231,-2.231,-2.231,-2.231,-2.231,-2.231,-2.231,-2.2457,-2.27,-2.2705,-2.3189,-2.4058,-2.5077,0.0,0.0,0.0,0.0,0.0,0.0,0.0,0.0,-2.7982,-2.8037,-2.8065,-2.801,0.0,0.0,0.0,0.0,0.0,-2.8994,-3.1091,-3.2596,-2.9879,-3.0301,-3.1219,0.0,0.0,0.0,0.0,0.0,0.0,0.0,-3.7129,-3.8487,-3.9533,-4.1515,-4.4066,-4.7297,-4.8434,-4.9095,-4.9536,-5.1518,-5.2399,-5.1279,-5.2417,-5.3206,-5.3206,-5.3206,-5.3206,-5.3206,-5.3206,-5.3206,-5.3206,-5.2546,-5.2179,-5.2179,-5.2858,-5.3206,-5.3206,-5.3206,-5.3206,-5.3206,-5.3206,-5.3206,-5.3206,-5.3206,-5.3206,-5.317,-5.2472,-5.2179,-5.2105,-5.1426,-5.1573,-5.2179,-5.2179,-5.2546,-5.3041,0.0,0.0,0.0,0.0,0.0,0.0,0.0,0.0,0.0,0.0,0.0,0.0,0.0,0.0,0.0,0.0,0.0,0.0,0.0,0.0,0.0,0.0,-2.231,-2.231,-2.231,-2.231,-2.231,-2.231,-2.231,-2.231,-2.231,-2.231,-2.231,-2.231,-2.231,-2.2361,-2.2474,-2.2474,-2.292,-2.3708,0.0,0.0,0.0,0.0,0.0,0.0,0.0,0.0,0.0,0.0,-2.7725,-2.7869,-2.7648,0.0,0.0,0.0,0.0,0.0,-2.8633,-3.0064,-3.1344,-3.0491,-3.2192,-3.3697,-3.243,0.0,0.0,0.0,0.0,0.0,0.0,0.0,-3.9386,-4.1497,-4.3864,-4.5975,-4.7462,-4.8343,-4.9205,-5.0141,-5.1224,-5.1958,-5.2087,-5.2784,-5.3206,-5.3206,-5.3206,-5.3206,-5.3206,-5.2803,-5.2747,-5.3206,-5.1995,-5.1555,-5.1995,-5.194,-5.2123,-5.2564,-5.3004,-5.3206,-5.3206,-5.2747,-5.2546,-5.2527,-5.2105,-5.1903,-5.1885,-5.1499,-5.161,-5.1958,-5.1591,-5.194,-5.2601,-5.216,-5.2509,-5.3096,0.0,0.0,0.0,0.0,0.0,0.0,0.0,0.0,0.0,0.0,0.0,0.0,0.0,0.0,0.0,0.0,0.0,0.0,0.0,0.0,-2.1703,-2.2265,-2.231,-2.231,-2.231,-2.231,-2.231,-2.231,-2.231,-2.231,-2.231,-2.231,-2.231,-2.231,-2.231,-2.231,-2.231,-2.231,-2.2649,-2.3221,0.0,0.0,0.0,0.0,0.0,0.0,0.0,0.0,0.0,0.0,0.0,0.0,0.0,0.0,0.0,-2.7378,-2.7589,-2.7954,-2.821,-2.9215,-3.0314,-3.0841,0.0,-3.5018,-3.4504,0.0,0.0,0.0,0.0,0.0,0.0,-3.8744,-4.0469,-4.3314,-4.581,-4.7535,-4.7921,-4.8673,-4.9719,-5.1187,-5.1371,-5.1848,-5.3096,-5.3206,-5.3206,-5.3206,-5.3041,-5.2931,-5.2931,-5.216,-5.1995,-5.2637,-5.1261,-5.0802,-5.1408,-5.082,-5.0912,-5.172,-5.2344,-5.2747,-5.2894,-5.2087,-5.1811,-5.1958,-5.1151,-5.0802,-5.0784,-5.06,-5.0986,-5.1701,-5.1499,-5.1922,-5.2564,-5.194,-5.2234,-5.2747,0.0,0.0,0.0,0.0,0.0,0.0,0.0,0.0,0.0,0.0,0.0,0.0,0.0,0.0,0.0,0.0,0.0,0.0,0.0,0.0,-2.2231,-2.231,-2.231,-2.231,-2.231,-2.231,-2.231,-2.231,-2.231,-2.231,-2.231,-2.231,-2.231,-2.231,-2.231,-2.231,-2.231,-2.231,-2.2327,-2.2429,-2.3173,0.0,0.0,0.0,0.0,0.0,0.0,0.0,0.0,0.0,0.0,0.0,0.0,0.0,-2.7334,-2.7303,-2.7589,-2.7897,-2.7926,-2.9876,-3.1562,-3.0098,0.0,0.0,-3.544,-3.5495,0.0,-3.7881,0.0,0.0,0.0,-4.0487,-4.2616,-4.4342,-4.6654,-4.8765,-5.0325,-5.1224,-5.205,-5.2931,-5.3041,-5.3078,-5.3206,-5.3206,-5.3206,-5.3206,-5.2509,-5.2087,-5.2087,-5.1316,-5.0912,-5.0967,-5.0123,-4.9664,-4.9664,-4.9664,-5.0086,-5.0894,-5.0949,-5.1371,-5.205,-5.1242,-5.1279,-5.1958,-5.1151,-5.0802,-5.0747,-4.9976,-5.016,-5.082,-5.005,-5.0251,-5.0967,-5.0912,-5.1389,-5.2068,0.0,0.0,0.0,0.0,0.0,0.0,0.0,0.0,0.0,0.0,0.0,0.0,0.0,0.0,0.0,0.0,0.0,0.0,0.0,0.0,-2.181,-2.2293,-2.231,-2.231,-2.231,-2.231,-2.231,-2.231,-2.231,-2.231,-2.231,-2.231,-2.231,-2.231,-2.231,-2.231,-2.231,-2.231,-2.231,-2.2378,-2.3105,-2.3393,0.0,0.0,0.0,0.0,0.0,0.0,0.0,0.0,-2.6691,-2.6691,0.0,-2.6808,-2.6939,-2.6939,-2.7019,-2.721,-2.7439,-2.8983,-3.0419,-3.0107,0.0,0.0,0.0,-3.7202,-3.8469,-3.99,-4.124,0.0,-4.1101,-4.2509,-4.3995,-4.4583,-4.7166,-4.9315,-4.9958,-5.161,-5.2491,-5.1793,-5.216,-5.2252,-5.1775,-5.172,-5.172,-5.172,-5.1426,-5.1242,-5.1242,-5.049,-5.027,-5.0784,-4.9481,-4.904,-4.9554,-4.904,-4.893,-4.926,-5.0306,-5.0967,-5.1224,-5.0417,-5.0215,-5.0453,-4.9609,-4.926,-4.9224,-4.8912,-4.9279,-5.0068,-5.027,-5.0527,-5.0802,-5.0802,-5.1316,-5.1922,0.0,0.0,0.0,0.0,0.0,0.0,0.0,0.0,0.0,0.0,0.0,0.0,0.0,0.0,0.0,0.0,0.0,0.0,0.0,0.0,-2.1786,-2.2276,-2.231,-2.231,-2.231,-2.231,-2.231,-2.231,-2.231,-2.231,-2.231,-2.231,-2.231,-2.231,-2.231,-2.231,-2.231,-2.231,-2.231,-2.2344,-2.2852,-2.3054,0.0,0.0,0.0,0.0,0.0,0.0,0.0,0.0,-2.6691,0.0,0.0,0.0,0.0,-2.6691,-2.6691,-2.6758,-2.7036,-2.7937,-2.8962,0.0,0.0,0.0,0.0,-3.79,-4.0029,-4.186,-4.2729,-4.3045,-4.2715,-4.3367,-4.4099,-4.4637,-4.7241,-4.9279,-4.9536,-5.1242,-5.2032,-5.093,-5.1279,-5.1389,-5.0857,-5.0802,-5.0802,-5.0802,-5.0563,-5.0417,-5.0417,-4.9389,-4.9058,-4.9609,-4.8526,-4.8086,-4.8416,-4.8086,-4.7921,-4.7939,-4.9095,-4.9921,-5.038,-4.9554,-4.9334,-4.9536,-4.8673,-4.8306,-4.8306,-4.8306,-4.8655,-4.9242,-4.9793,-5.0013,-5.0013,-5.0013,-5.0527,-5.1151,0.0,0.0,0.0,0.0,0.0,0.0,0.0,0.0,0.0,0.0,0.0,0.0,0.0,0.0,0.0,0.0,0.0,0.0,0.0,-2.231,-2.231,-2.231,-2.231,-2.231,-2.231,-2.231,-2.231,-2.231,-2.231,-2.231,-2.231,-2.231,-2.231,-2.231,-2.231,-2.231,-2.231,-2.231,-2.231,-2.231,-2.231,-2.231,-2.2395,0.0,0.0,0.0,0.0,0.0,0.0,0.0,-2.6691,-2.6691,0.0,0.0,0.0,-2.6691,-2.6691,-2.6691,-2.6691,-2.7004,-2.7494,0.0,0.0,0.0,-3.5361,-3.7366,-3.9858,-4.3892,-4.3449,-4.2559,-4.3371,-4.2867,-4.2847,-4.4441,-4.6728,-4.86,-4.9462,-5.0288,-5.0802,-5.0765,-5.0784,-5.0784,-5.0765,-5.0765,-5.0765,-5.0765,-5.0013,-4.9554,-4.9554,-4.7994,-4.7075,-4.7075,-4.7075,-4.6728,-4.5902,-4.6709,-4.7075,-4.7075,-4.7075,-4.7976,-4.9536,-4.8691,-4.8765,-4.9517,-4.8673,-4.8306,-4.8306,-4.8306,-4.8306,-4.8306,-4.8306,-4.8306,-4.8306,-4.8306,-4.8838,-4.9591,0.0,0.0,0.0,0.0,0.0,0.0,0.0,0.0,0.0,0.0,0.0,0.0,0.0,0.0,0.0,0.0,0.0,0.0,0.0,-2.231,-2.231,-2.231,-2.231,-2.231,-2.231,-2.231,-2.231,-2.231,-2.231,-2.231,-2.231,-2.231,-2.231,-2.231,0.0,-2.231,-2.231,-2.231,-2.231,-2.2361,-2.2868,-2.2767,-2.2395,0.0,0.0,0.0,0.0,0.0,0.0,0.0,0.0,0.0,0.0,0.0,0.0,-2.6082,-2.6285,-2.659,-2.6065,-2.7182,0.0,-2.8782,0.0,0.0,0.0,-3.7864,0.0,0.0,-4.4492,-4.4054,-4.4309,-4.3684,-4.3487,-4.4518,-4.625,-4.7756,-4.8563,-4.9903,-5.016,-4.8416,-4.9242,-4.9481,-4.8324,-4.8728,-4.882,-4.8251,-4.7994,-4.759,-4.7021,-4.6526,-4.6269,-4.6269,-4.6269,-4.614,-4.5902,-4.614,-4.6269,-4.6269,-4.6269,-4.7113,-4.8655,-4.7847,-4.7921,-4.8636,-4.7829,-4.7792,-4.8306,-4.8306,-4.8306,-4.8306,-4.8306,-4.8306,-4.8306,-4.8306,-4.8838,-4.9591,0.0,0.0,0.0,0.0,0.0,0.0,0.0,0.0,0.0,0.0,0.0,0.0,0.0,0.0,0.0,0.0,0.0,0.0,0.0,0.0,-2.231,-2.231,-2.231,-2.231,-2.231,-2.231,-2.231,-2.231,-2.231,-2.231,-2.231,-2.231,-2.231,-2.231,0.0,-2.231,-2.231,-2.231,-2.231,-2.2378,-2.3105,-2.297,-2.2395,0.0,0.0,0.0,0.0,0.0,0.0,0.0,0.0,0.0,0.0,0.0,0.0,-2.6082,-2.615,-2.6234,-2.6082,-2.7249,0.0,-2.9653,-3.2081,-3.4826,-3.6988,0.0,0.0,0.0,-4.4142,-4.3724,-4.4291,-4.3449,-4.3114,-4.4499,-4.5516,-4.6413,-4.7238,-4.8226,-4.83,-4.6817,-4.7497,-4.7738,-4.6727,-4.7039,-4.715,-4.6673,-4.6636,-4.6416,-4.592,-4.5608,-4.5424,-4.5424,-4.5424,-4.5278,-4.4947,-4.5259,-4.5424,-4.5424,-4.5424,-4.6104,-4.7333,-4.6856,-4.6893,-4.7315,-4.6838,-4.6911,-4.737,-4.77,-4.7829,-4.7829,-4.7829,-4.7829,-4.7792,-4.7462,-4.7884,-4.86,0.0,0.0,0.0,0.0,0.0,0.0,0.0,0.0,0.0,0.0,0.0,0.0,0.0,0.0,0.0,0.0,0.0,0.0,0.0,0.0,-2.231,-2.231,-2.231,-2.231,-2.231,-2.231,-2.231,-2.231,-2.231,-2.231,0.0,0.0,-2.231,-2.231,0.0,-2.231,-2.231,-2.231,-2.231,-2.2378,-2.3105,-2.3004,-2.2479,-2.3139,0.0,0.0,0.0,0.0,0.0,0.0,0.0,0.0,-2.659,0.0,-2.5828,-2.642,-2.6167,-2.5845,-2.6522,0.0,0.0,-3.0748,-3.3068,0.0,-3.8419,-4.0997,-4.2941,-4.3746,-4.2847,-4.2327,-4.3652,-4.2538,-4.2168,-4.4336,-4.4675,-4.4926,-4.5769,-4.5897,-4.5878,-4.5824,-4.5847,-4.5865,-4.5792,-4.5847,-4.5865,-4.5792,-4.5792,-4.5755,-4.5681,-4.5002,-4.4599,-4.4599,-4.4599,-4.425,-4.3497,-4.4232,-4.4599,-4.4599,-4.4599,-4.4966,-4.5681,-4.5755,-4.5792,-4.5792,-4.5865,-4.5902,-4.5957,-4.6709,-4.7003,-4.7003,-4.7003,-4.7003,-4.6911,-4.6177,-4.6361,-4.7003,0.0,0.0,0.0,0.0,0.0,0.0,0.0,0.0,0.0,0.0,0.0,0.0,0.0,0.0,0.0,0.0,0.0,0.0,0.0,0.0,-2.231,-2.231,-2.231,-2.231,-2.231,-2.231,-2.231,-2.231,-2.231,0.0,0.0,0.0,0.0,-2.231,0.0,-2.231,-2.231,-2.231,-2.231,-2.2378,-2.3105,-2.3291,-2.3173,-2.3342,-2.3291,0.0,0.0,0.0,0.0,0.0,0.0,0.0,-2.5845,-2.6133,-2.6387,-2.5964,-2.6133,-2.6488,-2.6657,-2.7708,0.0,0.0,-3.4648,-3.7627,-3.9443,-4.028,-4.0901,-4.1553,-4.2267,-4.2997,-4.3757,-4.2709,-4.2351,-4.4354,-4.434,-4.4507,-4.5733,-4.5901,-4.5682,-4.5041,-4.5499,-4.5644,-4.5035,-4.5515,-4.5662,-4.5021,-4.4966,-4.469,-4.4048,-4.3846,-4.3754,-4.3754,-4.3754,-4.3663,-4.3497,-4.3663,-4.3754,-4.3754,-4.3754,-4.3846,-4.403,-4.4672,-4.4966,-4.5002,-4.5626,-4.5902,-4.5902,-4.6085,-4.6159,-4.6159,-4.6159,-4.6159,-4.614,-4.5957,-4.6012,-4.6159,0.0,0.0,0.0,0.0,0.0,0.0,0.0,0.0,0.0,0.0,0.0,0.0,0.0,0.0,0.0,0.0,0.0,0.0,0.0,0.0,0.0,0.0,-2.231,-2.231,-2.231,-2.231,-2.231,-2.231,0.0,0.0,0.0,0.0,0.0,-2.231,0.0,-2.231,-2.231,-2.231,-2.231,-2.2378,-2.3105,-2.319,-2.2919,-2.3274,-2.3173,-2.2835,-2.2446,0.0,0.0,0.0,0.0,0.0,0.0,0.0,-2.5169,-2.5507,-2.5372,-2.5338,0.0,0.0,0.0,-3.2531,0.0,-3.8108,-3.8874,-3.9043,-3.916,-3.9446,-4.0629,-4.1817,-4.2346,-4.1872,-4.1796,-4.3084,-4.3338,-4.3587,-4.4281,-4.4579,-4.4617,-4.4179,-4.449,-4.4597,-4.4154,-4.4504,-4.4579,-4.4158,-4.4121,-4.3938,-4.3516,-4.3497,-4.3497,-4.3497,-4.3497,-4.3497,-4.3497,-4.3497,-4.3497,-4.3497,-4.3497,-4.3497,-4.3497,-4.392,-4.4121,-4.4158,-4.4562,-4.4745,-4.4782,-4.5168,-4.5333,-4.5333,-4.5333,-4.5333,-4.5278,-4.4892,-4.4984,-4.5333,0.0,0.0,0.0,0.0,0.0,0.0,0.0,0.0,0.0,0.0,0.0,0.0,0.0,0.0,0.0,0.0,0.0,0.0,0.0,0.0,0.0,0.0,-2.231,-2.231,-2.231,-2.231,-2.231,-2.231,0.0,0.0,0.0,0.0,0.0,-2.231,0.0,-2.231,-2.231,-2.231,-2.231,-2.2361,-2.297,-2.2919,-2.2547,-2.3038,-2.2919,-2.2479,-2.2361,-2.2699,-2.3207,-2.3207,0.0,0.0,0.0,0.0,-2.3833,-2.5053,-2.4546,-2.4005,0.0,0.0,-2.9193,-3.3304,-3.5949,0.0,-3.7852,-3.7902,-3.7902,-3.7902,-3.8942,-4.0054,-4.0612,-4.0752,-4.0998,-4.1705,-4.2218,-4.2577,-4.2681,-4.3151,-4.3497,-4.3497,-4.3497,-4.3497,-4.3497,-4.3497,-4.3497,-4.3497,-4.3369,-4.3296,-4.3296,-4.3167,-4.3149,-4.3296,-4.3296,-4.3351,-4.3497,-4.3497,-4.3424,-4.3277,-4.3277,-4.3222,-4.3075,-4.3222,-4.3369,-4.3497,-4.3497,-4.3497,-4.3534,-4.4213,-4.4488,-4.4488,-4.4488,-4.4488,-4.4415,-4.3736,-4.392,-4.4488,0.0,0.0,0.0,0.0,0.0,0.0,0.0,0.0,0.0,0.0,0.0,0.0,0.0,0.0,0.0,0.0,0.0,0.0,-2.0582,0.0,0.0,-2.231,-2.231,-2.231,-2.231,-2.231,-2.231,0.0,0.0,0.0,0.0,0.0,0.0,-2.231,0.0,0.0,-2.231,-2.231,-2.231,-2.231,-2.2412,-2.2784,-2.319,-2.2649,-2.2784,-2.3173,-2.2547,-2.2361,-2.2462,-2.2462,-2.2936,0.0,0.0,0.0,-2.4391,-2.4603,-2.4521,-2.4568,0.0,0.0,-3.0398,0.0,-3.4757,-3.6265,0.0,-3.7917,-3.7917,-3.7917,-3.8577,-3.9278,-3.9834,-4.0099,-4.0551,-4.1646,-4.1894,-4.2103,-4.2649,-4.3151,-4.3497,-4.3497,-4.3497,-4.3497,-4.3497,-4.3497,-4.3497,-4.3497,-4.2842,-4.2477,-4.2477,-4.1815,-4.176,-4.2441,-4.2472,-4.2782,-4.3479,-4.3497,-4.3149,-4.2451,-4.2451,-4.2103,-4.1442,-4.2139,-4.2837,-4.3497,-4.3497,-4.3497,-4.3497,-4.3608,-4.3644,-4.3644,-4.3644,-4.3644,-4.3644,-4.3534,-4.3552,-4.3644,0.0,0.0,0.0,0.0,0.0,0.0,0.0,0.0,0.0,0.0,0.0,0.0,0.0,0.0,0.0,-1.7833,-1.9168,-2.0435,-2.1491,-2.2023,-2.231,-2.231,-2.231,-2.231,-2.231,-2.231,-2.231,0.0,0.0,0.0,0.0,-2.231,-2.231,0.0,0.0,0.0,0.0,-2.231,-2.231,-2.231,-2.231,-2.2496,-2.275,-2.2429,-2.2513,-2.275,-2.2429,-2.231,-2.231,-2.231,-2.253,-2.2784,-2.2784,0.0,0.0,0.0,-2.3596,0.0,-2.467,-2.6564,-2.875,0.0,-3.233,-3.3511,-3.502,-3.5394,-3.5377,-3.5368,-3.5963,-3.6944,-3.8489,-3.8807,-3.9026,-3.9547,-4.0138,-4.0619,-4.0854,-4.1643,-4.2315,-4.2768,-4.2823,-4.3023,-4.3461,-4.3096,-4.2823,-4.2823,-4.2061,-4.162,-4.165,-4.1282,-4.1268,-4.1614,-4.1629,-4.1809,-4.2158,-4.2158,-4.1992,-4.1644,-4.1644,-4.1442,-4.113,-4.1479,-4.2066,-4.2818,-4.2818,-4.3075,-4.3497,-4.3497,-4.3497,-4.3497,-4.3497,-4.3497,-4.3497,-4.3497,-4.3497,-4.3497,0.0,0.0,0.0,0.0,0.0,0.0,0.0,0.0,0.0,0.0,0.0,0.0,0.0,0.0,0.0,0.0,-1.8926,-2.0362,-2.1877,-2.2198,-2.2248,-2.2136,-2.2231,-2.231,-2.231,-2.231,0.0,0.0,0.0,0.0,-2.231,-2.231,-2.231,0.0,-2.231,0.0,0.0,0.0,0.0,0.0,-2.231,-2.231,-2.231,-2.231,-2.231,-2.231,-2.231,-2.231,-2.231,-2.231,-2.231,-2.231,-2.231,-2.231,0.0,0.0,0.0,0.0,0.0,0.0,-2.6603,-2.8492,-2.9646,-3.0707,-3.2227,-3.2717,-3.2912,-3.3067,-3.3698,-3.4728,-3.6438,-3.7246,-3.77,-3.7883,-3.8702,-3.9312,-3.9281,-4.0239,-4.1126,-4.1705,-4.1894,-4.2242,-4.2823,-4.2333,-4.1986,-4.1996,-4.1269,-4.0822,-4.08,-4.0615,-4.059,-4.0795,-4.0799,-4.0891,-4.1111,-4.091,-4.0818,-4.0785,-4.0818,-4.0708,-4.0506,-4.0708,-4.113,-4.1717,-4.2121,-4.2635,-4.3204,-4.3406,-4.3497,-4.3497,-4.3497,-4.3497,-4.3497,-4.3497,-4.3497,-4.3497,0.0,0.0,0.0,0.0,0.0,0.0,0.0,0.0,0.0,0.0,0.0,0.0,0.0,-1.7327,-1.7327,-1.7322,-1.8342,-1.9576,-2.0978,-2.1832,-2.2102,-2.167,-2.204,0.0,-2.231,-2.231,0.0,0.0,0.0,0.0,-2.231,-2.231,-2.231,-2.231,-2.231,-2.231,-2.231,0.0,0.0,0.0,0.0,-2.231,-2.231,-2.231,-2.231,-2.231,-2.231,-2.231,-2.231,-2.231,-2.231,-2.231,-2.231,-2.231,-2.231,0.0,0.0,0.0,0.0,-2.3493,0.0,-2.5623,-2.6894,-2.8357,-2.9902,-3.0805,-3.1523,-3.2202,-3.2923,-3.3488,-3.3608,-3.5395,-3.7064,-3.7792,-3.8373,-3.8741,-3.8743,-3.9682,-4.0351,-4.0388,-4.0848,-4.1172,-4.1209,-4.119,-4.1144,-4.1151,-4.0406,-3.997,-3.9982,-3.9246,-3.9191,-3.9933,-3.9982,-4.0322,-4.1111,-4.0341,-3.9974,-3.9946,-3.9974,-3.9551,-3.8854,-3.9606,-3.9974,-4.0102,-4.1644,-4.2323,-4.2415,-4.3185,-4.3497,-4.3497,-4.3497,-4.3497,-4.3497,-4.3497,-4.3497,-4.3497,0.0,0.0,0.0,0.0,0.0,0.0,0.0,0.0,0.0,0.0,0.0,0.0,0.0,-1.7378,-1.7619,-1.7619,-1.9028,-2.0328,-2.1323,-2.1967,-2.2068,-2.1613,-2.204,-2.231,-2.231,-2.231,0.0,0.0,0.0,-2.231,-2.231,-2.231,-2.231,-2.231,-2.231,-2.231,-2.231,-2.231,0.0,0.0,0.0,-2.231,-2.231,-2.231,-2.231,-2.231,-2.231,-2.231,-2.231,-2.231,-2.231,-2.231,-2.231,-2.231,-2.231,-2.231,-2.231,0.0,0.0,0.0,0.0,-2.4607,-2.5305,-2.6087,-2.7561,-2.8472,-2.9102,-2.936,-3.0391,-3.1438,-3.1913,-3.3432,-3.4841,-3.5622,-3.618,-3.6688,-3.7143,-3.7857,-3.8503,-3.903,-3.952,-3.989,-4.0116,-4.0239,-4.0189,-3.9841,-3.9375,-3.9124,-3.9124,-3.8854,-3.8817,-3.9105,-3.9142,-3.9276,-3.957,-3.8762,-3.8365,-3.8345,-3.8365,-3.82,-3.7955,-3.875,-3.9129,-3.9184,-4.029,-4.1042,-4.1589,-4.2411,-4.2724,-4.2779,-4.3311,-4.3497,-4.3497,-4.3497,-4.3497,-4.3497,0.0,0.0,0.0,0.0,0.0,0.0,0.0,0.0,0.0,0.0,0.0,0.0,0.0,0.0,-1.7759,-1.8069,-1.9684,-2.0751,-2.0931,-2.1647,-2.1885,-2.1423,-2.199,-2.231,-2.231,-2.231,0.0,0.0,0.0,0.0,0.0,-2.231,-2.231,-2.231,-2.231,-2.231,0.0,0.0,0.0,-2.231,-2.231,-2.231,-2.231,-2.231,-2.231,-2.231,-2.231,-2.231,-2.2344,-2.2587,-2.2491,-2.2344,-2.2587,-2.2491,-2.231,-2.231,-2.231,0.0,-2.231,0.0,0.0,0.0,-2.3755,-2.4098,-2.5303,-2.6169,-2.6843,-2.733,-2.8434,-2.9547,-3.0319,-3.1465,-3.2687,-3.3955,-3.4442,-3.4824,-3.5313,-3.5853,-3.6388,-3.6933,-3.7394,-3.7953,-3.8598,-3.878,-3.8875,-3.8946,-3.8799,-3.8707,-3.8707,-3.8707,-3.8579,-3.8303,-3.8046,-3.79,-3.79,-3.7349,-3.7099,-3.7113,-3.7118,-3.7094,-3.7131,-3.7644,-3.8053,-3.8315,-3.886,-3.9703,-4.0749,-4.1585,-4.1901,-4.1996,-4.2784,-4.3096,-4.3133,-4.3406,-4.3497,-4.3461,0.0,0.0,0.0,0.0,0.0,0.0,0.0,0.0,0.0,0.0,0.0,0.0,0.0,0.0,0.0,-1.8661,-2.0098,-2.0615,-1.9768,-2.0905,-2.1399,-2.101,-2.1799,-2.2265,-2.2265,-2.231,-2.231,0.0,0.0,0.0,0.0,0.0,-2.231,-2.231,-2.231,-2.231,-2.231,0.0,-2.231,-2.231,-2.231,-2.231,-2.231,-2.231,-2.231,-2.231,-2.2327,-2.2327,-2.2457,-2.317,-2.2943,-2.2446,-2.3153,-2.2892,-2.231,-2.231,0.0,0.0,0.0,0.0,0.0,-2.231,-2.231,-2.2474,-2.3187,-2.3947,-2.4874,-2.6303,-2.7197,-2.7988,-2.876,-2.9508,-3.0757,-3.2877,-3.3305,-3.3361,-3.3378,-3.3846,-3.4169,-3.4169,-3.4614,-3.5381,-3.6599,-3.679,-3.7345,-3.8541,-3.8689,-3.8689,-3.867,-3.8652,-3.8267,-3.7477,-3.6707,-3.6303,-3.6303,-3.6266,-3.6266,-3.6248,-3.6245,-3.6248,-3.6237,-3.6248,-3.668,-3.7418,-3.7429,-3.834,-3.9818,-4.0694,-4.1068,-4.1136,-4.1951,-4.226,-4.2351,-4.3151,-4.3442,-4.3387,0.0,0.0,0.0,0.0,0.0,0.0,0.0,0.0,0.0,0.0,0.0,0.0,0.0,0.0,-1.8748,-1.9778,-2.0271,-2.0382,-2.0141,-2.0767,-2.0946,-2.052,-2.1334,-2.1782,-2.1782,-2.2136,-2.231,-2.231,0.0,0.0,0.0,0.0,0.0,0.0,-2.231,-2.231,-2.231,-2.231,-2.231,-2.231,-2.231,-2.231,-2.231,-2.231,-2.231,-2.2361,-2.2909,-2.3119,-2.3204,-2.3966,-2.3714,-2.3058,-2.2697,-2.2457,0.0,-2.231,-2.231,0.0,-2.231,0.0,0.0,0.0,0.0,0.0,-2.257,-2.3173,-2.3836,-2.4239,-2.5306,-2.6286,-2.6504,-2.7593,-2.8624,-2.9243,-3.12,-3.2778,-3.3308,-3.3543,-3.3612,-3.3612,-3.4339,-3.4812,-3.4836,-3.6353,-3.7301,-3.7265,-3.8136,-3.845,-3.7845,-3.7276,-3.6853,-3.6633,-3.6413,-3.6303,-3.6303,-3.5679,-3.5219,-3.4921,-3.4914,-3.4741,-3.444,-3.5034,-3.5407,-3.5634,-3.617,-3.6364,-3.6485,-3.9135,-4.022,-4.0336,-4.1259,-4.1658,-4.1697,-4.2132,-4.226,-4.226,0.0,0.0,0.0,0.0,0.0,0.0,0.0,0.0,0.0,0.0,0.0,0.0,0.0,0.0,0.0,-2.0004,-2.0196,-2.0222,-2.0044,-2.0466,-2.0589,-2.0305,-2.0957,-2.1442,-2.1608,-2.1877,-2.2102,-2.231,0.0,0.0,0.0,0.0,0.0,0.0,0.0,0.0,0.0,0.0,-2.2119,-2.231,-2.231,-2.231,-2.231,-2.231,-2.231,-2.2361,-2.2796,-2.2929,-2.309,-2.4154,-2.4211,-2.3737,-2.2999,-2.2553,-2.231,-2.231,-2.231,0.0,0.0,0.0,0.0,-2.231,0.0,0.0,-2.231,-2.2632,-2.3038,-2.3342,-2.4073,-2.477,-2.5078,-2.6083,-2.6985,-2.7308,-2.9053,-3.0796,-3.1862,-3.2015,-3.2139,-3.2457,-3.2985,-3.3413,-3.3684,-3.4888,-3.5831,-3.6215,-3.698,-3.729,-3.7,-3.6211,-3.5771,-3.5771,-3.5279,-3.5009,-3.5009,-3.4302,-3.3858,-3.3615,-3.3606,-3.347,-3.3219,-3.3672,-3.4097,-3.4413,-3.4848,-3.4997,-3.5098,-3.7344,-3.8271,-3.8401,-3.9645,-4.0164,-4.0247,-4.1067,-4.1339,-4.1357,0.0,0.0,0.0,0.0,0.0,0.0,0.0,0.0,0.0,0.0,0.0,0.0,0.0,0.0,0.0,0.0,-2.0029,-2.0095,-1.9726,-2.0029,0.0,-2.0222,-2.0676,-2.1072,-2.1462,-2.1506,-2.1765,-2.2215,0.0,0.0,0.0,0.0,0.0,0.0,0.0,0.0,0.0,-2.1568,-2.1832,-2.2231,-2.2265,-2.231,-2.231,-2.231,-2.231,-2.231,-2.2378,-2.2421,-2.2638,-2.405,-2.4551,-2.4483,-2.3648,-2.3022,-2.2491,-2.2344,-2.2361,0.0,0.0,0.0,0.0,-2.2327,-2.2496,0.0,-2.2361,-2.2417,-2.2671,-2.319,-2.3296,-2.3489,-2.4135,-2.4859,-2.558,-2.6335,-2.7012,-2.8031,-2.9719,-3.0046,-3.032,-3.0903,-3.1077,-3.1568,-3.2612,-3.284,-3.3583,-3.5159,-3.5399,-3.5678,-3.6127,-3.5349,-3.4862,-3.4788,-3.3771,-3.3166,-3.313,-3.2714,-3.2487,-3.2419,-3.2419,-3.238,-3.2349,-3.2349,-3.2757,-3.3438,-3.3521,-3.3915,-3.457,-3.5382,-3.5845,-3.6154,-3.7689,-3.8316,-3.8505,-3.9951,-4.0526,-4.0561,-1.7592,0.0,0.0,0.0,0.0,0.0,0.0,0.0,0.0,0.0,0.0,0.0,0.0,0.0,0.0,0.0,-1.9756,-1.9771,-1.9726,-1.9756,0.0,-1.9822,-2.0207,-2.0467,-2.0543,-2.0915,-2.1334,-2.1748,0.0,0.0,0.0,0.0,0.0,0.0,0.0,0.0,0.0,-2.145,-2.1653,-2.1782,-2.2136,-2.231,-2.231,-2.231,-2.231,-2.2378,-2.296,-2.3187,-2.3317,-2.4182,-2.4896,-2.5156,-2.3823,-2.3721,-2.3852,-2.2666,-2.2717,-2.3056,-2.2457,-2.2738,-2.3047,-2.2451,-2.3646,0.0,-2.2716,-2.322,-2.3779,-2.2738,-2.2502,-2.2552,-2.2693,-2.3316,-2.4057,-2.4797,-2.5036,-2.6101,-2.8819,-2.9756,-2.9933,-2.9482,-3.0248,-3.0675,-3.03,-3.121,-3.2193,-3.3123,-3.4074,-3.4812,-3.5229,-3.4486,-3.389,-3.3567,-3.3316,-3.3015,-3.2629,-3.2563,-3.2313,-3.1946,-3.1946,-3.1769,-3.1455,-3.1455,-3.1523,-3.172,-3.2334,-3.2342,-3.2019,-3.3368,-3.4708,-3.6121,-3.7255,-3.768,-3.7826,-3.8894,-3.9344,-3.9413,-1.7535,0.0,0.0,0.0,0.0,0.0,0.0,0.0,0.0,0.0,0.0,0.0,0.0,0.0,0.0,0.0,0.0,0.0,0.0,0.0,-1.969,-1.969,-1.9903,-2.0095,-2.0288,-2.0516,-2.0879,-2.1295,0.0,0.0,0.0,0.0,0.0,0.0,0.0,0.0,0.0,-2.0856,-2.1189,-2.1653,-2.2119,-2.231,-2.231,-2.231,-2.231,-2.2344,-2.2717,-2.3085,-2.3519,-2.4255,-2.4508,-2.4505,-2.4512,-2.4249,-2.3802,-2.3056,-2.3119,-2.3323,-2.2946,-2.3106,-2.3418,-2.341,-2.3938,0.0,0.0,-2.3119,-2.33,-2.292,-2.257,-2.2423,-2.2779,-2.283,-2.3204,-2.4315,-2.4185,-2.4863,-2.7459,-2.7862,-2.7847,-2.7858,-2.8374,-2.8698,-2.8699,-2.9281,-3.0134,-3.1296,-3.2342,-3.2995,-3.3175,-3.3201,-3.2839,-3.2076,-3.2224,-3.2085,-3.159,-3.1393,-3.1167,-3.0984,-3.1348,-3.1011,-3.0124,-3.0858,-3.0999,-3.0701,-3.1647,-3.1715,-3.1314,-3.265,-3.3573,-3.427,-3.5508,-3.6231,-3.6644,-3.7569,-3.7899,-3.807,-1.7188,0.0,0.0,0.0,0.0,0.0,0.0,0.0,0.0,0.0,0.0,0.0,0.0,0.0,0.0,0.0,0.0,0.0,-1.969,-1.969,-1.969,-1.969,-1.969,-1.9852,-2.0192,-2.0192,-2.04,-2.0855,0.0,0.0,0.0,0.0,0.0,0.0,0.0,0.0,0.0,0.0,-2.0707,-2.1394,-2.1972,-2.2215,-2.231,-2.231,-2.231,-2.231,-2.231,-2.2777,-2.3476,-2.4076,-2.3995,-2.3771,-2.4863,-2.4553,-2.3744,-2.3309,-2.3496,-2.3767,-2.3496,-2.3614,-2.3921,-2.4222,-2.4157,-2.389,0.0,0.0,0.0,-2.313,-2.2704,-2.2471,-2.3062,-2.27,-2.2734,-2.4052,-2.379,-2.4031,-2.5808,-2.5561,-2.5548,-2.6572,-2.6553,-2.6736,-2.7334,-2.7367,-2.7979,-2.943,-3.0432,-3.102,-3.1164,-3.1884,-3.1801,-3.0818,-3.0942,-3.081,-3.037,-3.018,-3.0018,-2.9917,-3.0632,-3.0302,-2.9048,-3.0234,-3.0458,-2.9951,-3.0858,-3.1181,-3.1065,-3.2051,-3.2405,-3.2429,-3.3775,-3.4757,-3.5493,-3.6265,-3.6649,-3.697,-1.6792,-1.7127,0.0,0.0,0.0,0.0,0.0,0.0,0.0,0.0,0.0,0.0,0.0,-2.0273,-2.0095,0.0,-1.969,-1.969,-1.969,-1.969,0.0,-1.969,-1.969,-1.9726,-1.9756,-1.9756,-1.9948,-2.0385,0.0,0.0,0.0,0.0,0.0,0.0,-2.0137,0.0,0.0,-2.0125,-2.0365,-2.0524,-2.1354,-2.1928,-2.231,-2.231,-2.231,-2.231,-2.231,-2.2769,-2.3405,-2.3488,-2.3912,-2.4282,-2.3785,-2.4431,-2.4963,-2.2979,-2.38,-2.5064,-2.3765,-2.4365,-2.5048,-2.3823,-2.4951,-2.5642,-2.3009,0.0,-2.3895,-2.2694,0.0,-2.2344,-2.2399,0.0,0.0,-2.3397,-2.3462,-2.3489,-2.3727,-2.3708,-2.4414,-2.645,-2.612,-2.5754,-2.5827,-2.5862,-2.6213,-2.7108,-2.8553,-2.9629,-3.0314,-3.081,-3.0844,-3.0308,-2.9972,-2.9592,-2.9193,-2.9812,-2.9777,-2.9154,-2.9845,-2.9792,-2.9015,-2.9155,-2.9204,-2.9115,-2.9254,-2.9643,-3.0241,-3.0379,-3.1173,-3.2395,-3.3182,-3.3979,-3.474,-3.5476,-3.6203,-3.6922,-1.6718,-1.6897,0.0,0.0,0.0,0.0,0.0,0.0,0.0,0.0,0.0,0.0,-2.0337,-2.0104,-1.9867,-1.9726,-1.969,-1.969,-1.969,-1.969,0.0,-1.969,-1.969,-1.969,-1.969,-1.969,-1.9771,0.0,-1.9771,0.0,0.0,0.0,0.0,0.0,-1.9867,-1.9999,-2.0029,-1.9999,-2.0385,-2.1024,-2.0899,-2.1448,-2.231,-2.231,-2.231,-2.235,-2.2786,-2.3148,-2.3468,-2.3891,-2.3973,-2.3958,-2.4499,-2.4798,-2.4856,-2.4381,-2.4884,-2.5459,-2.4854,-2.5137,-2.5431,-2.4822,-2.5045,-2.498,-2.332,-2.3094,-2.3093,-2.2625,0.0,0.0,0.0,0.0,0.0,0.0,-2.3034,-2.3045,-2.3921,-2.3293,-2.31,-2.4028,-2.3884,-2.3846,-2.4272,-2.4923,-2.5461,-2.5803,-2.7045,-2.7914,-2.8224,-2.9259,-2.9449,-2.8539,-2.8801,-2.8749,-2.8318,-2.8623,-2.8592,-2.8322,-2.9109,-2.8819,-2.7696,-2.8579,-2.8768,-2.8328,-2.9033,-2.9402,-2.9505,-3.0179,-3.0684,-3.1117,-3.1816,-3.3085,-3.4533,-3.4851,-3.5459,-3.6214,-1.6734,0.0,0.0,0.0,0.0,0.0,0.0,0.0,0.0,-2.066,-2.0451,-2.0254,-2.0143,-2.0144,-2.0014,-1.9741,-1.9852,-1.9918,-1.9726,-1.969,-1.969,-1.969,-1.969,-1.969,-1.969,-1.969,-1.969,0.0,0.0,0.0,0.0,0.0,0.0,0.0,0.0,-1.9852,-2.0131,-1.9825,-2.0235,-2.1039,-2.0497,-2.1038,-2.2119,-2.2248,-2.231,-2.2367,-2.2908,-2.3102,-2.318,-2.3733,-2.3557,-2.3283,-2.4361,-2.4603,-2.4543,-2.4663,-2.5285,-2.5807,-2.5429,-2.5594,-2.5839,-2.5648,-2.5045,-2.4327,-2.357,-2.2999,-2.2587,-2.2587,-2.2593,0.0,0.0,0.0,-2.27,-2.3039,0.0,-2.3151,-2.3812,-2.3173,-2.2683,-2.2892,-2.271,-2.2725,-2.3059,-2.3836,-2.4354,-2.4448,-2.5427,-2.6056,-2.6136,-2.7505,-2.7912,-2.7039,-2.7641,-2.7859,-2.7503,-2.7709,-2.7707,-2.752,-2.832,-2.7964,-2.6725,-2.7878,-2.8048,-2.7538,-2.8646,-2.9074,-2.9041,-2.9907,-3.0289,-3.0421,-3.0752,-3.2264,-3.4231,-3.4378,-3.4858,-3.5639,-1.669,-1.7034,0.0,0.0,0.0,0.0,0.0,-2.0309,-2.0192,-1.9771,-2.008,-2.0146,-1.9767,-2.0615,-2.0839,-1.9771,-2.0288,-2.0385,-1.9741,-1.969,-1.969,-1.969,-1.969,-1.969,-1.969,-1.969,-1.969,-1.969,0.0,0.0,0.0,0.0,0.0,0.0,-1.969,-1.9726,-1.9737,-1.9716,-1.9736,-1.9788,-2.014,-2.0832,-2.167,-2.2136,-2.231,-2.231,-2.2316,-2.2333,-2.2347,-2.2363,-2.2341,-2.2344,-2.2378,-2.3354,-2.4215,-2.2815,-2.4447,-2.6337,-2.4913,-2.5581,-2.6488,-2.5765,-2.5057,-2.4304,-2.3568,-2.3369,-2.3153,-2.2457,-2.2866,-2.3137,-2.2425,-2.2892,-2.3136,0.0,-2.3511,0.0,0.0,-2.2943,-2.3624,-2.4344,-2.3801,-2.3105,-2.2412,-2.2361,-2.2494,-2.2756,-2.358,-2.42,-2.447,-2.5624,-2.6276,-2.6259,-2.6597,-2.6759,-2.6725,-2.7452,-2.7452,-2.6742,-2.7496,-2.7429,-2.6691,-2.6759,-2.6775,-2.6792,-2.7521,-2.8304,-2.8989,-2.9041,-2.9896,-3.1123,-3.0404,-3.1489,-3.3505,-3.4021,-3.4662,-3.5442,0.0,0.0,0.0,0.0,-1.8977,-1.9732,-2.0223,-2.008,-2.0177,-2.0937,-2.1132,-2.1327,-2.1672,-2.1998,-2.1886,-2.1076,-2.0843,-2.0579,-2.0385,-1.9948,-1.969,-1.969,-1.969,-1.969,-1.969,-1.969,-1.969,-1.969,-1.969,0.0,0.0,0.0,0.0,0.0,0.0,-1.9852,-2.0065,-1.9817,-2.0051,-2.0569,-2.0715,-2.0749,-2.0844,-2.1894,-2.231,-2.235,-2.2844,-2.3042,-2.3042,-2.304,-2.3038,-2.3039,-2.3039,-2.3362,-2.386,-2.4348,-2.5188,-2.5979,-2.5982,-2.6303,-2.6522,-2.5782,-2.5045,-2.4315,-2.3579,-2.3397,-2.3016,-2.1725,-2.2485,-2.2989,-2.1697,-2.2119,-2.2596,0.0,0.0,-2.2875,0.0,-2.2262,-2.2288,-2.253,-2.2643,-2.2581,-2.2327,-2.231,-2.2349,-2.2426,-2.3153,-2.3648,-2.3743,-2.4589,-2.5285,-2.5797,-2.591,-2.6201,-2.6691,-2.6945,-2.6945,-2.6691,-2.6944,-2.6927,-2.6691,-2.6691,-2.6691,-2.6708,-2.6962,-2.7229,-2.7549,-2.8598,-2.9282,-2.9829,-3.0535,-3.1596,-3.2752,-3.3441,-3.4467,-3.5632,-1.8582,-1.8731,-1.8745,-1.8731,-1.9161,-1.9645,-2.0029,-2.0273,-2.0727,-2.159,-2.1901,-2.2241,-2.266,-2.2705,-2.244,-2.1758,-2.1539,-2.1319,-2.108,-2.0645,-2.0288,-2.008,-2.0044,-1.9933,-1.9726,-1.969,-1.969,-1.969,-1.969,-1.9594,0.0,0.0,0.0,0.0,0.0,-1.9483,-2.0044,-1.9594,-1.9852,-2.0548,-2.0676,-2.0571,-2.0413,-2.145,-2.1847,-2.1916,-2.255,-2.2755,-2.2802,-2.2937,-2.3185,-2.3363,-2.3073,-2.338,-2.387,-2.4312,-2.4791,-2.5299,-2.5781,-2.6118,-2.627,-2.6034,-2.543,-2.4696,-2.3967,-2.379,-2.3418,-2.2118,-2.254,-2.2926,-2.2101,-2.2119,-2.224,0.0,0.0,-2.2157,0.0,-2.1585,-2.1375,-2.1393,-2.1786,-2.2106,-2.2282,-2.231,-2.231,-2.231,-2.275,-2.3004,-2.3004,-2.3697,-2.4441,-2.5186,-2.5439,-2.5963,-2.6691,-2.6691,-2.6691,-2.6691,-2.6691,-2.6691,-2.6691,-2.6691,-2.6691,-2.6708,-2.7267,-2.7515,-2.7613,-2.8887,-2.9542,-2.9862,-3.0849,-3.1805,-3.2769,-3.3434,-3.464,-3.5989,-1.8571,-1.8753,-1.9051,-1.9579,-1.9675,-1.969,-1.969,-2.0839,-2.1714,-2.1796,-2.2437,-2.2853,-2.2848,-2.2864,-2.257,-2.1874,-2.2366,-2.2431,-2.1796,-2.1724,-2.1414,-2.0777,-2.0721,-2.0385,-1.9756,-1.9726,-1.969,-1.969,-1.969,0.0,0.0,0.0,0.0,0.0,-1.831,-1.8695,-1.9647,-1.9125,-1.9227,-1.9741,-2.011,-2.0273,-2.0303,-2.0757,-2.0939,-2.0998,-2.1423,-2.1563,-2.1653,-2.2119,-2.2717,-2.3187,-2.2513,-2.3289,-2.4167,-2.2779,-2.3371,-2.4481,-2.4481,-2.503,-2.5732,-2.6387,-2.6051,-2.5378,-2.4648,-2.4516,-2.4333,-2.3572,-2.3098,-2.2953,-2.3507,-2.2784,-2.2061,0.0,0.0,-2.1793,-2.1073,-2.0952,-2.0972,-2.0994,-2.1327,-2.1735,-2.2209,-2.2282,-2.231,-2.231,-2.231,-2.231,-2.231,-2.3004,-2.3731,-2.4489,-2.5232,-2.5961,-2.6674,-2.6691,-2.6691,-2.6691,-2.6691,-2.6691,-2.6691,-2.6691,-2.6708,-2.6826,-2.8288,-2.8973,-2.9081,-2.9799,-3.052,-3.1157,-3.119,-3.21,-3.3459,-3.4071,-3.5166,-3.6422,-1.8316,-1.8289,-1.8477,-1.9,-1.9432,-1.969,-1.969,-2.0839,-2.2041,-2.2999,-2.4118,-2.4858,-2.4852,-2.4863,-2.4364,-2.3198,-2.2861,-2.261,-2.245,-2.1987,-2.1615,-2.143,-2.0971,-2.063,-2.0451,-1.9948,-1.969,-1.969,-1.969,-1.9417,-1.892,0.0,0.0,0.0,0.0,-1.848,-1.9099,-1.8977,-1.9227,-1.9726,-1.9822,-1.9852,-1.9852,-1.9999,-2.001,-2.0144,-2.0879,-2.1144,-2.1222,-2.1653,-2.1911,-2.2073,-2.2243,-2.2926,-2.3624,-2.3232,-2.3779,-2.4509,-2.4509,-2.4751,-2.4929,-2.4663,-2.4796,-2.483,-2.4214,-2.4722,-2.5016,-2.3994,-2.4046,-2.3896,-2.2712,-2.2248,-2.1866,-2.1334,-2.1264,-2.1077,-2.0553,-2.0482,-2.065,-2.1151,-2.0876,-2.0936,-2.1721,-2.2106,-2.231,-2.231,-2.231,-2.231,-2.231,-2.3004,-2.3731,-2.4489,-2.5234,-2.5947,-2.6691,-2.6691,-2.6691,-2.6691,-2.6691,-2.6691,-2.6691,-2.6691,-2.6979,-2.7538,-2.7929,-2.8435,-2.9079,-2.9824,-3.02,-3.0437,-3.0999,-3.2083,-3.357,-3.4813,-3.5723,-3.6372,-1.8129,-1.8303,-1.8627,-1.9198,-1.9751,-2.0185,-2.0518,-2.1214,-2.2158,-2.3428,-2.4247,-2.471,-2.4722,-2.4731,-2.4438,-2.3683,-2.3286,-2.3081,-2.3081,-2.2759,-2.2279,-2.1715,-2.1333,-2.0857,-2.0288,-1.9903,-1.969,-1.969,-1.969,-1.9307,-1.8549,0.0,0.0,0.0,0.0,-1.7842,-1.8567,-1.8817,-1.9066,-1.9388,-1.9594,-1.969,0.0,-1.969,-1.969,-1.9747,-2.0243,-2.0539,-2.0766,-2.1182,-2.1532,-2.1826,-2.1765,-2.2249,-2.2807,-2.2675,-2.2904,-2.3363,-2.3887,-2.4347,-2.461,-2.4365,-2.4814,-2.5142,-2.443,-2.479,-2.5132,-2.4734,-2.4312,-2.3939,-2.3514,-2.2349,-2.1212,-2.0531,-2.0451,-2.0354,-2.008,-2.0029,-2.0192,-2.0563,-2.0429,-2.0485,-2.0987,-2.1446,-2.1728,-2.1735,-2.1728,-2.1728,-2.1721,-2.2109,-2.2837,-2.3868,-2.4579,-2.5306,-2.6052,-2.6315,-2.6315,-2.6052,-2.628,-2.6401,-2.6401,-2.6624,-2.6928,-2.7352,-2.8017,-2.8572,-2.9076,-3.0128,-3.0578,-3.0667,-3.1382,-3.2381,-3.3507,-3.4337,-3.5262,-3.6051,-1.7912,-1.8385,-1.8906,-1.951,-2.0053,-2.0704,-2.1584,-2.1766,-2.2284,-2.3579,-2.3749,-2.3729,-2.3632,-2.3683,-2.361,-2.3374,-2.3419,-2.3419,-2.3374,-2.3359,-2.2861,-2.173,-2.1599,-2.1043,-1.9867,-1.9741,-1.969,-1.969,-1.969,-1.9176,0.0,0.0,0.0,0.0,0.0,0.0,-1.8028,-1.8577,-1.8848,-1.8956,-1.9403,-1.9645,-1.969,-1.969,-1.969,-1.969,-1.969,-1.9918,-2.0288,-2.0742,-2.1308,-2.1753,-2.1176,-2.1512,-2.2039,-2.1696,-2.1676,-2.1973,-2.2988,-2.3738,-2.4269,-2.4406,-2.5108,-2.5562,-2.4865,-2.4843,-2.5113,-2.5631,-2.4497,-2.3726,-2.4863,-2.2738,-2.0645,-2.0044,-1.9903,-1.9837,-1.9837,-1.9756,-1.9726,-1.9741,-2.0003,0.0,-2.0246,-2.0714,-2.1005,-2.0991,-2.102,-2.0988,-2.0991,-2.1101,-2.1746,-2.3071,-2.374,-2.4519,-2.5321,-2.581,-2.5835,-2.5352,-2.5717,-2.5924,-2.6013,-2.6502,-2.6793,-2.6945,-2.8473,-2.913,-2.9265,-3.0615,-3.119,-3.128,-3.193,-3.2615,-3.3276,-3.3261,-3.4108,-3.5311,-1.7583,-1.7594,-1.7831,-1.8386,-1.8943,-1.984,-2.1542,-2.2148,-2.2913,-2.4249,-2.4451,-2.4262,-2.3659,-2.4086,-2.3786,-2.2178,-2.2555,-2.2599,-2.2076,-2.2019,-2.1917,-2.1701,-2.1149,-2.0773,-2.0548,-1.9999,-1.969,-1.969,-1.969,-1.9388,0.0,0.0,0.0,0.0,0.0,0.0,-1.7488,-1.8009,-1.8512,-1.8905,-1.8986,-1.9307,-1.969,-1.969,-1.969,-1.969,-1.969,-1.9756,-1.9852,-2.0288,-2.0502,-2.0671,-2.093,-2.1528,-2.203,-2.1706,-2.2021,-2.2491,-2.2491,-2.27,-2.2866,-2.2547,-2.3475,-2.443,-2.4307,-2.5083,-2.5916,-2.6404,-2.5615,-2.4743,-2.4434,-2.2808,-2.1492,-2.1378,-2.0906,-2.0533,-2.0533,-2.0095,-1.9822,-1.9852,-1.9818,-1.9848,-1.9963,-2.0584,-2.1005,-2.1007,-2.102,-2.0988,-2.0991,-2.1585,-2.2263,-2.308,-2.3809,-2.4792,-2.6019,-2.5573,-2.5592,-2.601,-2.5559,-2.5577,-2.603,-2.6713,-2.7222,-2.7674,-2.9245,-2.9901,-2.9983,-3.084,-3.119,-3.1207,-3.1331,-3.1839,-3.2508,-3.2468,-3.3025,-3.3796,-1.8229,-1.7997,-1.8176,-1.9274,-1.972,-2.0395,-2.2002,-2.2098,-2.2295,-2.3009,-2.3103,-2.3011,-2.2641,-2.3208,-2.3224,-2.2278,-2.2222,-2.2043,-2.1729,-2.1674,-2.1545,-2.1193,-2.0872,-2.0548,-2.0192,-1.9852,-1.9852,-2.0207,-1.9852,-1.9472,0.0,-1.838,0.0,0.0,0.0,-1.6615,-1.6913,-1.7446,-1.7822,-1.8131,-1.8664,-1.9051,-1.9322,-1.9579,-1.969,-1.969,-1.969,-1.969,-1.9741,-1.9918,-1.9999,-2.0029,-2.0258,-2.0563,-2.0921,-2.1198,-2.1811,-2.2457,-2.2779,-2.3511,-2.4019,-2.3577,-2.4271,-2.5093,-2.5124,-2.5583,-2.6051,-2.6286,-2.5732,-2.4844,-2.3652,-2.2765,-2.2094,-2.1779,-2.1144,-2.0712,-2.0709,-2.0177,-1.9823,-1.9836,-1.9767,-1.9667,-1.9426,-1.9688,-2.0012,-2.0296,-2.032,-2.032,-2.0345,-2.0649,-2.117,-2.1822,-2.2879,-2.3727,-2.4392,-2.4722,-2.4883,-2.4836,-2.4826,-2.4934,-2.5182,-2.6085,-2.6656,-2.6957,-2.8733,-2.9536,-2.9624,-3.0755,-3.0982,-3.0684,-3.105,-3.1438,-3.1715,-3.1715,-3.1964,-3.2361,-1.8937,-1.8748,-1.891,-2.0144,-2.0541,-2.1011,-2.1883,-2.1627,-2.1432,-2.1718,-2.1493,-2.1318,-2.1312,-2.1824,-2.2071,-2.1931,-2.1531,-2.1245,-2.1116,-2.1214,-2.1034,-2.0497,-2.0482,-2.0222,-1.9726,-1.969,-1.9948,-2.0482,-1.9953,-1.9464,-1.9041,-1.8401,-1.7543,-1.6522,-1.6522,-1.6522,-1.6534,-1.6969,-1.72,-1.7372,-1.8232,-1.8701,-1.8956,-1.9388,-1.9594,-1.969,-1.969,-1.969,-1.969,-1.969,-1.969,-1.969,-1.969,-1.969,-1.9852,-2.063,-2.1344,-2.2124,-2.3009,-2.4206,-2.5131,-2.4866,-2.5217,-2.5633,-2.581,-2.5749,-2.5681,-2.5799,-2.5408,-2.4654,-2.332,-2.2978,-2.2774,-2.2381,-2.1528,-2.0889,-2.0923,-2.0258,-1.9786,-1.9633,-1.9616,-1.9437,-1.8976,-1.8798,-1.8939,-1.9493,-1.9427,-1.9337,-1.9337,-1.9483,-1.9837,-2.0497,-2.1786,-2.26,-2.2918,-2.3894,-2.4208,-2.3819,-2.4109,-2.4348,-2.4592,-2.561,-2.6109,-2.6274,-2.8154,-2.9076,-2.9296,-3.0311,-3.0572,-3.0387,-3.0825,-3.105,-3.119,-3.119,-3.119,-3.1365,-1.9013,-1.9369,-1.9554,-1.9233,-2.0024,-2.057,-2.0116,-2.049,-2.1056,-2.1796,-2.0874,-2.0139,-2.0067,-2.0231,-2.0043,-1.9339,-1.9743,-1.9822,-1.9212,-1.9609,-1.9852,-1.9822,-1.9771,-1.9756,-1.969,-1.969,-1.9741,-1.9771,-1.9743,-1.9433,-1.8906,-1.8372,-1.7543,-1.6522,-1.6522,-1.6522,-1.6522,-1.6534,-1.6845,-1.7325,-1.7401,-1.8014,-1.8905,-1.8971,-1.9292,-1.969,-1.969,-1.969,-1.969,-1.969,-1.969,-1.969,-1.969,-1.969,-1.9771,-2.0222,-2.083,-2.1582,-2.2508,-2.3325,-2.4034,-2.4647,-2.4546,-2.4457,-2.5142,-2.4877,-2.4679,-2.5163,-2.4834,-2.4472,-2.4407,-2.3919,-2.3698,-2.4245,-2.2789,-2.1614,-2.1595,-2.054,-1.962,-1.9113,-1.9092,-1.907,-1.8996,-1.8487,-1.8405,-1.8917,-1.8531,-1.8252,-1.8252,-1.8716,-1.9292,-1.9948,-2.1135,-2.2394,-2.3593,-2.3655,-2.3984,-2.4477,-2.3938,-2.4184,-2.516,-2.5933,-2.6405,-2.6708,-2.8315,-2.9364,-2.9973,-2.9414,-2.9956,-3.1033,-3.0437,-3.0594,-3.119,-3.119,-3.119,-3.1207,-1.9013,-1.9189,-1.9451,-1.9961,-2.0121,-2.022,-2.0312,-2.0557,-2.0592,-2.0233,-2.0083,-1.9989,-1.9945,-1.9677,-1.9366,-1.9051,-1.9176,-1.9184,-1.8913,-1.9403,-1.969,-1.969,-1.969,-1.969,-1.969,-1.969,-1.9918,-2.0288,-2.0294,-2.0044,-1.9478,-1.895,-1.789,-1.6522,-1.6522,-1.6522,-1.6522,-1.6522,-1.6615,-1.6832,-1.7188,-1.7576,-1.7948,-1.8323,-1.8743,-1.9207,-1.9207,-1.9442,-1.969,-1.969,-1.969,-1.969,-1.969,-1.969,-1.9852,-2.066,-2.1399,-2.2208,-2.3241,-2.4051,-2.4663,-2.4979,-2.4896,-2.4857,-2.5112,-2.5045,-2.4839,-2.4737,-2.4287,-2.3934,-2.4008,-2.3803,-2.3688,-2.3879,-2.2672,-2.1702,-2.1659,-2.0592,-1.9722,-1.9531,-1.9467,-1.9208,-1.8593,-1.8314,-1.8109,-1.8004,-1.8043,-1.8098,-1.8098,-1.8314,-1.8713,-1.9301,-2.0527,-2.164,-2.2498,-2.3228,-2.3729,-2.4014,-2.3729,-2.3991,-2.4752,-2.5353,-2.6269,-2.7435,-2.8501,-2.889,-2.8752,-2.9404,-2.9739,-2.9877,-3.0027,-3.0544,-3.119,-3.119,-3.119,-3.119,-1.952,-1.9811,-2.021,-2.0661,-2.0499,-2.0348,-2.0425,-2.0438,-2.0156,-1.9354,-1.9365,-1.9481,-1.9453,-1.8777,-1.8388,-1.8567,-1.8465,-1.8454,-1.8412,-1.892,-1.9227,-1.9227,-1.9388,-1.9468,-1.9468,-1.9609,-1.9933,-2.04,-2.04,-2.0049,-1.9377,-1.8646,-1.7691,-1.6522,-1.6522,-1.6522,-1.6522,-1.6522,-1.6522,-1.6534,-1.6901,-1.7145,-1.7329,-1.772,-1.821,-1.8644,-1.8664,-1.8893,-1.9244,-1.9222,-1.9339,-1.9483,-1.966,-1.9837,-2.0125,-2.0906,-2.1784,-2.2693,-2.3628,-2.4405,-2.4993,-2.5179,-2.5078,-2.496,-2.4956,-2.4854,-2.4646,-2.4245,-2.3874,-2.3683,-2.3874,-2.3725,-2.3677,-2.379,-2.2804,-2.1978,-2.195,-2.0875,-2.0079,-2.0079,-1.9798,-1.9271,-1.8513,-1.8147,-1.7805,-1.7411,-1.7524,-1.7683,-1.7869,-1.7886,-1.8087,-1.8449,-1.9847,-2.0879,-2.147,-2.2732,-2.3421,-2.3595,-2.3595,-2.3948,-2.4657,-2.5319,-2.6412,-2.7823,-2.8399,-2.8586,-2.8533,-2.9404,-2.9731,-2.9679,-2.9972,-3.0552,-3.119,-3.119,-3.119,-3.119,-2.078,-2.1731,-2.2201,-2.1004,-2.125,-2.1172,-1.9989,-1.9811,-1.9811,-1.9798,-1.8848,-1.8203,-1.8218,-1.72,-1.6726,-1.7282,-1.7338,-1.73,-1.7317,-1.7827,-1.8108,-1.8108,-1.8636,-1.8905,-1.8905,-1.9417,-1.969,-1.9726,-1.9726,-1.9157,-1.8104,-1.7038,-1.6522,-1.6522,-1.6522,-1.6522,-1.6522,-1.6522,-1.6522,-1.6522,-1.6522,-1.6832,-1.7282,-1.7325,-1.7629,-1.8126,-1.8121,-1.8106,-1.8118,-1.8107,-1.8487,-1.8986,-1.9513,-2.0125,-2.0676,-2.0712,-2.1629,-2.2817,-2.3271,-2.3889,-2.4526,-2.5063,-2.4808,-2.4407,-2.4422,-2.4008,-2.361,-2.361,-2.3595,-2.3801,-2.4468,-2.4053,-2.3831,-2.4468,-2.3509,-2.2705,-2.2669,-2.1614,-2.0785,-2.0785,-1.9722,-1.9013,-1.8988,-1.8042,-1.739,-1.742,-1.6859,-1.6758,-1.7385,-1.742,-1.742,-1.7402,-1.9075,-2.0302,-2.0897,-2.2116,-2.3009,-2.3595,-2.3595,-2.4158,-2.5205,-2.6245,-2.7097,-2.7789,-2.7806,-2.8687,-3.0023,-2.9323,-2.9862,-3.1091,-3.0387,-3.0537,-3.119,-3.119,-3.119,-3.119,-2.0192,-2.0832,-2.1384,-2.1397,-2.0837,-2.0258,-1.9977,-1.9544,-1.9113,-1.8773,-1.8096,-1.7811,-1.8162,-1.7501,-1.6969,-1.6764,-1.742,-1.7705,-1.7315,-1.7801,-1.8113,-1.8113,-1.8262,-1.8333,-1.8361,-1.8891,-1.9146,-1.9146,-1.9999,-1.9826,-1.8741,-1.7652,-1.6901,-1.6522,-1.6522,-1.6522,-1.6522,-1.6522,-1.6522,-1.6522,-1.6522,-1.6602,-1.6751,-1.6751,-1.7072,-1.7531,-1.7543,-1.7785,-1.8121,-1.8103,-1.8195,-1.8397,-1.8556,-1.9579,-2.0862,-2.1814,-2.2357,-2.2803,-2.3389,-2.3698,-2.3904,-2.4053,-2.3993,-2.3831,-2.3831,-2.3713,-2.3595,-2.3595,-2.3595,-2.3683,-2.3889,-2.3728,-2.3668,-2.3816,-2.3216,-2.2538,-2.2006,-2.1647,-2.1084,-2.0233,-2.0168,-1.99,-1.9101,-1.8367,-1.812,-1.8452,-1.8022,-1.7428,-1.6802,-1.7188,-1.7573,-1.7949,-1.9693,-2.0873,-2.1453,-2.2701,-2.3421,-2.3595,-2.3948,-2.4712,-2.5779,-2.6401,-2.6826,-2.7114,-2.8163,-2.8586,-2.8583,-2.9387,-3.0044,-3.0438,-3.0207,-3.0535,-3.119,-3.119,-3.119,-3.119,-2.0218,-2.0697,-2.1155,-2.1322,-2.0664,-2.007,-1.9965,-1.9559,-1.9172,-1.8826,-1.8323,-1.8113,-1.8445,-1.8152,-1.7693,-1.7169,-1.7534,-1.7665,-1.7338,-1.742,-1.7501,-1.7501,-1.7678,-1.7796,-1.7799,-1.8335,-1.8717,-1.8905,-1.966,-1.9566,-1.8701,-1.7804,-1.705,-1.6522,-1.6522,-1.6522,-1.6522,-1.6522,-1.6522,-1.6522,-1.6522,-1.6522,-1.6522,-1.6522,-1.6696,-1.7012,-1.7015,-1.7205,-1.7518,-1.7518,-1.7622,-1.7852,-1.8093,-1.9065,-2.0333,-2.164,-2.2352,-2.2774,-2.3169,-2.3271,-2.3271,-2.3271,-2.3419,-2.3595,-2.3595,-2.3595,-2.3595,-2.3595,-2.3595,-2.3595,-2.3595,-2.3595,-2.3595,-2.3522,-2.3271,-2.2789,-2.2105,-2.1833,-2.1326,-2.0306,-2.0549,-2.0335,-1.9113,-1.9134,-1.9041,-1.8685,-1.8865,-1.844,-1.7188,-1.7678,-1.82,-1.8507,-1.9844,-2.0997,-2.2041,-2.3039,-2.3779,-2.4184,-2.4736,-2.5335,-2.6013,-2.6487,-2.6843,-2.7182,-2.8433,-2.8873,-2.8752,-3.001,-3.0504,-3.0523,-3.0499,-3.0808,-3.119,-3.119,-3.119,-3.119,-2.0739,-2.124,-2.1457,-2.0892,-2.068,-2.0438,-1.9871,-1.976,-1.9725,-1.9669,-1.9208,-1.8874,-1.8901,-1.8902,-1.8716,-1.8252,-1.7706,-1.7385,-1.7351,-1.6901,-1.6602,-1.6547,-1.7038,-1.7282,-1.7269,-1.7748,-1.833,-1.8905,-1.8905,-1.8636,-1.8156,-1.7587,-1.7038,-1.6534,-1.6522,-1.6522,-1.6522,-1.6522,-1.6522,-1.6522,-1.6522,-1.6522,-1.6522,-1.6522,-1.6522,-1.6522,-1.6522,-1.6522,-1.6522,-1.6522,-1.6832,-1.7351,-1.7982,-1.8604,-1.9357,-2.0584,-2.1773,-2.2643,-2.2702,-2.2688,-2.2702,-2.2629,-2.3066,-2.3492,-2.3522,-2.3522,-2.3565,-2.3595,-2.3595,-2.3595,-2.3595,-2.3595,-2.3595,-2.3522,-2.3522,-2.3301,-2.2657,-2.21,-2.1523,-2.0882,-2.0852,-2.0451,-1.9244,-2.0169,-2.0118,-1.8389,-1.9435,-1.9599,-1.8355,-1.8997,-1.9347,-1.9232,-1.9807,-2.0952,-2.2697,-2.3288,-2.4164,-2.5259,-2.5726,-2.5961,-2.6068,-2.6487,-2.7046,-2.7791,-2.8569,-2.9313,-3.0006,-3.0734,-3.1038,-3.1038,-3.1106,-3.1123,-3.1123,-3.1173,-3.119,-3.119,-2.1152,-2.1046,-2.1046,-2.1404,-2.0624,-1.9923,-1.9861,-1.9457,-1.8983,-1.8579,-1.8366,-1.8446,-1.8849,-1.8907,-1.9,-1.9307,-1.884,-1.8344,-1.7945,-1.7804,-1.7514,-1.7132,-1.7213,-1.7119,-1.6683,-1.72,-1.7936,-1.8905,-1.8905,-1.8848,-1.8702,-1.7731,-1.7213,-1.7106,-1.6683,-1.6522,-1.6522,-1.6522,-1.6522,-1.6522,-1.6522,-1.6522,-1.6522,-1.6522,-1.6522,-1.6522,-1.6522,-1.6522,-1.6522,-1.6522,-1.659,-1.6739,-1.6888,-1.7912,-1.9441,-2.114,-2.1874,-2.2177,-2.2582,-2.2705,-2.2595,-2.206,-2.2062,-2.2279,-2.2789,-2.2891,-2.3051,-2.3507,-2.3595,-2.3595,-2.3595,-2.3595,-2.3462,-2.2978,-2.2891,-2.2497,-2.1327,-2.1916,-2.2035,-2.0873,-2.1647,-2.1763,-2.0521,-2.0217,-2.0136,-2.0074,-2.0484,-2.0533,-2.0117,-2.1565,-2.1751,-2.0385,-2.1813,-2.3043,-2.3825,-2.4476,-2.5128,-2.5815,-2.5524,-2.5799,-2.6521,-2.6297,-2.6467,-2.6996,-2.7774,-2.8197,-2.8433,-2.9194,-2.9499,-2.9567,-3.0142,-3.0362,-3.0429,-3.0987,-3.119,-3.119,-2.1146,-2.1003,-2.0937,-2.1312,-2.0579,-2.0014,-2.008,-1.9609,-1.9161,-1.8876,-1.8825,-1.8956,-1.9227,-1.9256,-1.9388,-1.9675,-1.9227,-1.8788,-1.8486,-1.8244,-1.7987,-1.7691,-1.7426,-1.7145,-1.6888,-1.6901,-1.7464,-1.8542,-1.9051,-1.9146,-1.8869,-1.8065,-1.7516,-1.7282,-1.6982,-1.6739,-1.6522,-1.6751,-1.6739,-1.6522,-1.6522,-1.6522,-1.6522,-1.6522,-1.6522,-1.6522,-1.6522,-1.6522,-1.6522,-1.6522,-1.6522,-1.6522,-1.6522,-1.7338,-1.8596,-2.0163,-2.0949,-2.144,-2.1694,-2.1787,-2.1758,-2.1717,-2.17,-2.1884,-2.2571,-2.2712,-2.2876,-2.3492,-2.3595,-2.3595,-2.3595,-2.3374,-2.3081,-2.2759,-2.2461,-2.1884,-2.0852,-2.1591,-2.1873,-2.0828,-2.1871,-2.2292,-2.1297,-2.1428,-2.1467,-2.1198,-2.1774,-2.1868,-2.1183,-2.264,-2.2885,-2.1522,-2.2991,-2.4185,-2.4994,-2.5603,-2.6016,-2.6297,-2.5799,-2.5835,-2.6367,-2.612,-2.6156,-2.6435,-2.7382,-2.7789,-2.784,-2.8653,-2.9011,-2.9059,-2.982,-3.0108,-3.0192,-3.092,-3.119,-3.119,-2.1104,-2.1054,-2.0988,-2.0988,-2.0682,-2.04,-2.0406,-2.011,-1.9918,-1.9918,-1.9837,-1.9771,-1.9771,-1.9741,-1.969,-1.969,-1.9292,-1.9,-1.9,-1.8585,-1.8317,-1.8238,-1.7785,-1.7515,-1.742,-1.705,-1.7316,-1.8238,-1.9227,-1.9483,-1.9,-1.8477,-1.7943,-1.742,-1.7421,-1.7141,-1.6654,-1.7166,-1.7119,-1.6615,-1.6615,-1.659,-1.6522,-1.6522,-1.6522,-1.6522,-1.6522,-1.6522,-1.6522,-1.6522,-1.6522,-1.6522,-1.6522,-1.6935,-1.762,-1.8553,-1.9648,-2.0584,-2.0684,-2.0705,-2.0849,-2.1403,-2.1636,-2.1885,-2.2555,-2.2696,-2.2891,-2.361,-2.3683,-2.361,-2.3713,-2.3183,-2.2685,-2.2693,-2.2071,-2.1342,-2.0773,-2.1296,-2.1485,-2.0941,-2.2019,-2.2585,-2.1903,-2.2845,-2.3001,-2.1945,-2.2843,-2.2978,-2.1903,-2.3055,-2.3362,-2.26,-2.3647,-2.4818,-2.5997,-2.6487,-2.6691,-2.6691,-2.6139,-2.5924,-2.5997,-2.5852,-2.5799,-2.5921,-2.7035,-2.7533,-2.7601,-2.833,-2.8704,-2.8873,-2.9651,-3.0006,-3.0192,-3.092,-3.1123,-3.1077,-2.1512,-2.1229,-2.1006,-2.1006,-2.0944,-2.0889,-2.0895,-2.0839,-2.0809,-2.0809,-2.0451,-2.0207,-2.0207,-1.9918,-1.969,-1.969,-1.9609,-1.9579,-1.9579,-1.9498,-1.9241,-1.8811,-1.8695,-1.8422,-1.7998,-1.8355,-1.8631,-1.8796,-1.9403,-1.966,-1.9564,-1.9051,-1.8493,-1.7985,-1.7977,-1.7683,-1.7204,-1.7744,-1.7665,-1.7188,-1.7188,-1.6901,-1.6522,-1.6522,-1.6522,-1.6522,-1.6522,-1.6522,-1.6522,-1.6522,-1.6522,-1.6522,-1.6522,-1.7186,-1.793,-1.7673,-1.8673,-1.9983,-2.055,-2.069,-2.0723,-2.0818,-2.1281,-2.1857,-2.2561,-2.2696,-2.3051,-2.4215,-2.4008,-2.3786,-2.4334,-2.3492,-2.2688,-2.2692,-2.1672,-2.0824,-2.0727,-2.1296,-2.1667,-2.1584,-2.2672,-2.3198,-2.2585,-2.2725,-2.2778,-2.2574,-2.2742,-2.2759,-2.257,-2.3631,-2.3979,-2.3278,-2.3977,-2.4872,-2.5997,-2.6487,-2.6691,-2.6691,-2.5746,-2.5577,-2.5961,-2.5067,-2.491,-2.5335,-2.6003,-2.6286,-2.6338,-2.6842,-2.7418,-2.8078,-2.8856,-2.955,-3.0192,-3.092,-3.0806,-3.0336,-2.199,-2.1815,-2.1703,-2.1703,-2.1703,-2.1603,-2.1357,-2.115,-2.099,-2.099,-2.0799,-2.0571,-2.0314,-2.0125,-1.9933,-1.9726,-1.969,-1.969,-1.969,-1.969,-1.9579,-1.9337,-1.9051,-1.8664,-1.8115,-1.863,-1.8903,-1.8905,-1.9432,-1.969,-1.9675,-1.9146,-1.8766,-1.8545,-1.8541,-1.8238,-1.777,-1.8289,-1.8224,-1.7714,-1.772,-1.7571,-1.7353,-1.7034,-1.6925,-1.6886,-1.6625,-1.6522,-1.6522,-1.6522,-1.6522,-1.6522,-1.6522,-1.7041,-1.7612,-1.7367,-1.8238,-1.9471,-2.0445,-2.0705,-2.0792,-2.1148,-2.1447,-2.1879,-2.2555,-2.2705,-2.2964,-2.3855,-2.3835,-2.3676,-2.3983,-2.3008,-2.2266,-2.265,-2.1584,-2.0828,-2.1167,-2.2393,-2.3092,-2.277,-2.4157,-2.4915,-2.4334,-2.4245,-2.4111,-2.3728,-2.3713,-2.358,-2.3198,-2.3683,-2.3816,-2.3507,-2.4368,-2.5057,-2.5577,-2.5783,-2.5892,-2.5892,-2.5128,-2.4894,-2.5144,-2.4632,-2.4552,-2.4831,-2.5652,-2.6013,-2.6049,-2.6505,-2.6894,-2.7334,-2.8518,-2.8941,-2.9059,-3.0615,-3.0527,-2.9727,-2.231,-2.231,-2.231,-2.231,-2.231,-2.2198,-2.1815,-2.1496,-2.1289,-2.1289,-2.1144,-2.0855,-2.0512,-2.038,-2.0192,-1.9852,-1.9837,-1.9837,-1.9837,-1.9756,-1.969,-1.969,-1.9307,-1.8891,-1.8477,-1.8891,-1.9081,-1.9081,-1.9498,-1.969,-1.9675,-1.9292,-1.9,-1.8905,-1.9051,-1.8804,-1.831,-1.8869,-1.8789,-1.8273,-1.829,-1.8204,-1.8066,-1.7626,-1.7504,-1.7451,-1.7008,-1.6879,-1.6837,-1.671,-1.668,-1.668,-1.6552,-1.6867,-1.7264,-1.7147,-1.7874,-1.8994,-2.0347,-2.0818,-2.1101,-2.1768,-2.2034,-2.2282,-2.2771,-2.2915,-2.3065,-2.3704,-2.3708,-2.3669,-2.3776,-2.2876,-2.2322,-2.2996,-2.1974,-2.1365,-2.221,-2.3463,-2.417,-2.3857,-2.5267,-2.6106,-2.5636,-2.5484,-2.5168,-2.4627,-2.4474,-2.4141,-2.361,-2.3595,-2.3595,-2.3595,-2.4511,-2.5012,-2.5012,-2.5144,-2.5221,-2.5182,-2.4672,-2.4389,-2.4389,-2.4266,-2.4184,-2.4266,-2.5221,-2.5615,-2.5689,-2.6175,-2.6536,-2.6891,-2.7978,-2.828,-2.83,-2.9934,-2.9904,-2.9099,-2.231,-2.231,-2.231,-2.231,-2.231,-2.231,-2.2248,-2.2215,-2.2215,-2.2215,-2.1496,-2.0976,-2.0941,-2.0569,-2.0288,-2.0273,-2.0273,-2.0273,-2.0273,-1.9918,-1.969,-1.969,-1.966,-1.9609,-1.9579,-1.9609,-1.9645,-1.9645,-1.9675,-1.969,-1.969,-1.966,-1.9388,-1.8905,-1.9417,-1.9325,-1.8873,-1.9398,-1.9325,-1.8835,-1.8851,-1.8528,-1.8106,-1.8066,-1.8052,-1.8052,-1.7987,-1.7987,-1.7907,-1.7435,-1.7229,-1.7146,-1.668,-1.687,-1.7206,-1.6705,-1.7301,-1.8521,-2.0241,-2.1154,-2.1776,-2.2454,-2.3038,-2.3475,-2.3492,-2.3533,-2.3694,-2.4392,-2.404,-2.3804,-2.4394,-2.3831,-2.347,-2.4179,-2.3167,-2.2715,-2.4046,-2.3912,-2.3899,-2.446,-2.5183,-2.5631,-2.5602,-2.5048,-2.4633,-2.4604,-2.4011,-2.3668,-2.3595,-2.3595,-2.3595,-2.3595,-2.4158,-2.4471,-2.4471,-2.4934,-2.5221,-2.5182,-2.4672,-2.4389,-2.4389,-2.3879,-2.3681,-2.3681,-2.4266,-2.4511,-2.4552,-2.5089,-2.6005,-2.7036,-2.6643,-2.7574,-2.9057,-2.8735,-2.8496,-2.849,-2.231,-2.2006,-2.1782,-2.186,-2.1513,-2.1384,-2.1799,-2.1877,-2.1973,-2.2248,-2.1765,-2.1262,-2.1021,-2.086,-2.062,-2.0352,-2.0288,-2.0303,-2.0314,-1.9918,-1.969,-1.969,-1.969,-1.969,-1.969,-1.969,-1.969,-1.969,-1.969,-1.969,-1.969,-1.969,-1.9579,-1.9403,-1.9594,-1.9603,-1.9406,-1.9603,-1.9566,-1.9406,-1.9413,-1.9273,-1.9043,-1.8727,-1.8612,-1.8535,-1.8224,-1.8106,-1.808,-1.7869,-1.7814,-1.7773,-1.7552,-1.7633,-1.7885,-1.8454,-1.8595,-1.8979,-2.081,-2.1499,-2.1928,-2.3008,-2.3443,-2.3595,-2.3595,-2.3874,-2.4157,-2.4438,-2.4541,-2.4676,-2.4915,-2.4364,-2.4256,-2.5382,-2.4482,-2.413,-2.549,-2.5895,-2.5961,-2.5847,-2.6741,-2.7075,-2.6314,-2.6358,-2.5928,-2.4682,-2.5127,-2.4906,-2.367,-2.3595,-2.3595,-2.3595,-2.3794,-2.3906,-2.3906,-2.4116,-2.4184,-2.4199,-2.3991,-2.3906,-2.3921,-2.3681,-2.3595,-2.3638,-2.4158,-2.4389,-2.443,-2.4973,-2.5731,-2.6557,-2.6816,-2.7355,-2.8059,-2.8758,-2.8497,-2.784,-2.2006,-2.1799,-2.164,-2.1505,-2.1093,-2.1014,-2.1702,-2.1624,-2.167,-2.2231,-2.1894,-2.1453,-2.1054,-2.1003,-2.0879,-2.0558,-2.0527,-2.0534,-2.0528,-2.0014,-1.969,-1.969,-1.969,-1.969,-1.969,-1.969,-1.969,-1.969,-1.969,-1.9738,-1.9891,-1.9768,-1.9767,-1.9899,-1.9767,-1.969,-1.969,-1.969,-1.969,-1.969,-1.969,-1.969,-1.9639,-1.9281,-1.9169,-1.9095,-1.8727,-1.8612,-1.8602,-1.843,-1.8363,-1.8321,-1.8139,-1.8116,-1.8318,-1.9293,-1.9276,-1.9237,-2.092,-2.1544,-2.1952,-2.3059,-2.3477,-2.3595,-2.3595,-2.3889,-2.4253,-2.4677,-2.5035,-2.5433,-2.5823,-2.5496,-2.5493,-2.6454,-2.5728,-2.5427,-2.6605,-2.701,-2.706,-2.6672,-2.7545,-2.778,-2.6701,-2.703,-2.6688,-2.5318,-2.5667,-2.526,-2.3684,-2.3595,-2.3595,-2.3595,-2.3595,-2.3595,-2.3595,-2.3595,-2.3595,-2.3595,-2.3595,-2.3595,-2.3595,-2.3595,-2.3595,-2.3638,-2.3991,-2.4158,-2.4199,-2.4552,-2.5075,-2.5677,-2.6246,-2.6655,-2.7087,-2.8104,-2.8062,-2.7561,-2.1351,-2.1782,-2.2056,-2.1307,-2.1183,-2.1445,-2.2149,-2.1679,-2.1463,-2.2215,-2.1894,-2.1453,-2.1038,-2.1003,-2.1007,-2.1002,-2.0988,-2.101,-2.0998,-2.0192,-1.969,-1.969,-1.969,-1.969,-1.969,-1.969,-1.969,-1.969,-1.969,-1.9896,-2.0282,-1.9875,-1.9919,-2.0276,-1.9864,-1.969,-1.969,-1.969,-1.969,-1.969,-1.969,-1.969,-1.969,-1.969,-1.969,-1.969,-1.969,-1.969,-1.9617,-1.9084,-1.8919,-1.8804,-1.8296,-1.8099,-1.8202,-1.8757,-1.8917,-1.9154,-2.0378,-2.1198,-2.1877,-2.253,-2.3169,-2.3595,-2.361,-2.361,-2.3963,-2.5254,-2.5514,-2.59,-2.7165,-2.7351,-2.7301,-2.7318,-2.6792,-2.6661,-2.7319,-2.6935,-2.6592,-2.6592,-2.717,-2.736,-2.6672,-2.6577,-2.6577,-2.6562,-2.5334,-2.4298,-2.364,-2.3595,-2.3595,-2.3595,-2.3595,-2.3595,-2.3595,-2.3595,-2.3595,-2.3595,-2.3595,-2.3595,-2.3595,-2.3595,-2.3595,-2.3595,-2.3595,-2.3595,-2.3595,-2.3595,-2.3921,-2.4426,-2.4564,-2.5319,-2.6425,-2.6572,-2.7006,-2.761,-2.1144,-2.0712,-2.0357,-2.0665,-2.0045,-1.9844,-2.0874,-2.0849,-2.1083,-2.2153,-2.1894,-2.1466,-2.1026,-2.1009,-2.1007,-2.1009,-2.0994,-2.101,-2.0998,-2.0451,-2.011,-2.011,-1.9852,-1.969,-1.969,-1.969,-1.969,-1.969,-1.969,-1.9753,-1.9873,-1.9768,-1.9767,-1.9864,-1.9732,-1.969,-1.969,-1.969,-1.969,-1.969,-1.969,-1.969,-1.969,-1.969,-1.969,-1.969,-1.969,-1.969,-1.969,-1.9523,-1.9449,-1.9411,-1.9266,-1.9211,-1.9342,-1.9981,-1.9842,-1.9616,-2.0485,-2.1198,-2.1877,-2.253,-2.2861,-2.3198,-2.4111,-2.426,-2.4579,-2.5844,-2.6426,-2.6792,-2.7184,-2.7255,-2.7385,-2.7939,-2.752,-2.7342,-2.8087,-2.767,-2.7294,-2.7294,-2.7067,-2.6794,-2.6633,-2.6149,-2.5697,-2.5248,-2.4403,-2.4014,-2.4313,-2.3864,-2.3595,-2.3595,-2.3595,-2.3595,-2.3595,-2.3595,-2.3595,-2.3595,-2.3595,-2.3595,-2.3595,-2.3595,-2.3595,-2.3595,-2.3595,-2.3595,-2.3595,-2.3595,-2.3966,-2.4534,-2.4582,-2.5393,-2.6542,-2.6609,-2.6722,-2.6946,-2.0254,-1.9951,-1.9697,-1.984,-1.9292,-1.9278,-2.057,-2.0509,-2.0766,-2.2119,-2.204,-2.1703,-2.1273,-2.1229,-2.1183,-2.1019,-2.0717,-2.0692,-2.0989,-2.0283,-1.9919,-2.0065,-1.9837,-1.969,-1.969,-1.969,-1.969,-1.969,-1.969,-1.9793,-1.9936,-1.9758,-1.9788,-1.9919,-1.9767,-1.969,-1.969,-1.969,-1.969,-1.969,-1.969,-1.969,-1.969,-1.969,-1.969,-1.969,-1.969,-1.969,-1.969,-1.969,-1.969,-1.969,-1.969,-1.969,-1.9771,-2.0192,-2.0207,-2.0192,-2.0579,-2.1394,-2.2189,-2.2617,-2.2687,-2.2966,-2.3934,-2.3961,-2.4263,-2.6046,-2.6653,-2.7142,-2.7926,-2.7894,-2.7854,-2.8332,-2.7876,-2.764,-2.8062,-2.781,-2.7515,-2.7265,-2.7079,-2.6793,-2.6283,-2.6087,-2.5585,-2.4656,-2.4224,-2.4193,-2.4567,-2.4238,-2.4014,-2.4014,-2.4014,-2.3879,-2.3595,-2.3595,-2.3595,-2.3595,-2.3595,-2.3595,-2.3595,-2.3595,-2.3595,-2.3595,-2.3595,-2.3595,-2.3595,-2.3595,-2.3849,-2.4283,-2.4807,-2.5495,-2.6258,-2.6782,-2.6976,-2.7036,-1.9023,-1.9379,-1.9605,-1.9007,-1.8858,-1.9292,-2.077,-2.0416,-2.0511,-2.1911,-2.2153,-2.2006,-2.1463,-2.1408,-2.1268,-2.091,-2.0302,-2.0223,-2.0905,-1.9894,-1.9389,-1.9702,-1.9741,-1.9741,-1.969,-1.969,-1.969,-1.969,-1.969,-1.9878,-2.0223,-1.9858,-1.9899,-2.0224,-1.9803,-1.963,-1.969,-1.963,-1.963,-1.969,-1.9639,-1.9639,-1.9639,-1.9639,-1.9639,-1.9639,-1.969,-1.969,-1.969,-1.969,-1.969,-1.969,-1.969,-1.9741,-1.9771,-1.9771,-2.0273,-2.0788,-2.0786,-2.1713,-2.2714,-2.2706,-2.2687,-2.2847,-2.3431,-2.3057,-2.3307,-2.5879,-2.6425,-2.7015,-2.89,-2.8789,-2.841,-2.841,-2.7936,-2.7625,-2.7625,-2.7625,-2.739,-2.6781,-2.7205,-2.7016,-2.5827,-2.6198,-2.5978,-2.4717,-2.4642,-2.4672,-2.4672,-2.4672,-2.4672,-2.4672,-2.4672,-2.4388,-2.3699,-2.3684,-2.3655,-2.3595,-2.3595,-2.3625,-2.3684,-2.3625,-2.3625,-2.3684,-2.3625,-2.3595,-2.3595,-2.3595,-2.3595,-2.3729,-2.5016,-2.5555,-2.5764,-2.7021,-2.7535,-2.752,-1.8802,-1.8551,-1.8407,-1.883,-1.8421,-1.8353,-1.9258,-1.9731,-2.0134,-2.0449,-2.105,-2.105,-1.9979,-1.9897,-1.9943,-2.0116,-2.0045,-2.0177,-2.0591,-2.0122,-1.9847,-1.9873,-2.0044,-2.0014,-1.9726,-1.969,-1.969,-1.969,-1.969,-1.9752,-1.9818,-1.9752,-1.9747,-1.9793,-1.9206,-1.9211,-1.966,-1.9136,-1.9211,-1.9639,-1.9244,-1.908,-1.908,-1.908,-1.908,-1.9132,-1.9566,-1.969,-1.969,-1.969,-1.969,-1.969,-1.969,-2.0044,-2.0482,-2.0482,-2.0952,-2.1495,-2.1488,-2.2064,-2.2688,-2.2714,-2.2687,-2.2965,-2.4041,-2.3389,-2.3347,-2.5935,-2.6497,-2.6796,-2.7795,-2.7891,-2.7795,-2.7795,-2.767,-2.7625,-2.7625,-2.7625,-2.7545,-2.7405,-2.7066,-2.6707,-2.6404,-2.6033,-2.5465,-2.4642,-2.5106,-2.539,-2.539,-2.539,-2.539,-2.539,-2.539,-2.5076,-2.4418,-2.4403,-2.4133,-2.3595,-2.3595,-2.3879,-2.4388,-2.3849,-2.3894,-2.4328,-2.3834,-2.3595,-2.3595,-2.3595,-2.3595,-2.3684,-2.4522,-2.5151,-2.5704,-2.6512,-2.6797,-2.6722,-1.8297,-1.8042,-1.7918,-1.8314,-1.8042,-1.8042,-1.8785,-1.9239,-1.961,-1.9953,-2.0368,-2.0399,-1.9774,-1.9698,-1.9756,-1.9941,-1.9483,-1.9413,-1.995,-1.9491,-1.9245,-1.9387,-1.9493,-1.9394,-1.8971,-1.8986,-1.9227,-1.969,-1.9388,-1.9403,-1.9675,-1.9388,-1.9235,-1.9204,-1.9206,-1.9016,-1.8747,-1.8717,-1.8897,-1.9211,-1.8912,-1.9016,-1.9281,-1.9281,-1.9281,-1.9332,-1.9603,-1.969,-1.969,-1.969,-1.969,-1.969,-1.969,-1.9756,-1.9929,-2.0528,-2.0981,-2.1446,-2.203,-2.2657,-2.3111,-2.3111,-2.2891,-2.2921,-2.3764,-2.3514,-2.3653,-2.5595,-2.6229,-2.6716,-2.7434,-2.7625,-2.7625,-2.7625,-2.7625,-2.7625,-2.7625,-2.7625,-2.7625,-2.7625,-2.726,-2.6931,-2.6617,-2.5989,-2.5465,-2.5121,-2.542,-2.5749,-2.6063,-2.6078,-2.6078,-2.6078,-2.5779,-2.53,-2.4597,-2.4582,-2.4403,-2.4088,-2.4088,-2.4283,-2.4582,-2.4582,-2.4762,-2.5076,-2.4717,-2.4388,-2.4088,-2.4088,-2.3894,-2.3699,-2.4702,-2.53,-2.5734,-2.6692,-2.6856,-2.6497,-1.7772,-1.7811,-1.7811,-1.7811,-1.7811,-1.8008,-1.8603,-1.8802,-1.9066,-1.9551,-1.9729,-1.9767,-1.9641,-1.9675,-1.9715,-1.9725,-1.8797,-1.8512,-1.9179,-1.865,-1.8454,-1.8714,-1.8848,-1.8682,-1.8199,-1.8203,-1.862,-1.9513,-1.8876,-1.8924,-1.9687,-1.9019,-1.8758,-1.887,-1.9215,-1.8871,-1.8074,-1.8283,-1.8568,-1.8867,-1.8644,-1.8951,-1.9566,-1.9566,-1.9566,-1.9566,-1.969,-1.969,-1.969,-1.969,-1.969,-1.9675,-1.9579,-1.9337,-1.9281,-2.0259,-2.0783,-2.1312,-2.2395,-2.3154,-2.3595,-2.3595,-2.3198,-2.2995,-2.3468,-2.3605,-2.3956,-2.5325,-2.6071,-2.6716,-2.7434,-2.7625,-2.7625,-2.7625,-2.7625,-2.7625,-2.7625,-2.7625,-2.7625,-2.7625,-2.752,-2.7186,-2.6632,-2.6093,-2.5779,-2.5779,-2.5884,-2.6183,-2.6722,-2.6752,-2.6752,-2.6752,-2.6228,-2.563,-2.4971,-2.4956,-2.4866,-2.4746,-2.4911,-2.4956,-2.4986,-2.542,-2.5674,-2.5764,-2.5659,-2.53,-2.4746,-2.4746,-2.4462,-2.4059,-2.53,-2.5704,-2.5734,-2.6841,-2.6901,-2.6333,-1.7665,-1.7811,-1.7811,-1.7811,-1.7811,-1.7828,-1.7935,-1.8495,-1.8705,-1.8188,-1.866,-1.8802,-1.8172,-1.837,-1.8523,-1.854,-1.8111,-1.8043,-1.843,-1.8404,-1.8393,-1.8363,-1.8994,-1.8951,-1.8227,-1.8192,-1.8395,-1.8825,-1.8158,-1.8493,-1.9707,-1.9008,-1.8992,-1.9521,-1.8467,-1.8492,-1.9316,-1.7667,-1.7951,-1.9459,-1.8439,-1.8404,-1.9006,-1.9006,-1.9006,-1.908,-1.953,-1.969,-1.969,-1.969,-1.969,-1.9609,-1.9146,-1.9337,-1.9797,-1.995,-2.0826,-2.1903,-2.2555,-2.3154,-2.3595,-2.3595,-2.3522,-2.3644,-2.4205,-2.397,-2.4128,-2.5972,-2.6433,-2.6716,-2.7434,-2.7625,-2.7625,-2.7625,-2.7625,-2.7625,-2.7625,-2.7625,-2.7625,-2.7625,-2.7066,-2.6692,-2.6602,-2.6512,-2.6452,-2.6452,-2.6976,-2.735,-2.749,-2.749,-2.749,-2.749,-2.74,-2.6991,-2.6333,-2.6318,-2.6033,-2.548,-2.6048,-2.6318,-2.6303,-2.5824,-2.5914,-2.6422,-2.5854,-2.5555,-2.548,-2.548,-2.542,-2.542,-2.6168,-2.6108,-2.563,-2.5809,-2.5809,-2.5644,-1.6803,-1.6965,-1.7143,-1.7698,-1.7811,-1.7811,-1.7811,-1.8082,-1.8172,-1.7845,-1.8082,-1.8172,-1.7845,-1.7935,-1.8189,-1.8603,-1.8116,-1.8042,-1.8603,-1.828,-1.8042,-1.8025,-1.8138,-1.7962,-1.7436,-1.7241,-1.7288,-1.7567,-1.7274,-1.7829,-1.9126,-1.8084,-1.816,-1.9102,-1.8515,-1.819,-1.7981,-1.7473,-1.7548,-1.8011,-1.7836,-1.7959,-1.8332,-1.9053,-1.9097,-1.8868,-1.9468,-1.969,-1.966,-1.9337,-1.9241,-1.9161,-1.8636,-1.8664,-1.9039,-1.9683,-2.0311,-2.1056,-2.2337,-2.2891,-2.3183,-2.3507,-2.3865,-2.4326,-2.4969,-2.52,-2.5524,-2.6329,-2.6825,-2.7184,-2.753,-2.7625,-2.7625,-2.7625,-2.7625,-2.7625,-2.7625,-2.7625,-2.7625,-2.7625,-2.737,-2.7141,-2.7141,-2.7141,-2.7141,-2.7141,-2.741,-2.7625,-2.7625,-2.7625,-2.7625,-2.7625,-2.7215,-2.6886,-2.6587,-2.6587,-2.6437,-2.6168,-2.6826,-2.6946,-2.6587,-2.6677,-2.6856,-2.7126,-2.6841,-2.6497,-2.6153,-2.6153,-2.5944,-2.563,-2.5929,-2.5869,-2.5615,-2.5615,-2.5375,-2.5076]}]]